[[{"header":{"parameterUnit":"m.s-1","parameterCategory":1,"la1":30.6,"la2":29.2853,"lo1":-89.7004,"lo2":-87.6739,"dy":0.0162,"dx":0.0183,"nx":112,"ny":82,"refTime":"2026-05-04T12:00:00:Z","depth":0,"parameterNumber":2,"parameterNumberName":"U-component_of_WINDS"},"data":[0.0,0.0,0.0,0.0,0.0,0.0,0.0,0.0,0.0,0.0,0.0,0.0,0.0,0.0,0.0,0.0,0.0,0.0,0.0,0.0,0.0,0.0,0.0,0.0,0.0,0.0,0.0,0.0,0.0,0.0,0.0,0.0,0.0,0.0,0.0,0.0,0.0,0.0,0.0,0.0,0.0,0.0,0.0,0.0,0.0,0.0,0.0,0.0,0.0,0.0,0.0,0.0,0.0,0.0,0.0,0.0,0.0,0.0,0.0,0.0,0.0,0.0,0.0,0.0,0.0,0.0,0.0,0.0,0.0,0.0,0.0,0.0,0.0,0.0,0.0,0.0,0.0,0.0,0.0,0.0,0.0,0.0,0.0,0.0,0.0,0.0,0.0,0.0,0.0,0.0,-3.4793,-3.4995,-3.5329,-3.5346,-3.4937,-3.4716,-3.3621,-3.1364,0.0,0.0,0.0,0.0,0.0,0.0,0.0,0.0,0.0,0.0,0.0,0.0,0.0,0.0,0.0,0.0,0.0,0.0,0.0,0.0,0.0,0.0,0.0,0.0,0.0,0.0,0.0,0.0,0.0,0.0,0.0,0.0,0.0,0.0,0.0,0.0,0.0,0.0,0.0,0.0,0.0,0.0,0.0,0.0,0.0,0.0,0.0,0.0,0.0,0.0,0.0,0.0,0.0,0.0,0.0,0.0,0.0,0.0,0.0,0.0,0.0,0.0,0.0,0.0,0.0,0.0,0.0,0.0,0.0,0.0,0.0,0.0,0.0,0.0,0.0,0.0,0.0,0.0,0.0,0.0,0.0,0.0,0.0,0.0,0.0,0.0,0.0,0.0,0.0,0.0,0.0,0.0,0.0,0.0,0.0,0.0,0.0,0.0,0.0,0.0,0.0,0.0,0.0,0.0,-3.4935,-3.5521,-3.5036,-3.4736,-3.4899,-3.4415,-3.3068,-3.0599,0.0,0.0,0.0,0.0,0.0,0.0,0.0,0.0,0.0,0.0,0.0,0.0,0.0,0.0,0.0,0.0,0.0,0.0,0.0,0.0,0.0,0.0,0.0,0.0,0.0,0.0,0.0,0.0,0.0,0.0,0.0,0.0,0.0,0.0,0.0,0.0,0.0,0.0,0.0,0.0,0.0,0.0,0.0,0.0,0.0,0.0,0.0,0.0,0.0,0.0,0.0,0.0,0.0,0.0,0.0,0.0,0.0,0.0,0.0,0.0,0.0,0.0,0.0,0.0,0.0,0.0,0.0,0.0,0.0,0.0,0.0,0.0,0.0,0.0,0.0,0.0,0.0,0.0,0.0,0.0,0.0,0.0,0.0,0.0,0.0,0.0,0.0,0.0,0.0,0.0,0.0,0.0,0.0,0.0,0.0,0.0,0.0,0.0,0.0,0.0,0.0,0.0,0.0,-3.4897,-3.5207,-3.5643,-3.5366,-3.5138,-3.5129,-3.4658,-3.343,-3.1247,-3.1405,0.0,0.0,0.0,0.0,0.0,0.0,0.0,0.0,0.0,0.0,0.0,0.0,0.0,0.0,0.0,0.0,0.0,0.0,0.0,0.0,0.0,0.0,0.0,0.0,0.0,0.0,0.0,0.0,0.0,0.0,0.0,0.0,0.0,0.0,0.0,0.0,0.0,0.0,0.0,0.0,0.0,0.0,0.0,0.0,0.0,0.0,0.0,0.0,0.0,0.0,0.0,0.0,0.0,0.0,0.0,0.0,0.0,0.0,0.0,0.0,0.0,0.0,0.0,0.0,0.0,0.0,0.0,0.0,0.0,0.0,0.0,0.0,0.0,0.0,0.0,0.0,0.0,0.0,0.0,0.0,0.0,0.0,0.0,0.0,0.0,0.0,0.0,0.0,0.0,0.0,0.0,0.0,0.0,0.0,0.0,0.0,0.0,0.0,0.0,0.0,0.0,0.0,-3.5053,-3.5397,-3.5677,-3.5698,-3.5589,-3.5321,-3.4926,-3.3863,-3.1936,-3.1679,0.0,0.0,0.0,0.0,0.0,0.0,0.0,0.0,0.0,0.0,0.0,0.0,0.0,0.0,0.0,0.0,0.0,0.0,0.0,0.0,0.0,0.0,0.0,0.0,0.0,0.0,0.0,0.0,0.0,0.0,0.0,0.0,0.0,0.0,0.0,0.0,0.0,0.0,0.0,0.0,0.0,0.0,0.0,0.0,0.0,0.0,0.0,0.0,0.0,0.0,0.0,0.0,0.0,0.0,0.0,0.0,0.0,0.0,0.0,0.0,0.0,0.0,0.0,0.0,0.0,0.0,0.0,0.0,0.0,0.0,0.0,0.0,0.0,0.0,0.0,0.0,0.0,0.0,0.0,0.0,0.0,0.0,0.0,0.0,0.0,0.0,0.0,0.0,0.0,0.0,0.0,0.0,0.0,0.0,0.0,0.0,0.0,0.0,0.0,0.0,0.0,0.0,-3.5053,-3.5397,-3.5677,-3.5698,-3.5589,-3.5321,-3.4926,-3.3863,-3.1936,-3.1679,0.0,0.0,0.0,0.0,0.0,0.0,0.0,0.0,0.0,0.0,0.0,0.0,0.0,0.0,0.0,0.0,0.0,0.0,0.0,0.0,0.0,0.0,0.0,0.0,0.0,0.0,0.0,0.0,0.0,0.0,0.0,0.0,0.0,0.0,0.0,0.0,0.0,0.0,0.0,0.0,0.0,0.0,0.0,0.0,0.0,0.0,0.0,0.0,0.0,0.0,0.0,0.0,0.0,0.0,0.0,0.0,0.0,0.0,0.0,0.0,0.0,0.0,0.0,0.0,0.0,0.0,0.0,0.0,0.0,0.0,0.0,0.0,0.0,0.0,0.0,0.0,0.0,0.0,0.0,0.0,0.0,0.0,0.0,0.0,0.0,0.0,0.0,0.0,0.0,0.0,0.0,0.0,0.0,0.0,0.0,0.0,0.0,0.0,0.0,0.0,0.0,0.0,-3.5005,-3.5356,-3.567,-3.5664,-3.5611,-3.5543,-3.5025,-3.4054,-3.2539,0.0,0.0,0.0,0.0,0.0,0.0,0.0,0.0,0.0,0.0,0.0,0.0,0.0,0.0,0.0,0.0,0.0,0.0,0.0,0.0,0.0,0.0,0.0,0.0,0.0,0.0,0.0,0.0,0.0,0.0,0.0,0.0,0.0,0.0,0.0,0.0,0.0,0.0,0.0,0.0,0.0,0.0,0.0,0.0,0.0,0.0,0.0,0.0,0.0,0.0,0.0,0.0,0.0,0.0,0.0,0.0,0.0,0.0,0.0,0.0,0.0,0.0,0.0,0.0,0.0,0.0,0.0,0.0,0.0,0.0,0.0,0.0,0.0,0.0,0.0,0.0,0.0,0.0,0.0,0.0,0.0,0.0,0.0,0.0,0.0,0.0,0.0,0.0,0.0,0.0,0.0,0.0,0.0,0.0,0.0,0.0,0.0,0.0,0.0,0.0,0.0,0.0,-3.4653,-3.4933,-3.5239,-3.5663,-3.5659,-3.5646,-3.5697,-3.4936,-3.3979,-3.2866,0.0,0.0,0.0,0.0,0.0,0.0,0.0,0.0,0.0,0.0,0.0,0.0,0.0,0.0,0.0,0.0,0.0,0.0,0.0,0.0,0.0,0.0,0.0,0.0,0.0,0.0,0.0,0.0,0.0,0.0,0.0,0.0,0.0,0.0,0.0,0.0,0.0,0.0,0.0,0.0,0.0,0.0,0.0,0.0,0.0,0.0,0.0,0.0,0.0,0.0,0.0,0.0,0.0,0.0,0.0,0.0,0.0,0.0,0.0,0.0,0.0,0.0,0.0,0.0,0.0,0.0,0.0,0.0,0.0,0.0,0.0,0.0,0.0,0.0,0.0,0.0,0.0,0.0,0.0,0.0,0.0,0.0,0.0,0.0,0.0,0.0,0.0,0.0,0.0,0.0,0.0,0.0,0.0,0.0,0.0,0.0,0.0,0.0,0.0,0.0,0.0,0.0,-3.4614,-3.4755,-3.4995,-3.5616,-3.5662,-3.5673,-3.5665,-3.4582,-3.357,0.0,0.0,0.0,0.0,0.0,0.0,0.0,0.0,0.0,0.0,0.0,0.0,0.0,0.0,0.0,0.0,0.0,0.0,0.0,0.0,0.0,0.0,0.0,0.0,0.0,0.0,0.0,0.0,0.0,0.0,0.0,0.0,0.0,0.0,0.0,0.0,0.0,0.0,0.0,0.0,0.0,0.0,0.0,0.0,0.0,0.0,0.0,0.0,0.0,0.0,0.0,0.0,0.0,0.0,0.0,0.0,0.0,0.0,0.0,0.0,0.0,0.0,0.0,0.0,0.0,0.0,0.0,0.0,0.0,0.0,0.0,0.0,0.0,0.0,0.0,0.0,0.0,0.0,0.0,0.0,0.0,0.0,0.0,0.0,0.0,0.0,0.0,0.0,0.0,0.0,0.0,0.0,0.0,0.0,0.0,0.0,0.0,0.0,0.0,0.0,0.0,0.0,0.0,-3.2938,-3.345,-3.3853,-3.3937,-3.3844,-3.3828,-3.3932,-3.3343,-3.2359,-3.0909,0.0,0.0,0.0,0.0,0.0,0.0,0.0,0.0,0.0,0.0,0.0,0.0,0.0,0.0,0.0,0.0,0.0,0.0,0.0,0.0,0.0,0.0,0.0,0.0,0.0,0.0,0.0,0.0,0.0,0.0,0.0,0.0,0.0,0.0,0.0,0.0,0.0,0.0,0.0,0.0,0.0,0.0,0.0,0.0,0.0,0.0,0.0,0.0,0.0,0.0,0.0,0.0,0.0,0.0,0.0,0.0,0.0,0.0,0.0,0.0,0.0,0.0,0.0,0.0,0.0,0.0,0.0,0.0,0.0,0.0,0.0,0.0,0.0,0.0,0.0,0.0,0.0,0.0,0.0,0.0,0.0,0.0,0.0,0.0,0.0,0.0,0.0,0.0,0.0,0.0,0.0,0.0,0.0,0.0,0.0,0.0,0.0,0.0,0.0,0.0,0.0,0.0,-3.2203,-3.2638,-3.2994,-3.3145,-3.3106,-3.3112,-3.3184,-3.2656,-3.1684,-3.0177,0.0,0.0,0.0,0.0,0.0,0.0,0.0,0.0,0.0,0.0,0.0,0.0,0.0,0.0,0.0,0.0,0.0,0.0,0.0,0.0,0.0,0.0,0.0,0.0,0.0,0.0,0.0,0.0,0.0,0.0,0.0,0.0,0.0,0.0,0.0,0.0,0.0,0.0,0.0,0.0,0.0,0.0,0.0,0.0,0.0,0.0,0.0,0.0,0.0,0.0,0.0,0.0,0.0,0.0,0.0,0.0,0.0,0.0,0.0,0.0,0.0,0.0,0.0,0.0,0.0,0.0,0.0,0.0,0.0,0.0,0.0,0.0,0.0,0.0,0.0,0.0,0.0,0.0,0.0,0.0,0.0,0.0,0.0,0.0,0.0,0.0,0.0,0.0,0.0,0.0,0.0,0.0,0.0,0.0,0.0,0.0,0.0,0.0,0.0,0.0,0.0,0.0,-3.1977,-3.2034,-3.2276,-3.2803,-3.2854,-3.2844,-3.2832,-3.2046,-3.1079,-2.9965,0.0,0.0,0.0,0.0,0.0,0.0,0.0,0.0,0.0,0.0,0.0,0.0,0.0,0.0,0.0,0.0,0.0,0.0,0.0,0.0,0.0,0.0,0.0,0.0,0.0,0.0,0.0,0.0,0.0,0.0,0.0,0.0,0.0,0.0,0.0,0.0,0.0,0.0,0.0,0.0,0.0,0.0,0.0,0.0,0.0,0.0,0.0,0.0,0.0,0.0,0.0,0.0,0.0,0.0,0.0,0.0,0.0,0.0,0.0,0.0,-3.6699,-3.7175,0.0,0.0,0.0,0.0,0.0,0.0,0.0,0.0,0.0,0.0,0.0,0.0,0.0,0.0,0.0,0.0,0.0,0.0,0.0,0.0,0.0,0.0,0.0,0.0,0.0,0.0,0.0,0.0,0.0,0.0,0.0,0.0,0.0,0.0,0.0,0.0,0.0,0.0,0.0,0.0,-3.05,-3.0877,-3.114,-3.1062,-3.0508,-3.0131,-3.0136,-2.9435,-2.8563,-2.7589,-2.774,0.0,0.0,0.0,0.0,0.0,0.0,0.0,0.0,0.0,0.0,0.0,0.0,0.0,0.0,0.0,0.0,0.0,0.0,0.0,0.0,0.0,0.0,0.0,0.0,0.0,0.0,0.0,0.0,0.0,0.0,0.0,0.0,0.0,0.0,0.0,0.0,0.0,0.0,0.0,0.0,0.0,0.0,0.0,0.0,0.0,0.0,0.0,0.0,0.0,0.0,0.0,0.0,0.0,0.0,0.0,0.0,0.0,0.0,0.0,-3.5949,-3.6281,0.0,0.0,0.0,0.0,0.0,0.0,0.0,0.0,0.0,0.0,0.0,0.0,0.0,0.0,0.0,0.0,0.0,0.0,0.0,0.0,0.0,0.0,0.0,0.0,0.0,0.0,0.0,0.0,0.0,0.0,0.0,0.0,0.0,0.0,0.0,0.0,0.0,0.0,0.0,0.0,-3.0007,-2.9813,-2.9741,-2.9813,-2.914,-2.8688,-2.872,-2.8379,-2.7771,-2.6895,-2.709,0.0,0.0,0.0,0.0,0.0,0.0,0.0,0.0,0.0,0.0,0.0,0.0,0.0,0.0,0.0,0.0,0.0,0.0,0.0,0.0,0.0,0.0,0.0,0.0,0.0,0.0,0.0,0.0,0.0,0.0,0.0,0.0,0.0,0.0,0.0,0.0,0.0,0.0,0.0,0.0,0.0,0.0,0.0,0.0,0.0,0.0,0.0,0.0,0.0,0.0,0.0,0.0,0.0,-3.6412,-3.6308,-3.562,-3.6228,-3.6144,-3.5509,-3.5528,-3.5522,-3.5479,-3.5207,0.0,0.0,0.0,0.0,0.0,0.0,0.0,0.0,0.0,0.0,0.0,0.0,0.0,0.0,0.0,0.0,0.0,0.0,0.0,0.0,0.0,0.0,-3.1113,-3.0829,-3.0753,-3.061,-3.0244,0.0,0.0,0.0,0.0,0.0,0.0,0.0,0.0,0.0,0.0,0.0,-2.9646,-2.8916,-2.8518,-2.8856,-2.8231,-2.7806,-2.7853,-2.773,-2.7363,-2.671,-2.6614,-2.6223,0.0,0.0,0.0,0.0,0.0,0.0,0.0,0.0,0.0,0.0,0.0,0.0,0.0,0.0,0.0,0.0,0.0,0.0,0.0,0.0,0.0,0.0,0.0,0.0,0.0,0.0,0.0,0.0,0.0,0.0,0.0,0.0,-3.4652,-3.5586,0.0,0.0,0.0,0.0,0.0,0.0,0.0,0.0,0.0,0.0,0.0,0.0,0.0,-3.6091,-3.591,-3.5903,-3.5841,-3.5723,-3.5756,-3.5707,-3.5611,-3.5706,-3.5695,-3.559,-3.5646,0.0,-3.5479,-3.5207,0.0,0.0,0.0,0.0,0.0,0.0,0.0,0.0,0.0,0.0,0.0,0.0,0.0,0.0,0.0,0.0,0.0,0.0,0.0,0.0,0.0,0.0,-3.0611,-3.0341,-2.9938,-2.9586,-2.9533,-2.9904,-3.0278,-3.0324,-3.0477,-3.0606,0.0,0.0,0.0,0.0,0.0,0.0,-2.8303,-2.8308,-2.8309,-2.8069,-2.7343,-2.6877,-2.6885,-2.6251,-2.5811,-2.5767,-2.5703,-2.5636,-2.5587,-2.5526,0.0,0.0,0.0,0.0,0.0,0.0,0.0,0.0,0.0,0.0,0.0,0.0,0.0,0.0,0.0,0.0,0.0,0.0,0.0,0.0,0.0,0.0,0.0,0.0,0.0,0.0,0.0,0.0,0.0,-3.4018,-3.5285,-3.5608,-3.5749,-3.5836,0.0,0.0,0.0,0.0,0.0,0.0,0.0,0.0,0.0,-3.5996,-3.5996,-3.5995,-3.595,-3.5913,-3.5619,-3.5081,-3.5002,-3.4734,-3.424,-3.424,-3.424,-3.4248,-3.4275,-3.4264,-3.4274,-3.5093,-3.5018,-3.4352,0.0,0.0,0.0,0.0,-3.361,-3.3374,-3.4197,-3.3664,-3.2665,-3.2957,0.0,0.0,0.0,0.0,0.0,0.0,0.0,-3.0915,-3.0671,-3.0269,-2.9853,-2.9582,-2.8997,-2.8387,-2.7925,-2.8108,-2.8677,-2.9765,-3.0017,-2.9951,-2.9552,-2.9805,0.0,0.0,0.0,-2.8546,-2.7822,-2.7314,-2.7077,-2.7166,-2.642,-2.5934,-2.5971,-2.5654,-2.5463,-2.5543,-2.5528,-2.5492,-2.5488,-2.5468,-2.5395,0.0,0.0,0.0,0.0,0.0,0.0,0.0,0.0,0.0,0.0,0.0,0.0,0.0,0.0,0.0,0.0,0.0,0.0,0.0,0.0,0.0,0.0,0.0,0.0,0.0,0.0,0.0,0.0,-3.4526,-3.5612,-3.5349,-3.5664,-3.5828,0.0,0.0,0.0,0.0,0.0,0.0,-3.5996,-3.5996,-3.5996,-3.5996,-3.5781,-3.5664,-3.5664,-3.5402,-3.492,-3.4295,-3.4223,-3.3854,-3.3231,-3.3231,-3.3231,-3.3231,-3.3234,-3.3239,-3.3356,-3.4568,-3.4588,-3.3848,-3.3848,-3.3361,-3.2661,-3.2924,-3.2651,-3.2263,-3.3029,-3.2723,-3.1999,-3.2168,-3.2011,-3.1576,-3.0715,0.0,0.0,0.0,0.0,-2.9664,-2.9837,-2.9439,-2.8894,-2.8474,-2.7934,-2.7328,-2.6741,-2.6722,-2.7252,-2.8705,-2.9038,-2.8912,-2.836,-2.873,0.0,-2.726,-2.7476,-2.7565,-2.6958,-2.6325,-2.6,-2.617,-2.5608,-2.5255,-2.5371,-2.5368,-2.5394,-2.5477,-2.5463,-2.5454,-2.5431,-2.5431,-2.5434,-2.5429,0.0,0.0,0.0,0.0,0.0,0.0,0.0,0.0,0.0,0.0,0.0,0.0,0.0,0.0,0.0,0.0,0.0,0.0,0.0,0.0,0.0,0.0,0.0,0.0,0.0,0.0,0.0,0.0,0.0,-3.4653,-3.535,0.0,0.0,0.0,0.0,-3.5996,-3.5996,-3.5996,-3.5996,-3.5996,-3.5996,-3.5996,-3.5195,-3.4766,-3.4766,-3.3945,-3.3496,-3.3457,-3.3398,-3.3337,-3.3298,-3.3298,-3.3298,-3.3301,-3.3354,-3.3398,-3.3397,-3.3341,-3.2811,-3.2045,-3.2104,-3.1604,-3.0953,-3.1892,-3.2145,-3.2124,-3.3002,-3.2701,-3.2026,-3.2787,-3.227,-3.1164,-3.0305,-2.9889,0.0,0.0,-2.9434,-2.9204,-2.8209,-2.7901,-2.768,-2.6906,-2.6704,-2.6649,-2.6612,-2.6612,-2.6698,-2.6972,-2.7257,-2.7403,-2.7361,0.0,-2.7119,-2.6197,-2.657,-2.6464,-2.511,-2.5375,-2.5558,-2.5139,-2.5041,-2.5099,-2.5284,-2.5313,-2.533,-2.5398,-2.5413,-2.5441,-2.5493,-2.5498,-2.5498,-2.5483,-2.5522,0.0,0.0,0.0,0.0,0.0,0.0,0.0,0.0,0.0,0.0,0.0,0.0,0.0,0.0,0.0,0.0,0.0,0.0,0.0,0.0,0.0,0.0,0.0,0.0,0.0,0.0,0.0,0.0,-3.3756,-3.4058,0.0,-3.3887,-3.4119,-3.4294,-3.4316,-3.4336,-3.4336,-3.4336,-3.4336,-3.4336,-3.4336,-3.4023,-3.3867,-3.3867,-3.3555,-3.3144,-3.2637,-3.2596,-3.23,-3.1753,-3.1753,-3.1753,-3.1753,-3.1777,-3.1797,-3.1797,-3.1747,-3.1877,-3.2094,-3.2121,-3.1597,-3.0857,-3.1128,-3.1194,-3.1194,-3.1415,-3.1196,-3.0829,-3.0898,-3.062,-3.021,-2.9907,-2.9661,-2.9382,-2.8744,-2.8472,-2.8157,-2.7258,-2.6867,-2.6495,-2.5714,-2.5339,-2.5108,-2.4798,-2.4732,-2.4835,-2.5095,-2.6079,-2.6674,-2.6173,-2.6507,-2.6395,-2.504,-2.5467,-2.5616,-2.4725,-2.4787,-2.4909,-2.4874,-2.4949,-2.5034,-2.5099,-2.5224,-2.5303,-2.533,-2.5207,-2.5148,-2.5178,-2.5098,-2.511,-2.5244,-2.512,-2.512,0.0,0.0,0.0,0.0,0.0,0.0,0.0,0.0,0.0,0.0,0.0,0.0,0.0,0.0,0.0,0.0,0.0,0.0,0.0,0.0,0.0,0.0,0.0,0.0,0.0,-3.2635,-3.3147,-3.2888,-3.3177,-3.3281,-3.3027,-3.3242,-3.3398,-3.3398,-3.3398,-3.3398,-3.3398,-3.3398,-3.3398,-3.3398,-3.3144,-3.3008,-3.3008,-3.2695,-3.2285,-3.1758,-3.1758,-3.1465,-3.0898,-3.0898,-3.0898,-3.0898,-3.0898,-3.0898,-3.0898,-3.0898,-3.1074,-3.1328,-3.1328,-3.1152,-3.0859,-3.0433,-3.045,-3.0594,-3.0102,-2.9963,-2.9956,-2.9455,-2.9228,-2.9156,-2.9156,-2.8838,-2.8322,-2.7768,-2.7414,-2.7031,-2.6246,-2.5769,-2.5326,-2.4513,-2.4153,-2.394,-2.3736,-2.361,-2.3649,-2.3976,-2.4974,-2.5601,-2.4951,-2.5278,-2.5218,-2.4021,-2.4413,-2.4681,-2.4284,-2.4338,-2.4478,-2.467,-2.478,-2.4858,-2.4943,-2.5107,-2.5182,-2.5138,-2.5053,-2.4986,-2.4924,-2.4842,-2.4858,-2.5004,-2.4747,-2.4657,-2.4721,0.0,0.0,0.0,0.0,0.0,0.0,0.0,0.0,0.0,0.0,0.0,0.0,0.0,0.0,0.0,0.0,0.0,0.0,0.0,0.0,0.0,0.0,0.0,-3.1641,-3.2602,-3.2911,-3.2072,-3.2767,-3.3027,-3.2246,-3.2851,-3.332,-3.332,-3.332,-3.332,-3.332,-3.332,-3.332,-3.332,-3.2578,-3.2168,-3.2168,-3.1328,-3.0898,-3.0898,-3.0898,-3.0898,-3.0898,-3.0879,-3.0859,-3.0859,-3.082,-3.082,-3.082,-3.082,-3.0312,-2.9551,-2.959,-3.0098,-3.0703,-2.9826,-2.9955,-3.0406,-2.9236,-2.9175,-2.9526,-2.8732,-2.8276,-2.8053,-2.8053,-2.7354,-2.6573,-2.6554,-2.6326,-2.5886,-2.5086,-2.4622,-2.4169,-2.3366,-2.3165,-2.3259,-2.3606,-2.3414,-2.3282,-2.361,-2.3955,-2.4074,-2.3735,-2.3692,-2.3566,-2.3236,-2.3477,0.0,-2.3692,-2.3976,-2.4247,-2.4461,-2.4495,-2.4559,-2.4775,-2.4917,-2.4924,-2.4785,-2.4898,-2.4911,-2.4771,-2.4741,-2.4741,-2.4741,-2.4444,-2.417,-2.3969,0.0,0.0,0.0,0.0,0.0,0.0,0.0,0.0,0.0,0.0,0.0,0.0,0.0,0.0,0.0,0.0,0.0,0.0,0.0,0.0,0.0,-2.9998,-2.992,-3.0801,-3.1217,-3.1365,-3.1226,-3.1425,-3.1504,-3.1289,-3.1465,-3.1582,-3.1582,-3.1582,-3.1582,-3.1582,-3.1582,-3.1582,-3.1582,-3.1367,-3.1269,-3.1269,-3.1016,-3.0898,-3.0898,-3.0898,-3.0898,-3.0879,-3.0254,-2.9961,-2.9922,-2.9297,-2.9004,-2.9004,-2.9004,-2.8846,-2.8641,-2.9287,-2.9287,-2.8967,-2.9205,-2.9669,-3.0081,-2.9465,-2.8933,-2.8484,-2.8122,-2.7374,-2.6662,-2.6662,-2.6468,-2.6127,-2.5524,-2.5466,-2.5348,-2.4299,-2.3781,-2.3406,-2.295,-2.2695,-2.2624,-2.2898,-2.2898,-2.2947,-2.3259,-2.3414,-2.3455,-2.3346,-2.3346,-2.3323,-2.3212,-2.3277,-2.3346,-2.3346,-2.3414,-2.3588,-2.3901,-2.4043,-2.4264,-2.4559,-2.4741,-2.4747,-2.446,-2.4344,-2.4153,-2.3876,-2.3733,-2.3627,-2.3627,-2.3699,-2.3476,0.0,0.0,0.0,0.0,0.0,0.0,0.0,0.0,0.0,0.0,0.0,0.0,0.0,0.0,0.0,0.0,0.0,0.0,0.0,0.0,0.0,0.0,-2.9641,-2.9435,-2.9572,-2.9656,-2.9721,-2.9805,-2.9805,-2.9941,-3.0288,-3.0308,-3.0305,-3.0277,-3.0616,-3.0679,-3.0328,-3.0683,-3.0898,-3.0898,-3.0898,-3.0898,-3.0898,-3.0898,-3.0898,-3.0898,-3.0527,-3.0351,-3.0332,-2.9453,-2.9062,-2.9023,-2.8516,-2.8281,-2.8258,-2.8258,-2.7993,-2.7674,0.0,0.0,0.0,0.0,-2.8756,-2.8745,-2.8161,-2.7755,-2.7392,-2.6933,-2.6257,-2.5592,-2.5592,-2.5247,-2.4795,-2.4306,-2.4226,-2.4118,-2.3453,-2.3038,-2.2773,-2.2563,-2.2398,-2.236,-2.2634,-2.2625,-2.2625,-2.2923,-2.289,0.0,-2.2824,-2.2915,-2.2947,-2.2832,-2.2915,-2.2996,-2.2996,-2.3117,-2.3259,-2.3459,-2.3599,-2.3749,-2.3946,-2.4137,0.0,0.0,0.0,-2.3674,-2.3396,-2.3247,0.0,0.0,0.0,0.0,0.0,0.0,0.0,0.0,-2.2204,-2.2032,0.0,0.0,0.0,0.0,0.0,0.0,0.0,0.0,0.0,0.0,0.0,0.0,0.0,0.0,0.0,0.0,-2.9199,-2.8937,-2.8179,-2.8023,-2.8086,-2.8281,-2.8281,-2.8571,-2.9272,-2.9344,-2.9324,-2.9255,-2.9963,-3.0105,-2.9389,-3.0132,0.0,0.0,0.0,-3.0605,-3.0605,-3.0605,-3.0605,-3.0605,-2.9824,-2.9453,-2.9414,-2.8555,-2.8144,-2.8144,-2.8047,-2.7964,-2.7908,-2.7903,-2.739,-2.6641,-2.6708,-2.7227,-2.7929,-2.7823,-2.7532,-2.7091,-2.6359,0.0,0.0,-2.5621,-2.5105,-2.4757,-2.4757,-2.4055,-2.3236,-2.3212,-2.3021,-2.2797,-2.2721,-2.2527,-2.2321,-2.2237,-2.2254,-2.2332,-2.2476,-2.2364,-2.2287,-2.2459,-2.2337,-2.218,-2.2209,-2.2473,-2.2573,-2.2349,-2.25,-2.2643,-2.2643,-2.2898,-2.3093,-2.3141,-2.3141,0.0,-2.3189,-2.3352,-2.3356,-2.3165,-2.3221,-2.3181,-2.2961,-2.2937,-2.2778,-2.2418,-2.2146,-2.1749,-2.1346,-2.1086,-2.0682,-2.0246,-2.1022,-2.0974,0.0,0.0,0.0,0.0,0.0,0.0,0.0,0.0,0.0,0.0,0.0,0.0,0.0,0.0,0.0,-2.8408,-2.7836,-2.7362,-2.7244,-2.664,-2.6719,-2.8125,-2.8256,-2.8286,-2.8435,-2.8408,-2.8359,-2.835,-2.8515,-2.8524,-2.8388,-2.8583,-2.8717,-2.8717,-2.8768,-2.8809,-2.8809,-2.8809,-2.8809,-2.8809,-2.8633,0.0,-2.8516,-2.7656,-2.7246,-2.7207,-2.6457,-2.6115,-2.6108,-2.6034,-2.5882,-2.5667,-2.5693,-2.618,-2.6863,-2.6619,-2.682,-2.7153,-2.6856,-2.6246,-2.5623,-2.5458,-2.4743,-2.3927,-2.3927,-2.3775,0.0,-2.3277,-2.3346,-2.3392,-2.2848,-2.266,-2.2476,-2.1895,-2.2032,-2.2106,-2.1475,-2.1552,-2.1658,-2.1366,-2.1306,-2.1354,-2.1688,-2.2101,-2.2377,-2.231,-2.2349,-2.2388,-2.2388,-2.2426,-2.2571,-2.2772,-2.2797,-2.2923,-2.3165,-2.3241,-2.3124,-2.2822,-2.2272,-2.1795,-2.1442,-2.1442,-2.1381,-2.1319,-2.1243,-2.0991,-2.0518,-2.0467,-2.0227,-1.9854,-2.0299,-2.028,0.0,0.0,0.0,0.0,0.0,0.0,0.0,0.0,0.0,0.0,0.0,-2.6481,-2.7383,0.0,-2.7507,-2.7549,-2.7181,-2.6757,-2.636,-2.5912,-2.5993,-2.6894,-2.6945,-2.7059,-2.7464,-2.7448,-2.7388,-2.7346,-2.7776,-2.7861,-2.7414,-2.7917,-2.8201,-2.8201,-2.8279,-2.8301,-2.8301,-2.8301,-2.8301,-2.8281,-2.7851,-2.7656,-2.7617,-2.6758,-2.6327,-2.6263,-2.5802,-2.5558,-2.5484,-2.5421,-2.5376,-2.5357,-2.5346,-2.56,-2.5937,-2.5795,-2.5895,-2.6077,-2.5922,-2.5444,-2.4931,-2.4835,-2.4285,-2.3692,-2.3692,-2.3588,-2.3392,-2.3045,-2.3069,-2.3093,-2.2616,-2.233,-2.2046,-2.1702,-2.1645,-2.1524,-2.1086,-2.115,-2.1244,-2.1023,-2.0991,-2.1055,-2.1275,-2.1477,-2.1721,-2.1899,-2.1781,-2.1661,-2.1661,-2.1661,-2.1688,-2.1828,-2.2029,-2.2141,-2.209,-2.209,-2.2023,-2.1869,-2.1488,-2.1213,-2.1007,-2.0991,-2.0894,-2.0649,-2.0649,-2.0431,-2.0,-1.9722,-1.9522,-1.9281,-1.9236,-1.9236,0.0,0.0,0.0,0.0,0.0,0.0,0.0,-2.5355,-2.5383,-2.5628,-2.5769,-2.6044,-2.6741,-2.6894,-2.683,-2.6668,-2.6627,-2.6373,-2.569,-2.557,-2.5601,-2.5659,-2.5603,-2.5816,-2.6473,-2.6474,-2.6417,-2.6361,-2.7054,-2.7163,-2.6475,-2.722,-2.7683,-2.7683,-2.775,-2.7793,-2.7793,-2.7793,-2.7793,-2.7793,-2.707,-2.6738,-2.6698,-2.5995,-2.5637,-2.557,-2.5564,-2.5498,-2.536,-2.5284,-2.5234,-2.5243,-2.5203,-2.5222,-2.5253,-2.5293,-2.5163,-2.4986,-2.4842,-2.467,-2.4461,-2.4284,-2.4016,-2.3795,-2.3795,-2.361,-2.3323,-2.2923,-2.2797,-2.2712,-2.2388,-2.1957,-2.1582,-2.1491,-2.1244,-2.0959,-2.0764,-2.0797,-2.0829,-2.0764,-2.0731,-2.0764,-2.0862,-2.0797,-2.0926,-2.1399,-2.1213,-2.0991,-2.0991,-2.0991,-2.0991,-2.0991,-2.1275,-2.1337,-2.1039,-2.0863,-2.0815,-2.0846,-2.0862,-2.0766,-2.0574,-2.0701,-2.0503,-1.9993,-2.0116,-1.9949,-1.953,-1.9132,-1.8855,-1.8727,-1.8302,-1.8341,-2.5443,-2.5554,-2.5595,-2.5535,-2.533,-2.512,0.0,-2.505,-2.5286,-2.6131,-2.6489,-2.6704,-2.6795,-2.687,-2.6627,-2.5784,-2.5658,-2.5619,-2.5522,-2.5503,-2.5503,-2.5511,-2.5451,-2.546,-2.5543,-2.55,-2.5457,-2.5447,-2.5534,-2.5563,-2.5467,-2.5674,-2.5795,-2.5795,-2.5927,-2.5996,-2.5996,-2.5996,-2.5996,-2.5996,-2.5898,-2.5818,-2.5744,-2.5666,-2.5567,-2.5517,-2.5447,-2.5387,-2.5303,-2.5111,-2.5034,-2.5022,-2.491,-2.4917,-2.5065,-2.5224,-2.5163,-2.4986,-2.4842,-2.467,-2.4461,-2.4284,-2.417,-2.4151,-2.4151,-2.4113,-2.3955,-2.3323,-2.3141,-2.3014,-2.2443,-2.1957,-2.1491,-2.115,-2.1023,-2.0797,-2.0015,-2.0139,-2.0246,-1.9909,-1.9854,-1.9945,-2.0314,-2.007,-2.0104,-2.0926,-2.1039,-2.0991,-2.0991,-2.0991,-2.0991,-2.0991,-2.1023,-2.1055,-2.0991,-2.0446,-2.0194,-2.0385,-2.0382,-1.995,-1.8993,-1.9537,-1.9547,-1.8891,-1.9446,-1.9515,-1.9006,-1.893,-1.865,-1.8185,-1.8145,-1.8145,-2.5476,-2.5519,-2.5495,-2.5507,-2.5271,-2.5023,-2.5003,-2.4937,-2.5032,-2.5543,-2.5737,-2.5827,-2.5858,-2.5866,-2.5691,-2.5174,-2.5189,-2.5267,-2.5267,-2.5369,-2.5441,-2.5447,-2.5383,-2.5354,-2.5398,-2.5339,-2.5303,-2.5303,-2.5303,-2.5303,-2.5303,-2.5421,-2.5493,-2.5493,-2.5633,-2.5703,-2.5703,-2.5703,-2.5703,-2.5703,-2.5703,-2.5661,-2.5601,-2.5601,-2.5543,-2.5434,-2.5371,-2.5331,-2.5274,-2.5088,-2.501,-2.4986,-2.4855,-2.4828,-2.4891,-2.4975,-2.5024,-2.4955,-2.4712,-2.4559,-2.4461,-2.4284,-2.419,-2.419,-2.419,-2.419,-2.4074,-2.3392,-2.3189,-2.3063,-2.247,-2.1957,-2.1491,-2.1103,-2.0797,-2.0431,-1.9818,-1.9839,-1.9909,-1.9711,-1.969,-1.9747,-1.9909,-1.9803,-1.9818,-2.0174,-2.0243,-2.0104,-1.9703,-1.9996,-2.019,-2.0065,-1.9822,-1.9756,-2.0066,-1.9931,-1.9697,-1.9402,-1.9353,-1.8895,-1.7797,-1.835,-1.8411,-1.7921,-1.845,-1.865,-1.8419,-1.8145,-1.7867,-1.7626,-1.7312,-1.7146,-2.5432,-2.5468,-2.5395,-2.5406,-2.5186,-2.4924,-2.4872,-2.478,-2.478,-2.4981,-2.5066,-2.5093,-2.5041,-2.5013,-2.4922,-2.4708,-2.4784,-2.4927,-2.5041,-2.5206,-2.5307,-2.536,-2.533,-2.5322,-2.5371,-2.5321,-2.5303,-2.5303,-2.5303,-2.5303,-2.5321,-2.5441,-2.5517,-2.5535,-2.5636,-2.5703,-2.5703,-2.5703,-2.5703,-2.5703,-2.5683,-2.5636,-2.5567,-2.5539,-2.5471,-2.5371,-2.5322,-2.5303,-2.5274,-2.5041,-2.4937,-2.4911,-2.4712,-2.467,-2.4716,-2.4654,-2.4771,-2.4898,-2.4588,-2.4495,-2.4461,-2.4284,-2.419,-2.419,-2.419,-2.419,-2.4074,-2.3392,-2.3189,-2.3063,-2.247,-2.1957,-2.1521,-2.1244,-2.0715,-2.0212,-1.9945,-1.9782,-1.969,-1.969,-1.969,-1.969,-1.969,-1.969,-1.969,-1.969,-1.9525,-1.9316,-1.9016,-1.939,-1.9562,-1.9234,-1.8906,-1.8729,-1.8751,-1.8921,-1.8717,-1.8126,-1.8096,-1.7666,-1.6709,-1.7334,-1.7495,-1.7033,-1.7744,-1.793,-1.7661,-1.7437,-1.7151,-1.6842,-1.6604,-1.6522,-2.526,-2.5345,-2.5369,-2.524,-2.5009,-2.476,-2.4559,-2.4512,-2.4578,-2.4775,-2.4956,-2.5005,-2.4677,-2.4681,-2.4626,-2.4367,-2.4321,-2.4482,-2.4936,-2.5022,-2.5069,-2.5284,-2.5313,-2.5303,-2.5293,-2.5313,-2.5303,-2.5303,-2.5303,-2.5321,-2.5379,-2.5451,-2.5535,-2.5598,-2.5661,-2.5703,-2.5703,-2.5703,-2.5703,-2.5703,-2.5634,-2.5564,-2.5508,-2.5371,-2.5322,-2.5293,-2.5303,-2.5303,-2.5264,-2.4936,-2.4804,-2.4775,-2.4375,-2.4339,-2.4478,-2.4284,-2.4461,-2.4775,-2.4559,-2.4495,-2.4461,-2.4284,-2.419,-2.419,-2.419,-2.419,-2.4074,-2.3392,-2.3189,-2.3063,-2.247,-2.1957,-2.1582,-2.1582,-2.0943,-2.0314,-2.028,-1.9965,-1.969,-1.969,-1.969,-1.969,-1.969,-1.969,-1.969,-1.969,-1.9151,-1.8957,-1.957,-1.9675,-1.9435,-1.8811,-1.8702,-1.8297,-1.7263,-1.7166,-1.6981,-1.6572,-1.6586,-1.6271,-1.5588,-1.6681,-1.7006,-1.6338,-1.7498,-1.7581,-1.6559,-1.7035,-1.679,-1.5772,-1.6271,-1.6522,-2.5149,-2.5278,-2.5318,-2.5214,-2.4568,-2.3982,-2.4116,-2.3657,-2.3419,-2.4343,-2.4446,-2.4395,-2.4464,-2.4079,-2.3732,-2.3596,-2.3479,-2.361,-2.4239,-2.4454,-2.4681,-2.5046,-2.5099,-2.5152,-2.5303,-2.5303,-2.5303,-2.5303,-2.5303,-2.533,-2.5406,-2.5451,-2.5539,-2.5601,-2.5661,-2.5703,-2.5703,-2.5703,-2.5683,-2.5634,-2.5531,-2.5459,-2.5428,-2.5348,-2.5303,-2.5284,-2.5163,-2.5099,-2.5077,-2.4741,-2.4591,-2.4559,-2.4303,-2.4247,-2.4284,-2.4228,-2.4284,-2.4393,-2.4321,-2.4303,-2.4284,-2.4228,-2.4054,-2.3876,-2.3876,-2.3714,-2.3437,-2.2996,-2.2873,-2.2789,-2.2388,-2.218,-2.2003,-2.1688,-2.1399,-2.0991,-2.04,-2.0177,-2.0035,-1.9747,-1.969,-1.969,-1.969,-1.969,-1.954,-1.9091,-1.8478,-1.8283,-1.8957,-1.7894,-1.7262,-1.7587,-1.7232,-1.6731,-1.6103,-1.6457,-1.6444,-1.5867,-1.5839,-1.544,-1.4472,-1.5165,-1.5358,-1.4849,-1.5593,-1.5957,-1.5964,-1.6156,-1.6032,-1.5653,-1.5823,-1.5688,-2.488,-2.5109,-2.5209,-2.4768,-2.4224,-2.373,-2.351,-2.3084,-2.3071,-2.4129,-2.3972,-2.3671,-2.3931,-2.3303,-2.2735,-2.2617,-2.259,-2.2888,-2.3644,-2.4008,-2.4393,-2.4872,-2.4943,-2.4981,-2.5115,-2.5171,-2.5224,-2.5284,-2.5303,-2.5321,-2.5398,-2.5441,-2.5484,-2.5561,-2.5605,-2.5636,-2.5661,-2.5636,-2.5598,-2.5535,-2.5447,-2.5391,-2.5363,-2.5322,-2.5303,-2.5303,-2.5088,-2.501,-2.4967,-2.4651,-2.4495,-2.4478,-2.4266,-2.419,-2.419,-2.419,-2.419,-2.417,-2.4074,-2.4016,-2.3996,-2.3876,-2.3692,-2.3522,-2.3522,-2.3369,-2.3117,-2.2797,-2.2712,-2.2669,-2.2377,-2.231,-2.2209,-2.1928,-2.1718,-2.143,-2.0715,-2.0416,-2.0193,-1.9782,-1.969,-1.969,-1.969,-1.9373,-1.888,-1.8229,-1.7445,-1.7276,-1.8278,-1.7161,-1.6471,-1.7049,-1.6573,-1.5971,-1.5278,-1.562,-1.5558,-1.4722,-1.4681,-1.4386,-1.3695,-1.4193,-1.4277,-1.3816,-1.4335,-1.4661,-1.48,-1.5035,-1.509,-1.5008,-1.5194,-1.505,-2.4385,-2.482,-2.4973,-2.3894,-2.3898,-2.3891,-2.2747,-2.2825,-2.336,-2.4111,-2.3516,-2.2906,-2.3082,-2.2368,-2.1635,-2.1464,-2.1782,-2.2312,-2.3141,-2.3646,-2.4173,-2.4712,-2.4756,-2.479,-2.4804,-2.493,-2.5088,-2.5264,-2.5284,-2.5321,-2.5391,-2.5398,-2.5428,-2.5508,-2.5493,-2.5539,-2.5598,-2.5535,-2.5451,-2.5394,-2.5406,-2.5371,-2.5303,-2.5303,-2.5284,-2.5274,-2.5077,-2.4967,-2.4962,-2.462,-2.4478,-2.4461,-2.4266,-2.419,-2.419,-2.419,-2.419,-2.4132,-2.3795,-2.3692,-2.3631,-2.3323,-2.3189,-2.3165,-2.3165,-2.3165,-2.3093,-2.2772,-2.2747,-2.2703,-2.2349,-2.2282,-2.2282,-2.2282,-2.1928,-2.1491,-2.1086,-2.0616,-2.0193,-1.9782,-1.969,-1.9639,-1.9609,-1.8744,-1.7768,-1.7132,-1.6117,-1.6011,-1.7591,-1.7309,-1.6978,-1.6968,-1.6595,-1.5909,-1.4726,-1.4686,-1.4289,-1.3257,-1.3198,-1.3198,-1.3163,-1.3699,-1.3779,-1.3245,-1.3697,-1.3719,-1.3178,-1.3755,-1.4013,-1.3894,-1.444,-1.4652,-2.3361,-2.3817,-2.3944,-2.2976,-2.2578,-2.2451,-2.2493,-2.2509,-2.2757,-2.3553,-2.2968,-2.2238,-2.2025,-2.12,-2.0528,-2.0538,-2.0933,-2.1537,-2.2302,-2.2988,-2.3605,-2.4155,-2.442,-2.4639,-2.479,-2.493,-2.5022,-2.5077,-2.5214,-2.5321,-2.5391,-2.5406,-2.5434,-2.5508,-2.5493,-2.5517,-2.5535,-2.5465,-2.5415,-2.5394,-2.5346,-2.5322,-2.5303,-2.5303,-2.5214,-2.5077,-2.4917,-2.4771,-2.4604,-2.4356,-2.4266,-2.4266,-2.4209,-2.419,-2.419,-2.419,-2.4036,-2.3774,-2.3437,-2.35,-2.3631,-2.3323,-2.3021,-2.2822,-2.2822,-2.2695,-2.2508,-2.2426,-2.2415,-2.2332,-2.1882,-2.2032,-2.2209,-2.1853,-2.1688,-2.1491,-2.1086,-2.0616,-2.0193,-1.9782,-1.9369,-1.8987,-1.8578,-1.7562,-1.6572,-1.5988,-1.524,-1.5064,-1.5997,-1.5562,-1.5225,-1.538,-1.4889,-1.4318,-1.3654,-1.3607,-1.3474,-1.321,-1.3198,-1.3047,-1.2685,-1.2818,-1.2662,-1.2187,-1.2301,-1.2646,-1.3178,-1.3354,-1.3586,-1.3832,-1.395,-1.3779,-2.2781,-2.3071,-2.3041,-2.2115,-2.1992,-2.2076,-2.1983,-2.2291,-2.2771,-2.3379,-2.2683,-2.1833,-2.1409,-2.0569,-1.9878,-1.9671,-2.0408,-2.1196,-2.177,-2.26,-2.3374,-2.3808,-2.4155,-2.4444,-2.4654,-2.4828,-2.4943,-2.4998,-2.5192,-2.5322,-2.5346,-2.5354,-2.5368,-2.5401,-2.5401,-2.5401,-2.5401,-2.5394,-2.5391,-2.5354,-2.5322,-2.5303,-2.5303,-2.5214,-2.5099,-2.4998,-2.4752,-2.4591,-2.4478,-2.4284,-2.419,-2.419,-2.419,-2.419,-2.419,-2.419,-2.3996,-2.3649,-2.3323,-2.323,-2.3212,-2.2908,-2.2669,-2.251,-2.251,-2.2426,-2.231,-2.231,-2.2135,-2.1928,-2.1658,-2.1675,-2.1645,-2.1399,-2.1337,-2.1213,-2.0781,-2.0483,-2.0193,-1.9782,-1.906,-1.8448,-1.8158,-1.6726,-1.5543,-1.5251,-1.446,-1.4086,-1.4439,-1.4318,-1.4373,-1.4813,-1.4094,-1.3582,-1.3607,-1.3336,-1.3129,-1.2908,-1.2908,-1.2685,-1.221,-1.2174,-1.1957,-1.1468,-1.1648,-1.1998,-1.2521,-1.269,-1.2996,-1.342,-1.342,-1.3238,-2.2531,-2.2575,-2.2357,-2.1558,-2.1862,-2.2246,-2.1697,-2.2392,-2.3251,-2.3512,-2.2664,-2.1754,-2.127,-2.0399,-1.9619,-1.9197,-2.0181,-2.1087,-2.1379,-2.2399,-2.3259,-2.3588,-2.3976,-2.4266,-2.4444,-2.4639,-2.4828,-2.4962,-2.5152,-2.5274,-2.5303,-2.5303,-2.5303,-2.5303,-2.5303,-2.5303,-2.5303,-2.5363,-2.5363,-2.5303,-2.5303,-2.5293,-2.5253,-2.5088,-2.4986,-2.4924,-2.4636,-2.4495,-2.4478,-2.4284,-2.4209,-2.4247,-2.4209,-2.419,-2.419,-2.4151,-2.3917,-2.3588,-2.3236,-2.2923,-2.2625,-2.2388,-2.231,-2.231,-2.231,-2.231,-2.2282,-2.2209,-2.1899,-2.1582,-2.146,-2.1213,-2.0991,-2.0926,-2.0894,-2.0797,-2.0382,-2.0135,-1.9886,-1.942,-1.8504,-1.7763,-1.7676,-1.6019,-1.4664,-1.4598,-1.38,-1.3198,-1.3198,-1.3547,-1.4025,-1.4626,-1.3797,-1.3386,-1.3862,-1.3403,-1.2908,-1.2437,-1.2401,-1.2174,-1.17,-1.17,-1.1431,-1.0905,-1.13,-1.1552,-1.1606,-1.1953,-1.2393,-1.2881,-1.2881,-1.2881,-2.2446,-2.2403,-2.2247,-2.2149,-2.1979,-2.2025,-2.278,-2.3525,-2.4043,-2.3945,-2.3043,-2.2256,-2.2186,-2.1054,-2.0176,-2.0356,-2.0752,-2.103,-2.1071,-2.2029,-2.2853,-2.3236,-2.3816,-2.4209,-2.4247,-2.4426,-2.4639,-2.4814,-2.4968,-2.5111,-2.5284,-2.5303,-2.5303,-2.5303,-2.5303,-2.5303,-2.5303,-2.5313,-2.5313,-2.5303,-2.5303,-2.5214,-2.5046,-2.5022,-2.4858,-2.4572,-2.4528,-2.4495,-2.4478,-2.4284,-2.4303,-2.4426,-2.4247,-2.419,-2.417,-2.3896,-2.3566,-2.3236,-2.2898,-2.2616,-2.236,-2.231,-2.231,-2.231,-2.231,-2.231,-2.2209,-2.1823,-2.1658,-2.1413,-2.0699,-2.0748,-2.0894,-2.0516,-2.0416,-2.0416,-2.0314,-1.9355,-1.8311,-1.7661,-1.6782,-1.5951,-1.5451,-1.4716,-1.4065,-1.3538,-1.3317,-1.3198,-1.3198,-1.3267,-1.3364,-1.3496,-1.3311,-1.3084,-1.2818,-1.2663,-1.2437,-1.1957,-1.192,-1.1689,-1.1169,-1.1132,-1.0905,-1.0428,-1.0508,-1.0903,-1.1606,-1.1685,-1.2135,-1.2881,-1.2881,-1.2881,-2.2407,-2.2394,-2.2304,-2.2296,-2.2355,-2.2589,-2.321,-2.3838,-2.4258,-2.4098,-2.3499,-2.2788,-2.1982,-2.1311,-2.0795,-2.0507,-2.0923,-2.1295,-2.1308,-2.2228,-2.2968,-2.3189,-2.3795,-2.4247,-2.4358,-2.4444,-2.4575,-2.479,-2.4911,-2.5088,-2.5303,-2.5203,-2.5152,-2.5152,-2.5072,-2.5043,-2.5043,-2.5043,-2.5043,-2.5043,-2.5043,-2.4987,-2.4891,-2.4795,-2.4648,-2.4495,-2.4393,-2.4339,-2.4339,-2.4247,-2.4266,-2.4321,-2.4056,-2.3937,-2.3896,-2.3566,-2.3212,-2.2923,-2.2807,-2.2544,-2.231,-2.231,-2.231,-2.231,-2.231,-2.231,-2.2209,-2.1718,-2.143,-2.115,-2.0483,-2.0296,-2.0277,-2.0035,-2.0,-1.9914,-1.9636,-1.8788,-1.7942,-1.7306,-1.6126,-1.5163,-1.4849,-1.4153,-1.3463,-1.291,-1.2838,-1.2756,-1.2508,-1.2473,-1.2579,-1.2803,-1.2615,-1.2401,-1.2138,-1.2138,-1.192,-1.1431,-1.1394,-1.1169,-1.0649,-1.0649,-1.0544,-1.0283,-1.0387,-1.0847,-1.1606,-1.1674,-1.2101,-1.2881,-1.2881,-1.2881,-2.2681,-2.2729,-2.2687,-2.2834,-2.3086,-2.3367,-2.3695,-2.4129,-2.442,-2.4277,-2.3973,-2.3363,-2.2184,-2.191,-2.1619,-2.086,-2.126,-2.1685,-2.1612,-2.2371,-2.3028,-2.3189,-2.3714,-2.4172,-2.4409,-2.4445,-2.4528,-2.4716,-2.4877,-2.5053,-2.5303,-2.5152,-2.5034,-2.501,-2.4904,-2.4828,-2.4804,-2.4804,-2.4804,-2.4804,-2.4804,-2.4775,-2.4731,-2.4559,-2.4478,-2.4428,-2.4266,-2.4228,-2.4247,-2.4209,-2.4171,-2.4134,-2.3837,-2.3671,-2.3544,-2.323,-2.2923,-2.2669,-2.2573,-2.2381,-2.2135,-2.2049,-2.2152,-2.231,-2.231,-2.2237,-2.2077,-2.1598,-2.1181,-2.0764,-2.0296,-1.9929,-1.969,-1.9566,-1.953,-1.9295,-1.851,-1.7941,-1.7369,-1.6706,-1.5434,-1.445,-1.445,-1.3671,-1.2908,-1.2544,-1.2389,-1.221,-1.1847,-1.17,-1.1774,-1.2126,-1.1957,-1.1737,-1.1627,-1.1627,-1.1394,-1.0867,-1.0829,-1.0687,-1.0322,-1.0283,-1.0322,-1.041,-1.0422,-1.0792,-1.1512,-1.1486,-1.18,-1.2461,-1.2461,-1.2461,-2.3576,-2.3599,-2.3694,-2.4548,-2.429,-2.4015,-2.4764,-2.4936,-2.4898,-2.476,-2.4473,-2.4192,-2.4038,-2.3503,-2.292,-2.2529,-2.2232,-2.1943,-2.1642,-2.1943,-2.2434,-2.3117,-2.3522,-2.3858,-2.4209,-2.4228,-2.4321,-2.4512,-2.4716,-2.4949,-2.5274,-2.5274,-2.5192,-2.501,-2.4998,-2.4911,-2.4804,-2.4804,-2.4804,-2.4804,-2.4804,-2.47,-2.4528,-2.4512,-2.441,-2.4228,-2.4209,-2.4303,-2.4461,-2.4284,-2.4116,-2.3987,-2.3783,-2.3522,-2.3212,-2.2873,-2.2721,-2.2617,-2.1948,-2.1672,-2.1598,-2.126,-2.1645,-2.231,-2.231,-2.2003,-2.1598,-2.115,-2.0715,-2.0246,-1.9874,-1.9726,-1.9566,-1.9095,-1.8968,-1.8539,-1.6878,-1.6205,-1.5564,-1.4439,-1.3723,-1.3342,-1.3342,-1.2897,-1.2544,-1.2508,-1.2138,-1.1847,-1.1811,-1.1356,-1.1094,-1.1121,-1.1542,-1.1579,-1.1132,-1.1084,-1.0867,-1.039,-1.0351,-1.0361,-1.0283,-1.0283,-1.0459,-1.085,-1.0293,-1.0383,-1.123,-1.0637,-1.0548,-1.0973,-1.0973,-1.0973,-2.3686,-2.4087,-2.4476,-2.4901,-2.4846,-2.4772,-2.5092,-2.5084,-2.496,-2.4883,-2.4726,-2.4476,-2.401,-2.3697,-2.3389,-2.3059,-2.271,-2.2415,-2.2296,-2.2388,-2.2635,-2.3141,-2.35,-2.3837,-2.417,-2.419,-2.4284,-2.4478,-2.4559,-2.4727,-2.4994,-2.4883,-2.478,-2.4708,-2.457,-2.4491,-2.4426,-2.4426,-2.4426,-2.4426,-2.4426,-2.4393,-2.4321,-2.4321,-2.4266,-2.419,-2.419,-2.4247,-2.4303,-2.4018,-2.386,-2.3764,-2.3305,-2.3021,-2.2873,-2.2581,-2.2463,-2.2409,-2.2101,-2.184,-2.1582,-2.1399,-2.1446,-2.1524,-2.1524,-2.1385,-2.115,-2.0715,-2.0449,-2.0227,-1.9803,-1.969,-1.9566,-1.9043,-1.8893,-1.8508,-1.7176,-1.6262,-1.5451,-1.4655,-1.3552,-1.2791,-1.2791,-1.2401,-1.1957,-1.1653,-1.1431,-1.1207,-1.0916,-1.0725,-1.0572,-1.0572,-1.0764,-1.0915,-1.0945,-1.0925,-1.0845,-1.0654,-1.0654,-1.0654,-1.0654,-1.0654,-1.0685,-1.0721,-1.0292,-1.0229,-1.062,-1.0162,-1.0229,-1.0813,-1.0813,-1.0813,-2.3894,-2.4445,-2.4904,-2.499,-2.5166,-2.5298,-2.5315,-2.521,-2.5094,-2.5016,-2.4889,-2.4601,-2.3906,-2.3819,-2.3714,-2.3259,-2.3093,-2.2923,-2.2721,-2.2797,-2.2947,-2.3165,-2.35,-2.3837,-2.417,-2.419,-2.4266,-2.441,-2.441,-2.4478,-2.4607,-2.4495,-2.4426,-2.4495,-2.4357,-2.4247,-2.419,-2.419,-2.419,-2.419,-2.419,-2.419,-2.419,-2.419,-2.419,-2.419,-2.419,-2.419,-2.417,-2.3837,-2.3649,-2.35,-2.2923,-2.266,-2.2563,-2.236,-2.231,-2.2282,-2.2135,-2.1899,-2.1552,-2.129,-2.1007,-2.0764,-2.0632,-2.0698,-2.0715,-2.0382,-2.0212,-2.0019,-1.9588,-1.9442,-1.9281,-1.8574,-1.8419,-1.8129,-1.706,-1.6101,-1.5283,-1.4765,-1.3496,-1.2508,-1.2508,-1.1993,-1.1431,-1.1057,-1.0867,-1.0687,-1.0361,-1.0283,-1.0283,-1.0283,-1.0283,-1.04,-1.0703,-1.0723,-1.069,-1.0609,-1.0775,-1.0791,-1.0483,-1.0714,-1.073,-1.0503,-1.0113,-0.9954,-1.0057,-0.9702,-0.9762,-1.0218,-1.0218,-1.0218,-2.4334,-2.4704,-2.4845,-2.5046,-2.5291,-2.5507,-2.5588,-2.5488,-2.5366,-2.5215,-2.4996,-2.4648,-2.41,-2.4098,-2.3976,-2.3323,-2.3477,-2.3459,-2.2797,-2.2996,-2.3189,-2.3189,-2.35,-2.3837,-2.417,-2.419,-2.419,-2.419,-2.419,-2.419,-2.4227,-2.419,-2.4284,-2.4495,-2.4495,-2.441,-2.419,-2.419,-2.419,-2.419,-2.419,-2.419,-2.419,-2.419,-2.419,-2.419,-2.419,-2.419,-2.417,-2.3837,-2.3482,-2.3165,-2.2822,-2.2537,-2.231,-2.231,-2.231,-2.2237,-2.1764,-2.1612,-2.146,-2.0601,-2.0314,-2.0212,-1.9839,-2.0,-2.0314,-2.0314,-2.0,-1.9603,-1.9043,-1.8893,-1.865,-1.7585,-1.7312,-1.7031,-1.5942,-1.5306,-1.4752,-1.4198,-1.324,-1.2508,-1.2508,-1.1678,-1.1019,-1.1019,-1.0611,-1.0322,-1.0283,-1.0283,-1.0283,-1.0283,-1.0283,-1.0283,-1.0332,-1.0332,-1.0181,-0.9911,-1.0526,-1.0483,-0.9533,-1.0238,-1.0466,-1.0228,-0.9573,-0.9392,-0.9806,-0.9159,-0.8804,-0.8804,-0.8804,-0.8804,-2.4003,-2.4245,-2.4431,-2.4915,-2.5138,-2.5278,-2.5424,-2.5403,-2.5289,-2.515,-2.4946,-2.4697,-2.4388,-2.4248,-2.4296,-2.4665,-2.461,-2.4437,-2.4236,-2.41,-2.3904,-2.3576,-2.3837,-2.4094,-2.419,-2.419,-2.419,-2.419,-2.419,-2.419,-2.419,-2.419,-2.4228,-2.4284,-2.4303,-2.4247,-2.419,-2.419,-2.419,-2.419,-2.419,-2.419,-2.419,-2.3958,-2.3876,-2.3855,-2.3628,-2.3649,-2.3816,-2.3236,-2.3093,-2.3159,-2.2634,-2.236,-2.231,-2.231,-2.231,-2.2237,-2.1764,-2.143,-2.1086,-2.0483,-2.0124,-1.9874,-1.9747,-1.9782,-1.9874,-1.9874,-1.9536,-1.9132,-1.893,-1.8375,-1.771,-1.737,-1.6745,-1.6113,-1.5764,-1.5004,-1.4286,-1.4123,-1.3227,-1.2389,-1.2066,-1.1468,-1.0905,-1.0582,-1.039,-1.0283,-1.0283,-0.9961,-0.9755,-0.9755,-0.9591,-0.9834,-1.0632,-1.0592,-1.0465,-1.0374,-1.0398,-1.0276,-1.0017,-1.0206,-1.0188,-0.9953,-0.9715,-0.9467,-0.9106,-0.891,-0.8804,-0.8804,-0.8804,-0.8804,-2.4151,-2.4284,-2.4342,-2.4747,-2.4988,-2.513,-2.5284,-2.5328,-2.5305,-2.5228,-2.5023,-2.4809,-2.4654,-2.4444,-2.445,-2.487,-2.4764,-2.4708,-2.4888,-2.4838,-2.4662,-2.4366,-2.4257,-2.419,-2.419,-2.419,-2.419,-2.419,-2.419,-2.419,-2.419,-2.419,-2.419,-2.419,-2.419,-2.419,-2.419,-2.419,-2.419,-2.419,-2.419,-2.419,-2.419,-2.3837,-2.3692,-2.3692,-2.3346,-2.3323,0.0,-2.2923,-2.2822,-2.3007,-2.2497,-2.231,-2.231,-2.231,-2.231,-2.2237,-2.1764,-2.143,-2.1118,-2.0516,-1.9867,-1.928,-1.9159,-1.925,-1.9406,-1.9406,-1.8883,-1.8257,-1.803,-1.7356,-1.6661,-1.6415,-1.5893,-1.5401,-1.5383,-1.4561,-1.3779,-1.3779,-1.278,-1.1836,-1.1542,-1.1057,-1.0649,-1.0361,-1.0283,-1.0342,-1.0498,-1.0028,-0.9654,-0.9736,-0.9453,-0.9468,-1.0031,-1.0029,-1.0002,-0.9877,-0.9955,-0.9915,-0.97,-0.9906,-0.9857,-0.9406,-0.9413,-0.9211,-0.8804,-0.8804,-0.8804,-0.8804,-0.8804,-0.8804,0.0,-2.4608,-2.4474,-2.4565,-2.4828,-2.5082,-2.5158,-2.5287,0.0,-2.5372,-2.5178,-2.4962,-2.4814,-2.4639,-2.4445,-2.4301,-2.4281,-2.4441,-2.486,-2.5166,-2.5348,-2.5403,-2.4685,-2.419,-2.419,-2.419,-2.419,-2.419,-2.419,-2.419,-2.419,-2.419,-2.419,-2.419,-2.419,-2.419,-2.419,-2.419,-2.419,-2.419,-2.419,-2.419,-2.4151,-2.3816,-2.3649,-2.361,-2.3277,-2.3159,-2.3141,-2.2797,-2.273,-2.2764,-2.2415,-2.231,-2.231,-2.231,-2.2282,-2.218,-2.1718,-2.1521,-2.1352,-2.055,-1.9573,-1.8693,-1.8235,-1.8404,-1.8763,-1.8726,-1.7984,-1.7064,-1.6569,-1.6029,-1.547,-1.5006,-1.4853,-1.4764,-1.4802,-1.3985,-1.3233,-1.3196,-1.2028,-1.1046,-1.1019,-1.0649,-1.0361,-1.0322,-1.0283,-1.042,-1.077,-1.0257,-0.9878,-0.9935,-0.9598,-0.9201,-0.8651,-0.8936,-0.8975,-0.8727,-0.9283,-0.9364,-0.883,-0.9413,-0.9413,-0.8804,-0.8804,-0.8804,-0.8804,-0.8804,-0.8804,-0.8804,-0.8804,-0.8804,-2.4353,0.0,-2.3983,-2.4422,-2.4582,-2.4685,0.0,-2.4996,-2.5094,-2.5094,0.0,-2.4962,-2.4814,-2.4639,-2.4649,-2.5056,-2.5127,-2.5142,-2.5264,-2.4811,-2.4704,-2.5329,-2.4685,-2.419,-2.419,-2.419,-2.419,-2.419,-2.419,-2.419,-2.419,-2.419,-2.419,-2.419,-2.419,-2.419,-2.419,-2.419,-2.419,-2.419,-2.419,-2.4074,-2.3816,-2.3459,-2.3165,-2.2923,-2.2634,-2.2634,-2.2797,-2.25,-2.2527,-2.2704,-2.2415,-2.231,-2.231,-2.231,-2.2061,-2.1688,-2.1291,-2.091,-2.0516,-2.0,-1.9677,-1.9275,-1.8366,-1.7832,-1.7453,-1.7157,-1.6578,-1.6042,-1.5931,-1.5188,-1.456,-1.4841,-1.4237,-1.3627,-1.3653,-1.3166,-1.2578,-1.2213,-1.1852,-1.1468,-1.1057,-1.0905,-1.0715,-1.0351,-1.0283,-1.0195,-0.9885,-0.9501,-0.9062,-0.8466,-0.8326,-0.8133,-0.7829,-0.8629,-0.9029,-0.871,-0.8877,-0.8961,-0.8804,-0.8956,-0.8956,-0.8804,-0.8804,-0.8804,-0.8804,-0.8804,-0.8804,-0.8804,-0.8804,-0.8804,-2.4247,-2.4074,-2.3998,-2.4284,-2.4426,-2.4528,-2.4639,-2.485,0.0,0.0,0.0,-2.4937,-2.4697,-2.4439,-2.4395,-2.4798,-2.5024,-2.5348,-2.5876,-2.5585,-2.5328,-2.5403,-2.4685,-2.419,-2.419,-2.419,-2.419,-2.419,-2.419,-2.419,-2.419,-2.419,-2.419,-2.419,-2.419,-2.419,-2.419,-2.4054,-2.3976,-2.3976,-2.3816,-2.3649,-2.3459,-2.3117,-2.2873,-2.2695,-2.2426,-2.2388,-2.25,-2.213,-2.1866,-2.1739,-2.1922,-2.167,-2.1288,-2.1811,-2.1705,-2.1275,-2.0813,-2.0398,-2.0,-1.9782,-1.9322,-1.8745,-1.7971,-1.6909,-1.6021,-1.6121,-1.5568,-1.4946,-1.4946,-1.4328,-1.3747,-1.4048,-1.3481,-1.2876,-1.2938,-1.2323,-1.1726,-1.1468,-1.1426,-1.1295,-1.0982,-1.0943,-1.0874,-1.0606,-1.0326,-1.0099,-0.9993,-0.9484,-0.9005,-0.8603,-0.8434,-0.8156,-0.7715,-0.8511,-0.8883,-0.8574,-0.8575,-0.8664,-0.8798,-0.8804,-0.8804,-0.8804,-0.8804,-0.8804,-0.8804,-0.8804,-0.8804,-0.8804,-0.8804,-0.8804,-2.419,-2.417,-2.419,-2.419,-2.4339,-2.4444,-2.4444,0.0,0.0,0.0,0.0,0.0,-2.4559,-2.4321,-2.4207,-2.4278,-2.4577,-2.5181,-2.6194,-2.6176,-2.5884,-2.5377,-2.4588,-2.4054,-2.4054,-2.4094,-2.4094,-2.4054,-2.4151,-2.4151,-2.4036,-2.4094,-2.4094,-2.4054,-2.4054,-2.4054,-2.4054,-2.3816,-2.3671,-2.361,-2.3346,-2.3165,-2.3117,-2.2822,-2.2669,-2.2634,-2.2415,-2.2254,-2.2163,-2.1764,-2.1236,-2.0714,-2.1292,-2.0933,-2.0267,-2.1171,-2.1244,-2.0829,-2.0348,-2.0,-1.969,-1.9603,-1.8877,-1.7927,-1.7348,-1.6095,-1.4937,-1.5346,-1.473,-1.3959,-1.3959,-1.3584,-1.3198,-1.3129,-1.2791,-1.2473,-1.2318,-1.1616,-1.1002,-1.0988,-1.0935,-1.0928,-1.0996,-1.1006,-1.0964,-1.0881,-1.0367,-1.0099,-1.0293,-0.9644,-0.9173,-0.917,-0.8915,-0.8537,-0.8043,-0.8457,-0.8657,-0.8457,-0.8437,-0.855,-0.8798,-0.8804,-0.8804,-0.8804,-0.8804,-0.8804,-0.8804,-0.8804,-0.8804,-0.8804,-0.8804,-0.8804,-2.3858,-2.3996,-2.419,-2.419,-2.4228,-2.4247,-2.4247,0.0,0.0,0.0,0.0,0.0,-2.4526,-2.4746,-2.4892,-2.4729,-2.4522,-2.4575,-2.5086,-2.4334,-2.4032,-2.4874,-2.4028,-2.3346,-2.3346,-2.361,-2.3671,-2.3369,-2.3876,-2.3937,-2.3392,-2.361,-2.3649,-2.3369,-2.3346,-2.3346,-2.3346,-2.3588,-2.3566,-2.3277,-2.3212,-2.3045,-2.2772,-2.2721,-2.259,-2.2377,-2.2338,-2.2061,-2.1688,-2.1628,-2.1334,-2.0942,-2.1054,-2.099,-2.0847,-2.1023,-2.0781,-2.0348,-1.9945,-1.9747,-1.9639,-1.9169,-1.891,-1.8484,-1.7054,-1.6131,-1.5372,-1.4556,-1.3844,-1.3323,-1.3323,-1.3261,-1.3094,-1.2685,-1.2544,-1.2282,-1.142,-1.1132,-1.0981,-1.0935,-1.09,-1.1025,-1.1439,-1.1498,-1.1281,-1.0746,-1.057,-1.0142,-0.9105,-0.9134,-0.8945,-0.8208,-0.8313,-0.8404,-0.8317,-0.839,-0.8524,-0.8731,-0.8744,-0.8758,-0.8804,-0.8804,-0.8804,-0.8804,-0.8804,-0.8804,-0.8804,-0.8804,-0.8804,-0.8804,-0.8804,-0.8804,-2.3735,-2.3671,-2.3671,-2.3671,-2.3917,-2.419,-2.419,-2.4357,0.0,0.0,0.0,0.0,-2.4375,-2.4196,-2.4149,-2.4339,-2.4367,-2.4424,-2.4593,-2.4177,-2.388,-2.3968,-2.3513,-2.3189,-2.3189,-2.3346,-2.3369,-2.3212,-2.35,-2.3522,-2.323,-2.3346,-2.3369,-2.3189,-2.3189,-2.3117,-2.2923,-2.3093,-2.3069,-2.2923,-2.2781,-2.2634,-2.2473,-2.2473,-2.2426,-2.2282,-2.2032,-2.1794,-2.1552,-2.1086,-2.0607,-2.0161,-2.0475,-2.028,-1.9816,-2.0172,-1.9984,-1.9579,-1.966,-1.9332,-1.8855,-1.8893,-1.8309,-1.749,-1.6716,-1.5721,-1.4719,-1.4221,-1.3659,-1.3198,-1.3198,-1.3012,-1.2768,-1.2544,-1.2272,-1.1938,-1.1475,-1.1161,-1.0945,-1.091,-1.1094,-1.1233,-1.1076,-1.1247,-1.1159,-1.0458,-1.0092,-0.9621,-0.9056,-0.8955,-0.885,-0.8417,-0.853,-0.8611,-0.8611,-0.8611,-0.8664,-0.8798,-0.8804,-0.8804,-0.8804,-0.8804,-0.8804,-0.8804,-0.8804,-0.8804,-0.8804,-0.8804,-0.8804,-0.8804,-0.8804,-0.8804,-2.3522,-2.3346,-2.3165,-2.3093,0.0,-2.3976,-2.3976,-2.4079,-2.4174,0.0,-2.421,-2.4358,-2.4467,-2.4064,-2.3774,-2.3856,-2.4025,-2.4128,-2.401,-2.396,-2.3706,-2.314,-2.3038,-2.2989,-2.2989,-2.3063,-2.3063,-2.2989,-2.3135,-2.3159,-2.2989,-2.3063,-2.3045,-2.2989,-2.2989,-2.2883,-2.2625,-2.2599,-2.2599,-2.2599,-2.2415,-2.231,-2.231,-2.218,-2.2135,-2.2106,-2.1675,-2.1399,-2.1259,-2.0583,-1.9953,-1.9516,-1.9959,-1.9661,-1.9001,-1.9495,-1.9353,-1.8928,-1.9346,-1.8867,-1.8107,-1.8416,-1.771,-1.6626,-1.6376,-1.5287,-1.4088,-1.3963,-1.3483,-1.302,-1.305,-1.277,-1.2434,-1.2197,-1.1993,-1.1767,-1.1582,-1.1276,-1.1064,-1.1064,-1.1416,-1.1532,-1.084,-1.1064,-1.1085,-1.0213,-0.9688,-0.9305,-0.9105,-0.8916,-0.8804,-0.8804,-0.8804,-0.8804,-0.8804,-0.8804,-0.8804,-0.8804,-0.8804,-0.8804,-0.8804,-0.8646,-0.8533,-0.8533,-0.8533,-0.848,-0.8262,-0.848,-0.8533,-0.8533,-0.8533,-0.8533,-2.2947,-2.2972,-2.3117,-2.2822,-2.3021,-2.3259,-2.3259,-2.3282,0.0,-2.3671,-2.3756,-2.4076,-2.5124,-2.5324,-2.4927,-2.3653,-2.3481,-2.3306,-2.2886,-2.2613,-2.2504,-2.2712,-2.2517,-2.2349,-2.2349,-2.259,-2.2625,-2.236,-2.2883,-2.2958,-2.2388,-2.2616,-2.2625,-2.2377,-2.2349,-2.2349,-2.2321,-2.2321,-2.2321,-2.2321,-2.231,-2.231,-2.2282,-2.1853,-2.1658,-2.1628,-2.1213,-2.0797,-2.0382,-2.0348,-2.0058,-1.9687,-1.9732,-1.9696,-1.9615,-1.9675,-1.9301,-1.8748,-1.8877,-1.8504,-1.7845,-1.7517,-1.7313,-1.7072,-1.6036,-1.4962,-1.3994,-1.3488,-1.293,-1.2487,-1.2519,-1.2484,-1.2207,-1.1303,-1.169,-1.2016,-1.1152,-1.1273,-1.1557,-1.1557,-1.1875,-1.1937,-1.1295,-1.1517,-1.1323,-1.0033,-0.9784,-0.9526,-0.8928,-0.8791,-0.8804,-0.8804,-0.8804,-0.8804,-0.8804,-0.8804,-0.8804,-0.8804,-0.8804,-0.8804,-0.8804,-0.8156,-0.7777,-0.7777,-0.7777,-0.745,-0.675,-0.745,-0.7777,-0.7777,-0.7777,-0.7777,-2.2822,-2.2678,-2.2624,-2.249,-2.2544,0.0,0.0,-2.3189,-2.3253,-2.3369,-2.3392,-2.3458,-2.3673,-2.3739,-2.3528,-2.2836,-2.2733,-2.2643,-2.2487,-2.236,-2.2349,-2.2453,-2.236,-2.231,-2.231,-2.2388,-2.2398,-2.231,-2.2508,-2.2535,-2.231,-2.2415,-2.2398,-2.231,-2.231,-2.209,-2.1617,-2.1769,-2.1433,-2.0561,-2.1449,-2.1735,-2.1493,-2.1323,-2.1213,-2.1213,-2.0748,-2.0449,-2.028,-2.0035,-1.9839,-1.969,-1.969,-1.969,-1.969,-1.969,-1.9134,-1.8375,-1.8769,-1.8071,-1.7062,-1.7233,-1.6829,-1.6232,-1.5838,-1.4931,-1.4018,-1.3789,-1.3071,-1.2343,-1.2422,-1.2202,-1.1869,-1.153,-1.1655,-1.1764,-1.139,-1.166,-1.1804,-1.1205,-1.1236,-1.0976,-0.9853,-1.0011,-1.0069,-0.928,-0.9159,-0.9113,-0.8857,-0.8804,-0.8804,-0.8804,-0.8804,-0.8804,-0.8804,-0.8804,-0.8804,-0.8804,-0.8804,-0.8804,-0.8804,-0.8103,-0.7723,-0.7723,-0.7235,-0.6858,-0.6588,-0.6858,-0.702,-0.702,-0.702,-0.702,-2.2468,-2.2337,-2.2254,-2.2106,0.0,0.0,-2.2824,-2.2908,-2.2958,-2.3021,-2.3336,-2.3393,-2.2824,-2.2929,-2.2945,-2.2383,-2.231,-2.231,-2.231,-2.2163,-2.2077,-2.2077,-2.1974,-2.1945,-2.2077,-2.2077,-2.2135,-2.2282,-2.231,-2.231,-2.231,-2.231,-2.231,-2.231,-2.1945,-2.1574,-2.1204,-2.0936,-2.0397,-1.9649,-2.0511,-2.0827,-2.0671,-2.0766,-2.0797,-2.0764,-2.0296,-2.0124,-2.0089,-1.9803,-1.969,-1.969,-1.953,-1.9442,-1.9442,-1.9244,-1.8612,-1.7843,-1.8271,-1.7545,-1.6497,-1.6721,-1.6386,-1.584,-1.5327,-1.4634,-1.3953,-1.3575,-1.2881,-1.2292,-1.2309,-1.2111,-1.1839,-1.1685,-1.1664,-1.1643,-1.1509,-1.163,-1.1517,-1.0775,-1.0701,-1.0382,-0.9101,-0.9219,-0.9365,-0.8876,-0.8804,-0.8804,-0.8804,-0.8804,-0.8804,-0.8804,-0.8804,-0.8804,-0.8804,-0.8804,-0.8699,-0.848,-0.848,-0.848,-0.848,-0.7723,-0.723,-0.7015,-0.6524,-0.615,-0.5937,-0.615,-0.6253,-0.6253,-0.6253,-0.6253,-2.1803,-2.1928,-2.218,-2.1718,0.0,0.0,-2.2282,-2.2282,-2.236,-2.2634,-2.3586,-2.401,-2.2885,-2.338,-2.3584,-2.2468,-2.2282,-2.2282,-2.2282,-2.1899,-2.1582,-2.1582,-2.1244,-2.115,-2.1568,-2.1582,-2.1794,-2.2237,-2.2282,-2.2282,-2.2282,-2.2282,-2.2282,-2.2282,-2.1183,-2.08,-2.1177,-1.9733,-1.9289,-1.9859,-1.9531,-1.9594,-2.0013,-2.0203,-2.028,-2.028,-1.9874,-1.969,-1.969,-1.969,-1.969,-1.9639,-1.9132,-1.8893,-1.8817,-1.8302,-1.768,-1.7101,-1.7263,-1.6862,-1.6231,-1.5815,-1.607,-1.6181,-1.4521,-1.4032,-1.3848,-1.2658,-1.2277,-1.219,-1.219,-1.219,-1.2073,-1.167,-1.1724,-1.1706,-1.1271,-1.1008,-1.0656,-1.0262,-1.0516,-1.0455,-0.9388,-0.9496,-0.9562,-0.891,-0.8804,-0.8804,-0.8804,-0.8804,-0.8804,-0.8804,-0.8804,-0.8804,-0.8804,-0.8804,-0.848,-0.7723,-0.767,-0.767,-0.767,-0.6966,-0.6253,-0.5542,-0.5487,-0.5164,-0.4519,-0.5164,-0.5487,-0.5487,-0.5487,-0.5487,-2.1715,-2.1507,-2.1354,-2.1213,-2.1291,-2.1401,0.0,-2.1857,0.0,-2.1994,-2.1965,-2.193,-2.1582,-2.173,-2.1782,-2.1448,-2.1401,-2.1401,-2.1401,-2.126,-2.1181,-2.1181,-2.1055,-2.1055,-2.115,-2.1181,-2.126,-2.1401,-2.1401,-2.1401,-2.1401,-2.1401,-2.1401,-2.1401,-2.105,-2.0694,-2.0283,-1.9637,-1.8873,-1.8061,-1.8159,-1.8746,-1.9794,-1.9854,-1.9874,-1.9874,-1.9747,-1.969,-1.969,-1.969,-1.9479,-1.9132,-1.8968,-1.865,-1.8341,-1.8185,-1.7758,-1.7236,-1.7287,-1.6641,-1.5783,-1.5666,-1.5469,-1.5151,-1.4629,-1.4193,-1.3814,-1.3447,-1.303,-1.2686,-1.2686,-1.232,-1.1794,-1.1398,-1.134,-1.1229,-1.0637,-1.0664,-1.0563,-0.9782,-0.9748,-0.9539,-0.8777,-0.874,-0.882,-0.883,-0.8804,-0.8804,-0.8804,-0.8804,-0.8804,-0.8804,-0.8321,-0.8049,-0.8049,-0.7563,-0.7182,-0.6966,-0.6912,-0.6912,-0.6912,-0.6199,-0.5706,-0.5487,-0.5058,-0.4677,-0.4519,-0.468,-0.4787,-0.4787,-0.4787,-0.4787,-2.1444,-2.1181,-2.0926,-2.0534,-2.0715,-2.0991,-2.0991,-2.1401,-2.1705,-2.1399,-2.115,-2.0991,-2.0991,-2.0991,-2.0991,-2.0991,-2.0991,-2.0991,-2.0991,-2.0829,-2.0715,-2.0715,-2.0565,-2.0532,-2.0731,-2.0715,-2.0797,-2.1007,-2.0991,-2.0991,-2.0991,-2.0991,-2.0991,-2.0991,-2.0575,-2.0194,-1.9891,-1.8843,-1.8115,-1.7666,-1.7408,-1.7861,-1.8912,-1.8912,-1.9046,-1.9316,-1.9375,-1.9369,-1.9369,-1.9169,-1.8855,-1.8574,-1.8341,-1.8066,-1.7747,-1.7544,-1.7271,-1.6993,-1.6993,-1.6373,-1.5552,-1.5362,-1.5035,-1.4619,-1.4146,-1.3911,-1.3732,-1.3505,-1.32,-1.2822,-1.2559,-1.2129,-1.1751,-1.1517,-1.1028,-1.054,-1.0105,-1.0019,-0.9857,-0.9271,-0.9184,-0.904,-0.8646,-0.855,-0.8604,-0.8784,-0.8804,-0.8804,-0.8804,-0.8804,-0.8699,-0.8374,-0.7943,-0.7563,-0.7289,-0.6858,-0.6475,-0.6204,-0.6145,-0.6041,-0.5773,-0.5601,-0.5378,-0.5109,-0.468,-0.4519,-0.4519,-0.4519,-0.4519,-0.4519,-0.4519,-0.4519,-2.1118,-2.0926,-2.0682,-1.9763,-2.0147,-2.0748,-2.0748,-2.0748,-2.0781,-2.0926,-2.091,-2.0862,-2.0862,-2.0862,-2.0862,-2.0862,-2.0862,-2.0862,-2.0862,-2.0516,-2.0246,-2.0246,-1.9909,-1.9839,-2.0227,-2.0246,-2.0416,-2.0829,-2.0862,-2.0862,-2.0862,-2.0862,-2.0862,-2.0862,-1.9858,-1.9482,-1.9798,-1.7731,-1.7166,-1.8053,-1.7091,-1.6936,-1.7518,-1.7697,-1.813,-1.8718,-1.8848,-1.8855,-1.8779,-1.8302,-1.8066,-1.7987,-1.7504,-1.7271,-1.7146,-1.668,-1.6522,-1.6522,-1.6522,-1.6051,-1.5428,-1.4936,-1.4662,-1.4345,-1.3331,-1.3305,-1.3484,-1.2958,-1.2774,-1.2559,-1.1873,-1.1665,-1.1616,-1.1616,-1.0669,-0.9762,-0.971,-0.9211,-0.8804,-0.8804,-0.8804,-0.8804,-0.8804,-0.8804,-0.8804,-0.8804,-0.8804,-0.8752,-0.8699,-0.8699,-0.8427,-0.767,-0.7557,-0.7235,-0.6529,-0.6426,-0.615,-0.5433,-0.5433,-0.5109,-0.4515,-0.5109,-0.5109,-0.4519,-0.4519,-0.4519,-0.4519,-0.4519,-0.4519,-0.4519,-0.4519,-0.4519,-2.1102,-2.0499,-1.9823,-1.9214,-1.8887,-1.8722,-1.8722,-1.8722,-1.9045,-2.023,-2.0193,-1.998,-1.998,-1.998,-1.998,-1.998,-1.998,-1.998,-1.998,-1.9874,-1.9854,-1.9854,-1.9747,-1.9711,-1.9818,-1.9854,-1.9874,-1.998,-1.998,-1.998,-1.998,-1.998,-1.998,-1.998,-1.9239,-1.8906,-1.8958,-1.7464,-1.6802,-1.7014,-1.6308,-1.6083,-1.6278,-1.779,-1.8628,-1.8854,-1.8873,-1.865,-1.8263,-1.8145,-1.7867,-1.7463,-1.7353,-1.7034,-1.668,-1.6552,-1.6522,-1.6522,-1.6522,-1.5788,-1.4858,-1.4767,-1.4079,-1.3228,-1.2994,-1.2609,-1.2209,-1.207,-1.1674,-1.1225,-1.1065,-1.0618,-1.021,-1.021,-1.002,-0.9666,-0.9113,-0.891,-0.8804,-0.8804,-0.8804,-0.8804,-0.8804,-0.8804,-0.8804,-0.8804,-0.8804,-0.8593,-0.7996,-0.7943,-0.767,-0.6912,-0.6308,-0.5923,-0.576,-0.5277,-0.4897,-0.4732,-0.4736,-0.4625,-0.4519,-0.4625,-0.4625,-0.4519,-0.4519,-0.4519,-0.4519,-0.4519,-0.4519,-0.4519,-0.4519,-0.4519,-2.1246,-2.0749,-2.0291,-1.9546,-1.8722,-1.8106,-1.8106,-1.8106,-1.8327,-1.9096,-1.9288,-1.9406,-1.9639,-1.969,-1.969,-1.969,-1.969,-1.969,-1.969,-1.969,-1.9603,-1.9369,-1.9332,-1.9207,-1.8968,-1.893,-1.893,-1.893,-1.893,-1.893,-1.893,-1.9169,-1.9185,-1.884,-1.8728,-1.8553,-1.8238,-1.7518,-1.7174,-1.7174,-1.6598,-1.6361,-1.6436,-1.7413,-1.7927,-1.8035,-1.8099,-1.7987,-1.7679,-1.717,-1.6782,-1.655,-1.655,-1.6357,-1.6158,-1.6421,-1.6337,-1.6051,-1.6051,-1.5287,-1.4283,-1.4283,-1.3658,-1.2881,-1.2881,-1.2393,-1.1814,-1.1814,-1.1316,-1.072,-1.0415,-1.0064,-0.971,-0.9413,-0.9309,-0.9211,-0.8857,-0.8804,-0.8804,-0.8804,-0.8804,-0.8804,-0.8804,-0.8804,-0.8699,-0.8321,-0.8262,-0.7996,-0.7289,-0.7182,-0.6907,-0.6145,-0.5706,-0.5378,-0.5058,-0.468,-0.4519,-0.4519,-0.4519,-0.4519,-0.4519,-0.4519,-0.4519,-0.4519,-0.4519,-0.4519,-0.4519,-0.4519,-0.4519,-0.4519,-0.4519,-0.4519,-2.1722,-2.1379,-2.1096,-1.9991,-1.8927,-1.8098,-1.7977,-1.7814,-1.772,-1.7933,-1.838,-1.893,-1.9442,-1.9566,-1.9603,-1.969,-1.969,-1.969,-1.9566,-1.9566,-1.9369,-1.8817,-1.8765,-1.8574,-1.8145,-1.8106,-1.8106,-1.8106,-1.8106,-1.8106,-1.8106,-1.8535,-1.8498,-1.7933,-1.8229,-1.8145,-1.7615,-1.7497,-1.7405,-1.7405,-1.6972,-1.6774,-1.6804,-1.6822,-1.6926,-1.7159,-1.725,-1.7177,-1.6963,-1.6074,-1.5643,-1.5555,-1.5555,-1.5618,-1.5756,-1.6081,-1.5935,-1.5588,-1.5499,-1.4732,-1.3815,-1.3815,-1.3372,-1.2881,-1.2725,-1.2197,-1.1616,-1.1466,-1.0965,-1.032,-0.9762,-0.9614,-0.9465,-0.8956,-0.8804,-0.8804,-0.8804,-0.8804,-0.8804,-0.8804,-0.8804,-0.8804,-0.8804,-0.8699,-0.8427,-0.7777,-0.7616,-0.7235,-0.6529,-0.6421,-0.6145,-0.5382,-0.5324,-0.5109,-0.4574,-0.4519,-0.4519,-0.4519,-0.4519,-0.4519,-0.4519,-0.4519,-0.4463,-0.4294,-0.4294,-0.4294,-0.4294,-0.4294,-0.4294,-0.4294,-0.4463,-0.4519,-2.2909,-2.2287,-2.1237,-1.9459,-1.8657,-1.815,-1.7593,-1.6691,-1.6219,-1.7216,-1.7827,-1.838,-1.8893,-1.9006,-1.9169,-1.9603,-1.969,-1.953,-1.908,-1.9006,-1.8817,-1.8263,-1.8224,-1.8185,-1.8106,-1.8106,-1.8106,-1.8106,-1.8106,-1.8106,-1.8106,-1.8185,-1.8182,-1.806,-1.7584,-1.7279,-1.7195,-1.6595,-1.6297,-1.6297,-1.6225,-1.6014,-1.5715,-1.6176,-1.6731,-1.7275,-1.7272,-1.679,-1.5916,-1.5772,-1.5417,-1.5016,-1.5016,-1.5279,-1.5665,-1.5187,-1.5262,-1.5543,-1.5017,-1.4376,-1.3815,-1.3815,-1.3372,-1.2774,-1.2166,-1.1484,-1.0813,-1.021,-0.9562,-0.9061,-0.8956,-0.8956,-0.8903,-0.8804,-0.8804,-0.8804,-0.8804,-0.8804,-0.8804,-0.8804,-0.8804,-0.8804,-0.8804,-0.8262,-0.783,-0.7723,-0.7182,-0.6475,-0.576,-0.5651,-0.5382,-0.468,-0.4625,-0.457,-0.4519,-0.4519,-0.4519,-0.4519,-0.4519,-0.4519,-0.4519,-0.4519,-0.4181,-0.3456,-0.3456,-0.3511,-0.3569,-0.3569,-0.3569,-0.3569,-0.4184,-0.4519,-2.4516,-2.3282,-2.1911,-2.1164,-2.0063,-1.896,-1.81,-1.6921,-1.6125,-1.6293,-1.6262,-1.665,-1.8157,-1.8458,-1.8535,-1.8765,-1.8817,-1.8727,-1.8496,-1.8458,-1.8263,-1.7706,-1.7666,-1.7544,-1.7229,-1.7188,-1.7188,-1.7188,-1.7188,-1.7188,-1.7188,-1.7504,-1.7478,-1.7102,-1.7118,-1.693,-1.6551,-1.6619,-1.6712,-1.6782,-1.6485,-1.6243,-1.6053,-1.599,-1.6132,-1.6404,-1.6404,-1.6153,-1.5643,-1.5067,-1.4853,-1.4916,-1.4916,-1.5005,-1.5181,-1.5246,-1.4956,-1.4549,-1.4283,-1.3779,-1.3286,-1.3286,-1.2832,-1.2236,-1.1882,-1.1074,-1.0167,-0.9865,-0.9309,-0.8804,-0.8804,-0.8804,-0.8804,-0.8804,-0.8804,-0.8804,-0.8804,-0.8804,-0.8804,-0.8804,-0.8804,-0.8646,-0.8262,-0.7937,-0.7396,-0.6573,-0.6199,-0.571,-0.5003,-0.4948,-0.4842,-0.4515,-0.4519,-0.4519,-0.4519,-0.4519,-0.4519,-0.4519,-0.4519,-0.4294,-0.3901,-0.3904,-0.3511,-0.2674,-0.3121,-0.3121,-0.2732,-0.3121,-0.3345,-0.34,-0.4181,-0.4519,-2.5067,-2.3999,-2.3043,-2.2677,-2.1452,-2.0071,-1.8963,-1.7418,-1.6114,-1.5861,-1.5097,-1.5028,-1.6902,-1.7464,-1.776,-1.8052,-1.8106,-1.8066,-1.7907,-1.7773,-1.7477,-1.6912,-1.6744,-1.6502,-1.6107,-1.6064,-1.6064,-1.6064,-1.6194,-1.6281,-1.6281,-1.6782,-1.6881,-1.6384,-1.6745,-1.6727,-1.6222,-1.6713,-1.6997,-1.7105,-1.6688,-1.6432,-1.6296,-1.6019,-1.5756,-1.5492,-1.563,-1.5693,-1.5618,-1.4689,-1.4538,-1.4864,-1.4709,-1.4712,-1.4813,-1.4894,-1.4438,-1.3779,-1.3637,-1.3286,-1.2881,-1.2881,-1.2393,-1.1765,-1.1616,-1.072,-0.9762,-0.9614,-0.9159,-0.8804,-0.8804,-0.8804,-0.8804,-0.8804,-0.8646,-0.8586,-0.8752,-0.8646,-0.8533,-0.8533,-0.8374,-0.8049,-0.7509,-0.7283,-0.6794,-0.5647,-0.5378,-0.5058,-0.457,-0.4519,-0.4519,-0.4519,-0.4519,-0.4519,-0.4519,-0.4519,-0.4519,-0.4519,-0.4349,-0.3959,-0.34,-0.3178,-0.2732,-0.1952,-0.251,-0.2621,-0.2174,-0.2732,-0.3121,-0.34,-0.4125,-0.4539,-2.3657,-2.4231,-2.471,-2.2943,-2.2027,-2.131,-2.0147,-1.765,-1.5713,-1.6244,-1.5,-1.405,-1.4732,-1.5784,-1.6844,-1.7933,-1.8106,-1.7907,-1.7435,-1.6857,-1.6305,-1.5752,-1.5186,-1.4835,-1.4789,-1.4789,-1.4789,-1.4789,-1.532,-1.5632,-1.5632,-1.6238,-1.6552,-1.6471,-1.6514,-1.6502,-1.6464,-1.6502,-1.6527,-1.6552,-1.6527,-1.622,-1.5756,-1.6245,-1.5906,-1.4979,-1.5467,-1.5693,-1.5655,-1.5104,-1.4878,-1.4826,-1.4277,-1.4358,-1.4638,-1.3553,-1.3401,-1.3732,-1.3152,-1.2929,-1.2881,-1.2881,-1.2393,-1.1665,-1.1065,-1.0364,-0.9666,-0.9008,-0.8804,-0.8804,-0.8804,-0.8804,-0.8804,-0.8804,-0.8268,-0.7937,-0.8646,-0.8262,-0.7777,-0.7777,-0.7182,-0.6696,-0.6642,-0.6091,-0.5597,-0.5487,-0.4948,-0.4519,-0.4519,-0.4519,-0.4519,-0.4519,-0.4519,-0.4519,-0.4519,-0.4519,-0.4519,-0.4519,-0.3846,-0.3456,-0.34,-0.2676,-0.1898,-0.1174,-0.1174,-0.1563,-0.2174,-0.2232,-0.2619,-0.3345,-0.4125,-0.4594,-2.5355,-2.5634,-2.5782,-2.4599,-2.3576,-2.2527,-2.1379,-1.9336,-1.7388,-1.6078,-1.4993,-1.427,-1.415,-1.5073,-1.6003,-1.6421,-1.6841,-1.6854,-1.6275,-1.6015,-1.5664,-1.5096,-1.4835,-1.4698,-1.4698,-1.4698,-1.4698,-1.4698,-1.4926,-1.5017,-1.5017,-1.5242,-1.5511,-1.5908,-1.5908,-1.6095,-1.6522,-1.6522,-1.6522,-1.6522,-1.6522,-1.6409,-1.6233,-1.6421,-1.6107,-1.5404,-1.5196,-1.5155,-1.5153,-1.4548,-1.451,-1.4783,-1.4178,-1.4047,-1.4124,-1.3666,-1.3408,-1.319,-1.2968,-1.2881,-1.2881,-1.2881,-1.2098,-1.1116,-1.0864,-1.0012,-0.9113,-0.8857,-0.8804,-0.8804,-0.8804,-0.8427,-0.7996,-0.7503,-0.7182,-0.7074,-0.7343,-0.7182,-0.702,-0.702,-0.6804,-0.6421,-0.5982,-0.5651,-0.5378,-0.4948,-0.468,-0.4519,-0.4519,-0.4519,-0.4519,-0.4519,-0.4519,-0.4519,-0.4519,-0.4519,-0.4519,-0.4519,-0.379,-0.3121,-0.2676,-0.1898,-0.1174,-0.0392,-0.0392,-0.0783,-0.1507,-0.1953,-0.2621,-0.34,-0.4125,-0.4545,-2.6011,-2.6172,-2.6294,-2.5505,-2.4221,-2.3016,-2.245,-2.0416,-1.82,-1.6442,-1.5273,-1.4363,-1.3635,-1.4318,-1.5039,-1.5276,-1.5644,-1.5744,-1.5365,-1.5129,-1.4869,-1.4468,-1.4201,-1.4118,-1.4118,-1.4118,-1.4118,-1.4118,-1.4294,-1.4376,-1.4376,-1.4606,-1.4971,-1.5588,-1.5588,-1.5908,-1.6466,-1.6522,-1.6522,-1.6522,-1.6522,-1.6522,-1.6522,-1.6522,-1.6093,-1.5406,-1.5157,-1.4983,-1.4823,-1.4205,-1.429,-1.4711,-1.4083,-1.3817,-1.3779,-1.3552,-1.3238,-1.2881,-1.2881,-1.2881,-1.2881,-1.2881,-1.195,-1.0813,-1.0813,-0.9865,-0.8804,-0.8804,-0.8804,-0.8752,-0.848,-0.7883,-0.7128,-0.6416,-0.6258,-0.615,-0.5932,-0.6095,-0.6258,-0.6258,-0.6041,-0.5714,-0.5273,-0.5164,-0.5003,-0.457,-0.4519,-0.4519,-0.4519,-0.4519,-0.4519,-0.4519,-0.4519,-0.4519,-0.4519,-0.4519,-0.4405,-0.4125,-0.34,-0.2619,-0.1842,-0.1118,-0.0504,0.0,0.0,-0.0504,-0.1452,-0.1952,-0.2732,-0.379,-0.4294,-0.4572,0.0,0.0,0.0,-2.5476,-2.3966,-2.2776,-2.3368,-2.0737,-1.8041,-1.7435,-1.5901,-1.4275,-1.3096,-1.3372,-1.3909,-1.4514,-1.4652,-1.4698,-1.4663,-1.419,-1.3779,-1.3779,-1.3238,-1.2881,-1.2881,-1.2881,-1.2881,-1.2881,-1.342,-1.3768,-1.3768,-1.4329,-1.4926,-1.5543,-1.5588,-1.5864,-1.6466,-1.6479,-1.6522,-1.6522,-1.6522,-1.6522,-1.6522,-1.6466,-1.5868,-1.4844,-1.533,-1.5259,-1.4681,-1.4123,-1.4183,-1.4606,-1.4003,-1.3768,-1.3684,-1.3104,-1.2881,-1.2881,-1.2881,-1.2881,-1.2871,-1.2822,-1.19,-1.0762,-1.0762,-0.9865,-0.8804,-0.8804,-0.8804,-0.8646,-0.7889,-0.7128,-0.6367,-0.5651,-0.5487,-0.5269,-0.4625,-0.5003,-0.5487,-0.5487,-0.4948,-0.4519,-0.4519,-0.4519,-0.4519,-0.4519,-0.4519,-0.4519,-0.4519,-0.4519,-0.4519,-0.4519,-0.4519,-0.4519,-0.4519,-0.446,-0.4181,-0.3456,-0.2619,-0.1842,-0.1118,-0.0392,0.0,0.0,0.0,-0.0727,-0.2174,-0.2174,-0.301,-0.4519,-0.4525,-0.4636,-2.5133,0.0,0.0,0.0,0.0,0.0,-2.3274,-2.1795,-2.0005,-1.8295,-1.6799,-1.5202,-1.321,-1.255,-1.2248,-1.1935,-1.349,-1.456,-1.4097,-1.3909,-1.3647,-1.32,-1.3017,-1.2881,-1.2881,-1.2881,-1.2881,-1.2881,-1.3065,-1.3152,-1.3152,-1.3742,-1.4143,-1.4272,-1.5129,-1.5676,-1.5864,-1.6281,-1.6522,-1.6522,-1.6522,-1.6522,-1.6479,-1.6051,-1.5456,-1.4801,-1.4429,-1.4,-1.3509,-1.3718,-1.3943,-1.4003,-1.3372,-1.3152,-1.3152,-1.2968,-1.2881,-1.2822,-1.2295,-1.208,-1.203,-1.1534,-1.0771,-1.0064,-1.0064,-0.9465,-0.8804,-0.8804,-0.8804,-0.848,-0.7235,-0.6362,-0.5655,-0.4948,-0.4787,-0.4732,-0.4519,-0.4625,-0.4787,-0.4787,-0.4625,-0.4519,-0.4519,-0.4519,-0.4519,-0.4519,-0.4519,-0.4519,-0.4519,-0.4519,-0.4519,-0.4519,-0.4519,-0.4519,-0.4519,-0.3956,-0.3566,-0.3345,-0.212,-0.134,-0.1118,-0.0392,0.0,0.0,0.0,-0.0448,-0.1396,-0.1952,-0.301,-0.4522,-0.4691,-0.4894,-2.5253,-2.5841,-2.6488,-2.5,0.0,0.0,-2.3951,-2.2647,-2.1064,-1.9921,-1.8071,-1.608,-1.3903,-1.2559,-1.1566,-1.0914,-1.2083,-1.2956,-1.258,-1.2541,-1.2404,-1.2098,-1.2246,-1.2353,-1.2049,-1.2264,-1.2461,-1.2452,-1.2452,-1.2559,-1.2881,-1.3238,-1.3552,-1.3779,-1.4732,-1.5365,-1.5588,-1.6194,-1.6522,-1.6522,-1.6522,-1.638,-1.6095,-1.5764,-1.5157,-1.4339,-1.3979,-1.3492,-1.2959,-1.3307,-1.342,-1.3372,-1.3065,-1.2881,-1.2881,-1.2881,-1.2715,-1.2393,-1.1972,-1.1616,-1.1316,-1.0914,-1.0364,-0.9814,-0.9814,-0.9309,-0.8804,-0.8804,-0.8374,-0.767,-0.6804,-0.5823,-0.5003,-0.457,-0.4519,-0.4519,-0.4519,-0.4519,-0.4519,-0.4519,-0.4519,-0.4519,-0.4519,-0.4519,-0.4519,-0.4519,-0.4519,-0.4519,-0.4519,-0.4519,-0.4519,-0.4519,-0.4519,-0.4349,-0.4015,-0.3566,-0.3065,-0.2397,-0.1563,-0.095,-0.0671,-0.0224,0.0,0.0,0.0,-0.0336,-0.1118,-0.1507,-0.2583,-0.4106,-0.4318,-0.4672,-2.543,-2.6098,0.0,-2.5354,-2.3977,0.0,-2.4785,-2.3218,-2.1527,-2.1676,-1.9452,-1.6834,-1.492,-1.3105,-1.1589,-1.0704,-1.0501,-1.0559,-1.0762,-1.0813,-1.083,-1.0871,-1.1377,-1.1528,-1.0922,-1.1403,-1.1737,-1.1665,-1.1765,-1.2129,-1.2871,-1.2881,-1.3152,-1.3684,-1.4283,-1.488,-1.5398,-1.6008,-1.6293,-1.6293,-1.6293,-1.6008,-1.5499,-1.5443,-1.4812,-1.3815,-1.3732,-1.342,-1.2881,-1.2881,-1.2881,-1.2881,-1.2881,-1.2881,-1.2881,-1.2822,-1.2344,-1.1765,-1.1616,-1.1166,-1.0661,-1.0618,-1.0167,-0.9666,-0.9666,-0.9256,-0.8804,-0.8804,-0.7723,-0.6588,-0.6588,-0.5555,-0.4519,-0.4519,-0.4519,-0.4519,-0.4519,-0.4519,-0.4519,-0.4519,-0.4519,-0.4519,-0.4519,-0.4519,-0.446,-0.4405,-0.4349,-0.4349,-0.4239,-0.4349,-0.4349,-0.4239,-0.4349,-0.407,-0.3234,-0.3178,-0.2565,-0.1174,-0.1006,-0.0671,0.0,0.0,0.0,0.0,0.0,-0.0338,-0.0956,-0.1124,-0.1998,-0.348,-0.3685,-0.4238,-2.4772,-2.4972,-2.5129,-2.42,-2.3878,0.0,-2.3908,-2.2904,-2.1902,-2.1726,-1.9901,-1.7653,-1.5405,-1.3563,-1.1652,-0.9489,-0.8646,-0.8908,-1.0559,-1.0813,-1.0929,-1.1173,-1.1311,-1.1356,-1.1206,-1.1311,-1.1291,-1.104,-1.1516,-1.2129,-1.2871,-1.2881,-1.2978,-1.3065,-1.3647,-1.405,-1.4133,-1.4744,-1.5062,-1.5062,-1.5062,-1.4971,-1.488,-1.4365,-1.4003,-1.3768,-1.3286,-1.3017,-1.2881,-1.2881,-1.2881,-1.2881,-1.2881,-1.2881,-1.2832,-1.2236,-1.1922,-1.1665,-1.0568,-1.0115,-0.9917,-0.9361,-0.9113,-0.9008,-0.9008,-0.891,-0.8804,-0.8804,-0.7723,-0.6588,-0.6588,-0.5555,-0.4519,-0.4519,-0.4519,-0.4519,-0.4519,-0.4519,-0.4519,-0.4519,-0.4519,-0.4519,-0.4519,-0.4519,-0.4294,-0.3622,-0.3566,-0.34,-0.2732,-0.3231,-0.3345,-0.2732,-0.3231,-0.3289,-0.2508,-0.1898,-0.1396,-0.1118,-0.056,-0.0168,0.0,0.0,0.0,0.0,0.0,-0.0058,-0.0233,-0.1395,-0.2243,-0.2743,-0.347,-0.3957,-2.4794,-2.5032,-2.5201,-2.4445,-2.4209,0.0,0.0,-2.3728,-2.3062,-2.3279,-2.152,-1.9394,-1.7697,-1.5556,-1.3132,-1.0327,-0.8885,-0.8122,-0.8164,-0.8474,-0.895,-0.9651,-0.9658,-0.9824,-1.042,-1.0272,-1.0348,-1.0787,-1.1416,-1.2129,-1.2871,-1.2881,-1.2881,-1.2881,-1.3505,-1.3815,-1.3815,-1.4376,-1.4698,-1.4698,-1.4698,-1.4514,-1.4236,-1.3956,-1.3647,-1.3324,-1.3017,-1.2881,-1.2881,-1.2881,-1.2881,-1.2881,-1.2881,-1.2666,-1.2295,-1.1922,-1.1366,-1.072,-1.0012,-0.9562,-0.9263,-0.891,-0.8804,-0.8804,-0.8804,-0.8533,-0.8156,-0.783,-0.6907,-0.6036,-0.6036,-0.5277,-0.4519,-0.4519,-0.4519,-0.4519,-0.4519,-0.4519,-0.4519,-0.4519,-0.4184,-0.3959,-0.3959,-0.3959,-0.368,-0.2899,-0.2788,-0.2676,-0.2232,-0.2565,-0.2621,-0.2232,-0.2565,-0.251,-0.173,-0.134,-0.095,-0.056,-0.0224,0.0,0.0,0.0,0.0,0.0,0.0,0.0,0.0,-0.0734,-0.1364,-0.1889,-0.2329,-0.3103,-2.5058,-2.5299,-2.5555,-2.487,-2.4548,-2.4526,0.0,0.0,0.0,-2.4753,-2.3127,-2.1258,-2.0233,-1.7955,-1.524,-1.2128,-1.0052,-0.808,-0.601,-0.6012,-0.6633,-0.7692,-0.7643,-0.7995,-0.9193,-0.8953,-0.9275,-1.0541,-1.1216,-1.1922,-1.2666,-1.2822,-1.2881,-1.2881,-1.3372,-1.3637,-1.3637,-1.4107,-1.434,-1.434,-1.434,-1.4107,-1.3637,-1.3637,-1.3372,-1.2881,-1.2881,-1.2881,-1.2881,-1.2881,-1.2822,-1.2715,-1.2822,-1.2452,-1.1765,-1.1665,-1.0864,-0.9762,-0.9666,-0.9263,-0.8804,-0.8804,-0.8699,-0.8593,-0.8593,-0.8049,-0.7343,-0.675,-0.6091,-0.5487,-0.5487,-0.5003,-0.4519,-0.4519,-0.4519,-0.4519,-0.4519,-0.4405,-0.4294,-0.4294,-0.368,-0.3234,-0.34,-0.3289,-0.2899,-0.212,-0.2009,-0.1952,-0.1786,-0.1898,-0.1952,-0.1786,-0.1898,-0.1675,-0.095,-0.0895,-0.0615,-0.0056,0.0,0.0,0.0,0.0,0.0,0.0,0.0,0.0,0.0,0.0,-0.0389,-0.1031,-0.1192,-0.2075,-2.5208,-2.5022,-2.4607,-2.434,-2.451,-2.4716,-2.462,0.0,-2.4281,-2.4355,0.0,-2.261,-2.1428,0.0,0.0,-1.4132,-1.1476,-0.9098,-0.6946,-0.562,-0.5284,-0.6301,-0.6431,-0.6768,-0.7691,-0.7905,-0.8526,-0.9829,-1.0517,-1.1216,-1.1873,-1.2559,-1.2881,-1.2881,-1.2978,-1.3017,-1.3017,-1.3065,-1.3113,-1.3113,-1.3113,-1.3065,-1.3017,-1.3017,-1.2968,-1.2881,-1.2881,-1.2881,-1.2881,-1.2881,-1.2501,-1.1972,-1.2657,-1.2452,-1.1715,-1.1116,-1.0415,-0.971,-0.9106,-0.8857,-0.8804,-0.8804,-0.8374,-0.783,-0.783,-0.7289,-0.6696,-0.6642,-0.6091,-0.5487,-0.5487,-0.5003,-0.4519,-0.4519,-0.4519,-0.4519,-0.4519,-0.3959,-0.3456,-0.3511,-0.2899,-0.2565,-0.3289,-0.2788,-0.2063,-0.134,-0.1229,-0.1006,-0.0336,-0.0839,-0.095,-0.0336,-0.0838,-0.0951,-0.0168,-0.0112,-0.0112,0.0,0.0,0.0,0.0,0.0,0.0,0.0,0.0,0.0,0.0,0.0,-0.0066,-0.0194,-0.0927,-0.1407,-2.4632,-2.4505,-2.4468,-2.5088,-2.538,-2.5546,-2.5671,-2.5574,-2.5319,-2.4809,0.0,0.0,0.0,0.0,0.0,0.0,-1.4436,-1.1723,-0.8999,-0.7239,-0.6239,-0.6299,-0.5864,-0.6096,-0.737,-0.793,-0.8776,-1.0225,-1.0234,-1.0767,-1.2022,-1.2218,-1.2452,-1.2881,-1.2881,-1.2881,-1.2881,-1.2881,-1.2881,-1.2881,-1.2881,-1.2881,-1.2881,-1.2881,-1.2881,-1.2881,-1.2881,-1.2881,-1.2881,-1.2881,-1.2452,-1.1814,-1.2138,-1.1584,-1.0618,-1.0312,-0.9814,-0.9159,-0.891,-0.8804,-0.8752,-0.8321,-0.767,-0.6966,-0.6578,-0.6195,-0.5873,-0.55,-0.5167,-0.4893,-0.4893,-0.4736,-0.4519,-0.4519,-0.4181,-0.3846,-0.379,-0.3176,-0.2676,-0.2676,-0.2063,-0.1675,-0.2009,-0.1786,-0.1284,-0.056,-0.0448,-0.0336,-0.0056,-0.028,-0.0336,-0.0056,-0.028,-0.0336,0.0,0.0,0.0,0.0,0.0,0.0,0.0,0.0,0.0,0.0,0.0,0.0,0.0,0.0,0.0,0.0,-0.0401,-0.0806,-2.4465,-2.4373,-2.4469,-2.5633,-2.5963,-2.6081,-2.6443,-2.6454,-2.6197,-2.5566,-2.5371,0.0,0.0,0.0,-2.318,-2.0421,0.0,-1.5029,-1.2139,-1.0082,-0.8402,-0.7115,-0.6526,-0.6674,-0.7752,-0.8265,-0.9017,-1.0351,-1.0195,-1.0629,-1.1956,-1.1953,-1.2258,-1.2881,-1.2881,-1.2881,-1.2881,-1.2881,-1.2881,-1.2881,-1.2881,-1.2881,-1.2881,-1.2881,-1.2881,-1.2881,-1.2666,-1.2608,-1.2559,-1.2412,-1.1891,-1.1266,-1.1266,-1.0517,-0.9562,-0.971,-0.9361,-0.8804,-0.8804,-0.8646,-0.8427,-0.7883,-0.7069,-0.6199,-0.5651,-0.5378,-0.5109,-0.4625,-0.4519,-0.4519,-0.4519,-0.4519,-0.4519,-0.4519,-0.3956,-0.34,-0.3289,-0.2565,-0.1898,-0.1898,-0.1284,-0.0783,-0.0783,-0.0783,-0.0615,-0.0056,0.0,0.0,0.0,0.0,0.0,0.0,0.0,0.0,0.0,0.0,0.0,0.0,0.0,0.0,0.0,0.0,0.0,0.0,0.0,0.0,0.0,0.0,0.0,0.0,0.0,-0.0337,-2.5164,-2.4777,-2.4431,-2.5463,-2.5869,-2.6052,-2.625,-2.6466,-2.6572,-2.6553,-2.661,-2.6877,-2.7729,-2.7428,-2.6205,0.0,-2.1224,0.0,0.0,-1.4268,-1.1687,-0.8687,-0.8782,-0.896,-0.8751,-0.8784,-0.9053,-0.9699,-1.0336,-1.0844,-1.1329,-1.1956,-1.247,-1.29,-1.2881,-1.2881,-1.2881,-1.2881,-1.2881,-1.2881,-1.2881,-1.2881,-1.2881,-1.2881,-1.2881,-1.2871,-1.2129,-1.1814,-1.1765,-1.1116,-1.0466,-0.9865,-0.9865,-0.9465,-0.8903,-0.9562,-0.9361,-0.8804,-0.8804,-0.8321,-0.7723,-0.7723,-0.674,-0.5538,-0.5487,-0.5058,-0.4515,-0.4519,-0.4519,-0.4519,-0.4519,-0.4519,-0.4519,-0.4519,-0.3956,-0.34,-0.3289,-0.2174,-0.1118,-0.1118,-0.056,-0.0056,-0.0056,-0.0056,0.0,0.0,0.0,0.0,0.0,0.0,0.0,0.0,0.0,0.0,0.0,0.0,0.0,0.0,0.0,0.0,0.0,0.0,0.0,0.0,0.0,0.0,0.0,0.0,0.0,0.0,0.0,0.0,-2.452,-2.441,-2.4431,-2.5463,-2.5853,-2.6038,-2.625,-2.6466,-2.6601,-2.6601,-2.6639,-2.6974,-2.7838,-2.7844,-2.7267,0.0,0.0,-2.2624,0.0,-1.7894,-1.6232,-1.5626,-1.3104,-1.1596,-1.2019,-1.1498,-1.116,-1.1073,-1.0923,-1.0952,-1.1165,-1.1467,-1.1904,-1.247,-1.2771,-1.2881,-1.2881,-1.2881,-1.2881,-1.2881,-1.2881,-1.2881,-1.2881,-1.2881,-1.2881,-1.2871,-1.2129,-1.1814,-1.1765,-1.1065,-1.0415,-0.9814,-0.9814,-0.9413,-0.8804,-0.9061,-0.9008,-0.8804,-0.8804,-0.7996,-0.6966,-0.6966,-0.5987,-0.4842,-0.4842,-0.468,-0.4519,-0.4519,-0.4519,-0.4519,-0.4519,-0.4519,-0.4519,-0.4519,-0.3511,-0.2621,-0.2565,-0.1396,-0.0392,-0.0392,-0.0168,0.0,0.0,0.0,0.0,0.0,0.0,0.0,0.0,0.0,0.0,0.0,0.0,0.0,0.0,0.0,0.0,0.0,0.0,0.0,0.0,0.0,0.0,0.0,0.0,0.0,0.0,0.0,0.0,0.0,0.0,0.0,-2.419,-2.419,-2.4431,-2.5463,-2.5804,-2.6023,-2.6503,-2.6791,-2.6937,-2.6828,-2.7238,-2.7655,-2.7873,-2.8431,-2.8473,0.0,0.0,-2.5334,0.0,-2.1437,-2.0767,-2.0951,-1.7157,-1.4493,-1.4468,-1.3789,-1.304,-1.2296,-1.1615,-1.1299,-1.1575,-1.1487,-1.1606,-1.1921,-1.231,-1.2501,-1.2501,-1.2501,-1.2657,-1.2881,-1.2881,-1.2774,-1.251,-1.2774,-1.2627,-1.2157,-1.1674,-1.1316,-1.1065,-1.0364,-0.9814,-0.9465,-0.9465,-0.9159,-0.8804,-0.8804,-0.8804,-0.8804,-0.8804,-0.783,-0.6588,-0.6588,-0.5664,-0.4519,-0.4519,-0.4519,-0.4519,-0.4519,-0.4519,-0.4519,-0.4519,-0.4294,-0.407,-0.4125,-0.2954,-0.1786,-0.1786,-0.0838,0.0,0.0,0.0,0.0,0.0,0.0,0.0,0.0,0.0,0.0,0.0,0.0,0.0,0.0,0.0,0.0,0.0,0.0,0.0,0.0,0.0,0.0,0.0,0.0,0.0,0.0,0.0,0.0,0.0,0.0,0.0,0.0,0.0,0.0]},{"header":{"parameterUnit":"m.s-1","parameterCategory":1,"la1":30.6,"la2":29.2853,"lo1":-89.7004,"lo2":-87.6739,"dy":0.0162,"dx":0.0183,"nx":112,"ny":82,"refTime":"2026-05-04T12:00:00:Z","depth":0,"parameterNumber":3,"parameterNumberName":"V-component_of_WINDS"},"data":[0.0,0.0,0.0,0.0,0.0,0.0,0.0,0.0,0.0,0.0,0.0,0.0,0.0,0.0,0.0,0.0,0.0,0.0,0.0,0.0,0.0,0.0,0.0,0.0,0.0,0.0,0.0,0.0,0.0,0.0,0.0,0.0,0.0,0.0,0.0,0.0,0.0,0.0,0.0,0.0,0.0,0.0,0.0,0.0,0.0,0.0,0.0,0.0,0.0,0.0,0.0,0.0,0.0,0.0,0.0,0.0,0.0,0.0,0.0,0.0,0.0,0.0,0.0,0.0,0.0,0.0,0.0,0.0,0.0,0.0,0.0,0.0,0.0,0.0,0.0,0.0,0.0,0.0,0.0,0.0,0.0,0.0,0.0,0.0,0.0,0.0,0.0,0.0,0.0,0.0,0.8353,0.6013,0.0462,-0.3949,-0.6003,-0.8254,-1.0924,-1.4211,0.0,0.0,0.0,0.0,0.0,0.0,0.0,0.0,0.0,0.0,0.0,0.0,0.0,0.0,0.0,0.0,0.0,0.0,0.0,0.0,0.0,0.0,0.0,0.0,0.0,0.0,0.0,0.0,0.0,0.0,0.0,0.0,0.0,0.0,0.0,0.0,0.0,0.0,0.0,0.0,0.0,0.0,0.0,0.0,0.0,0.0,0.0,0.0,0.0,0.0,0.0,0.0,0.0,0.0,0.0,0.0,0.0,0.0,0.0,0.0,0.0,0.0,0.0,0.0,0.0,0.0,0.0,0.0,0.0,0.0,0.0,0.0,0.0,0.0,0.0,0.0,0.0,0.0,0.0,0.0,0.0,0.0,0.0,0.0,0.0,0.0,0.0,0.0,0.0,0.0,0.0,0.0,0.0,0.0,0.0,0.0,0.0,0.0,0.0,0.0,0.0,0.0,0.0,0.0,0.7825,0.3969,-0.0459,-0.3958,-0.5997,-0.882,-1.1467,-1.3864,0.0,0.0,0.0,0.0,0.0,0.0,0.0,0.0,0.0,0.0,0.0,0.0,0.0,0.0,0.0,0.0,0.0,0.0,0.0,0.0,0.0,0.0,0.0,0.0,0.0,0.0,0.0,0.0,0.0,0.0,0.0,0.0,0.0,0.0,0.0,0.0,0.0,0.0,0.0,0.0,0.0,0.0,0.0,0.0,0.0,0.0,0.0,0.0,0.0,0.0,0.0,0.0,0.0,0.0,0.0,0.0,0.0,0.0,0.0,0.0,0.0,0.0,0.0,0.0,0.0,0.0,0.0,0.0,0.0,0.0,0.0,0.0,0.0,0.0,0.0,0.0,0.0,0.0,0.0,0.0,0.0,0.0,0.0,0.0,0.0,0.0,0.0,0.0,0.0,0.0,0.0,0.0,0.0,0.0,0.0,0.0,0.0,0.0,0.0,0.0,0.0,0.0,0.0,0.7816,0.5813,0.3354,-0.0617,-0.3693,-0.5172,-0.8161,-1.0943,-1.3263,-1.5317,0.0,0.0,0.0,0.0,0.0,0.0,0.0,0.0,0.0,0.0,0.0,0.0,0.0,0.0,0.0,0.0,0.0,0.0,0.0,0.0,0.0,0.0,0.0,0.0,0.0,0.0,0.0,0.0,0.0,0.0,0.0,0.0,0.0,0.0,0.0,0.0,0.0,0.0,0.0,0.0,0.0,0.0,0.0,0.0,0.0,0.0,0.0,0.0,0.0,0.0,0.0,0.0,0.0,0.0,0.0,0.0,0.0,0.0,0.0,0.0,0.0,0.0,0.0,0.0,0.0,0.0,0.0,0.0,0.0,0.0,0.0,0.0,0.0,0.0,0.0,0.0,0.0,0.0,0.0,0.0,0.0,0.0,0.0,0.0,0.0,0.0,0.0,0.0,0.0,0.0,0.0,0.0,0.0,0.0,0.0,0.0,0.0,0.0,0.0,0.0,0.0,0.0,0.6576,0.419,0.32,-0.0623,-0.3505,-0.4493,-0.7503,-1.0353,-1.2822,-1.511,0.0,0.0,0.0,0.0,0.0,0.0,0.0,0.0,0.0,0.0,0.0,0.0,0.0,0.0,0.0,0.0,0.0,0.0,0.0,0.0,0.0,0.0,0.0,0.0,0.0,0.0,0.0,0.0,0.0,0.0,0.0,0.0,0.0,0.0,0.0,0.0,0.0,0.0,0.0,0.0,0.0,0.0,0.0,0.0,0.0,0.0,0.0,0.0,0.0,0.0,0.0,0.0,0.0,0.0,0.0,0.0,0.0,0.0,0.0,0.0,0.0,0.0,0.0,0.0,0.0,0.0,0.0,0.0,0.0,0.0,0.0,0.0,0.0,0.0,0.0,0.0,0.0,0.0,0.0,0.0,0.0,0.0,0.0,0.0,0.0,0.0,0.0,0.0,0.0,0.0,0.0,0.0,0.0,0.0,0.0,0.0,0.0,0.0,0.0,0.0,0.0,0.0,0.6576,0.419,0.32,-0.0623,-0.3505,-0.4493,-0.7503,-1.0353,-1.2822,-1.511,0.0,0.0,0.0,0.0,0.0,0.0,0.0,0.0,0.0,0.0,0.0,0.0,0.0,0.0,0.0,0.0,0.0,0.0,0.0,0.0,0.0,0.0,0.0,0.0,0.0,0.0,0.0,0.0,0.0,0.0,0.0,0.0,0.0,0.0,0.0,0.0,0.0,0.0,0.0,0.0,0.0,0.0,0.0,0.0,0.0,0.0,0.0,0.0,0.0,0.0,0.0,0.0,0.0,0.0,0.0,0.0,0.0,0.0,0.0,0.0,0.0,0.0,0.0,0.0,0.0,0.0,0.0,0.0,0.0,0.0,0.0,0.0,0.0,0.0,0.0,0.0,0.0,0.0,0.0,0.0,0.0,0.0,0.0,0.0,0.0,0.0,0.0,0.0,0.0,0.0,0.0,0.0,0.0,0.0,0.0,0.0,0.0,0.0,0.0,0.0,0.0,0.0,0.7122,0.4969,0.3278,-0.0078,-0.2568,-0.3579,-0.7126,-0.9845,-1.1204,0.0,0.0,0.0,0.0,0.0,0.0,0.0,0.0,0.0,0.0,0.0,0.0,0.0,0.0,0.0,0.0,0.0,0.0,0.0,0.0,0.0,0.0,0.0,0.0,0.0,0.0,0.0,0.0,0.0,0.0,0.0,0.0,0.0,0.0,0.0,0.0,0.0,0.0,0.0,0.0,0.0,0.0,0.0,0.0,0.0,0.0,0.0,0.0,0.0,0.0,0.0,0.0,0.0,0.0,0.0,0.0,0.0,0.0,0.0,0.0,0.0,0.0,0.0,0.0,0.0,0.0,0.0,0.0,0.0,0.0,0.0,0.0,0.0,0.0,0.0,0.0,0.0,0.0,0.0,0.0,0.0,0.0,0.0,0.0,0.0,0.0,0.0,0.0,0.0,0.0,0.0,0.0,0.0,0.0,0.0,0.0,0.0,0.0,0.0,0.0,0.0,0.0,0.9448,0.7744,0.5739,0.3355,0.0622,-0.1634,-0.2966,-0.6239,-0.8867,-1.0205,0.0,0.0,0.0,0.0,0.0,0.0,0.0,0.0,0.0,0.0,0.0,0.0,0.0,0.0,0.0,0.0,0.0,0.0,0.0,0.0,0.0,0.0,0.0,0.0,0.0,0.0,0.0,0.0,0.0,0.0,0.0,0.0,0.0,0.0,0.0,0.0,0.0,0.0,0.0,0.0,0.0,0.0,0.0,0.0,0.0,0.0,0.0,0.0,0.0,0.0,0.0,0.0,0.0,0.0,0.0,0.0,0.0,0.0,0.0,0.0,0.0,0.0,0.0,0.0,0.0,0.0,0.0,0.0,0.0,0.0,0.0,0.0,0.0,0.0,0.0,0.0,0.0,0.0,0.0,0.0,0.0,0.0,0.0,0.0,0.0,0.0,0.0,0.0,0.0,0.0,0.0,0.0,0.0,0.0,0.0,0.0,0.0,0.0,0.0,0.0,0.0,0.0,0.9518,0.8344,0.6565,0.3429,0.1245,-0.0856,-0.2885,-0.486,-0.7212,0.0,0.0,0.0,0.0,0.0,0.0,0.0,0.0,0.0,0.0,0.0,0.0,0.0,0.0,0.0,0.0,0.0,0.0,0.0,0.0,0.0,0.0,0.0,0.0,0.0,0.0,0.0,0.0,0.0,0.0,0.0,0.0,0.0,0.0,0.0,0.0,0.0,0.0,0.0,0.0,0.0,0.0,0.0,0.0,0.0,0.0,0.0,0.0,0.0,0.0,0.0,0.0,0.0,0.0,0.0,0.0,0.0,0.0,0.0,0.0,0.0,0.0,0.0,0.0,0.0,0.0,0.0,0.0,0.0,0.0,0.0,0.0,0.0,0.0,0.0,0.0,0.0,0.0,0.0,0.0,0.0,0.0,0.0,0.0,0.0,0.0,0.0,0.0,0.0,0.0,0.0,0.0,0.0,0.0,0.0,0.0,0.0,0.0,0.0,0.0,0.0,0.0,0.0,0.9057,0.8729,0.7196,0.3343,0.17,-0.0148,-0.2745,-0.4834,-0.651,-0.7707,0.0,0.0,0.0,0.0,0.0,0.0,0.0,0.0,0.0,0.0,0.0,0.0,0.0,0.0,0.0,0.0,0.0,0.0,0.0,0.0,0.0,0.0,0.0,0.0,0.0,0.0,0.0,0.0,0.0,0.0,0.0,0.0,0.0,0.0,0.0,0.0,0.0,0.0,0.0,0.0,0.0,0.0,0.0,0.0,0.0,0.0,0.0,0.0,0.0,0.0,0.0,0.0,0.0,0.0,0.0,0.0,0.0,0.0,0.0,0.0,0.0,0.0,0.0,0.0,0.0,0.0,0.0,0.0,0.0,0.0,0.0,0.0,0.0,0.0,0.0,0.0,0.0,0.0,0.0,0.0,0.0,0.0,0.0,0.0,0.0,0.0,0.0,0.0,0.0,0.0,0.0,0.0,0.0,0.0,0.0,0.0,0.0,0.0,0.0,0.0,0.0,0.0,0.8855,0.8745,0.7466,0.3776,0.2533,0.0939,-0.1594,-0.3576,-0.5089,-0.6071,0.0,0.0,0.0,0.0,0.0,0.0,0.0,0.0,0.0,0.0,0.0,0.0,0.0,0.0,0.0,0.0,0.0,0.0,0.0,0.0,0.0,0.0,0.0,0.0,0.0,0.0,0.0,0.0,0.0,0.0,0.0,0.0,0.0,0.0,0.0,0.0,0.0,0.0,0.0,0.0,0.0,0.0,0.0,0.0,0.0,0.0,0.0,0.0,0.0,0.0,0.0,0.0,0.0,0.0,0.0,0.0,0.0,0.0,0.0,0.0,0.0,0.0,0.0,0.0,0.0,0.0,0.0,0.0,0.0,0.0,0.0,0.0,0.0,0.0,0.0,0.0,0.0,0.0,0.0,0.0,0.0,0.0,0.0,0.0,0.0,0.0,0.0,0.0,0.0,0.0,0.0,0.0,0.0,0.0,0.0,0.0,0.0,0.0,0.0,0.0,0.0,0.0,0.8568,0.8509,0.7451,0.4464,0.3381,0.2081,0.0,-0.1679,-0.3267,-0.4947,0.0,0.0,0.0,0.0,0.0,0.0,0.0,0.0,0.0,0.0,0.0,0.0,0.0,0.0,0.0,0.0,0.0,0.0,0.0,0.0,0.0,0.0,0.0,0.0,0.0,0.0,0.0,0.0,0.0,0.0,0.0,0.0,0.0,0.0,0.0,0.0,0.0,0.0,0.0,0.0,0.0,0.0,0.0,0.0,0.0,0.0,0.0,0.0,0.0,0.0,0.0,0.0,0.0,0.0,0.0,0.0,0.0,0.0,0.0,0.0,-0.6471,-0.7226,0.0,0.0,0.0,0.0,0.0,0.0,0.0,0.0,0.0,0.0,0.0,0.0,0.0,0.0,0.0,0.0,0.0,0.0,0.0,0.0,0.0,0.0,0.0,0.0,0.0,0.0,0.0,0.0,0.0,0.0,0.0,0.0,0.0,0.0,0.0,0.0,0.0,0.0,0.0,0.0,0.7323,0.7913,0.7333,0.4365,0.3274,0.1975,0.0131,-0.1028,-0.1997,-0.3021,-0.4518,0.0,0.0,0.0,0.0,0.0,0.0,0.0,0.0,0.0,0.0,0.0,0.0,0.0,0.0,0.0,0.0,0.0,0.0,0.0,0.0,0.0,0.0,0.0,0.0,0.0,0.0,0.0,0.0,0.0,0.0,0.0,0.0,0.0,0.0,0.0,0.0,0.0,0.0,0.0,0.0,0.0,0.0,0.0,0.0,0.0,0.0,0.0,0.0,0.0,0.0,0.0,0.0,0.0,0.0,0.0,0.0,0.0,0.0,0.0,-0.6339,-0.6806,0.0,0.0,0.0,0.0,0.0,0.0,0.0,0.0,0.0,0.0,0.0,0.0,0.0,0.0,0.0,0.0,0.0,0.0,0.0,0.0,0.0,0.0,0.0,0.0,0.0,0.0,0.0,0.0,0.0,0.0,0.0,0.0,0.0,0.0,0.0,0.0,0.0,0.0,0.0,0.0,0.6859,0.7502,0.714,0.4789,0.3707,0.2636,0.1317,0.0,-0.1091,-0.1763,-0.3087,0.0,0.0,0.0,0.0,0.0,0.0,0.0,0.0,0.0,0.0,0.0,0.0,0.0,0.0,0.0,0.0,0.0,0.0,0.0,0.0,0.0,0.0,0.0,0.0,0.0,0.0,0.0,0.0,0.0,0.0,0.0,0.0,0.0,0.0,0.0,0.0,0.0,0.0,0.0,0.0,0.0,0.0,0.0,0.0,0.0,0.0,0.0,0.0,0.0,0.0,0.0,0.0,0.0,-0.3907,-0.478,-0.4768,-0.5738,-0.613,-0.6022,-0.5786,-0.5944,-0.6416,-0.7403,0.0,0.0,0.0,0.0,0.0,0.0,0.0,0.0,0.0,0.0,0.0,0.0,0.0,0.0,0.0,0.0,0.0,0.0,0.0,0.0,0.0,0.0,0.7613,0.8622,0.8601,0.7774,0.5401,0.0,0.0,0.0,0.0,0.0,0.0,0.0,0.0,0.0,0.0,0.0,0.6505,0.7143,0.7044,0.5283,0.4156,0.3353,0.2743,0.115,-0.006,-0.0699,-0.157,-0.2352,0.0,0.0,0.0,0.0,0.0,0.0,0.0,0.0,0.0,0.0,0.0,0.0,0.0,0.0,0.0,0.0,0.0,0.0,0.0,0.0,0.0,0.0,0.0,0.0,0.0,0.0,0.0,0.0,0.0,0.0,0.0,0.0,0.2271,0.0078,0.0,0.0,0.0,0.0,0.0,0.0,0.0,0.0,0.0,0.0,0.0,0.0,0.0,-0.0472,-0.1411,-0.1568,-0.2035,-0.289,-0.4153,-0.4701,-0.4688,-0.4859,-0.4937,-0.4844,-0.3904,0.0,-0.6416,-0.7403,0.0,0.0,0.0,0.0,0.0,0.0,0.0,0.0,0.0,0.0,0.0,0.0,0.0,0.0,0.0,0.0,0.0,0.0,0.0,0.0,0.0,0.0,0.9432,1.0447,0.9872,0.9045,0.8678,0.6698,0.4728,0.3992,0.3203,0.2678,0.0,0.0,0.0,0.0,0.0,0.0,0.5373,0.6666,0.6993,0.5139,0.4148,0.3538,0.348,0.247,0.1579,0.0844,0.0112,-0.0671,-0.1397,-0.2009,0.0,0.0,0.0,0.0,0.0,0.0,0.0,0.0,0.0,0.0,0.0,0.0,0.0,0.0,0.0,0.0,0.0,0.0,0.0,0.0,0.0,0.0,0.0,0.0,0.0,0.0,0.0,0.0,0.0,0.3876,0.2467,0.1088,-0.0936,-0.2113,0.0,0.0,0.0,0.0,0.0,0.0,0.0,0.0,0.0,0.0,0.0,-0.0236,-0.0706,-0.1333,-0.1789,-0.2299,-0.3293,-0.3804,-0.3826,-0.3826,-0.3826,-0.3751,-0.33,-0.3601,-0.4512,-0.501,-0.4844,-0.437,0.0,0.0,0.0,0.0,-0.1247,-0.0583,0.0373,0.0735,0.0855,0.1439,0.0,0.0,0.0,0.0,0.0,0.0,0.0,0.7923,0.9304,0.9544,0.9628,1.0548,1.0268,0.9705,0.9547,0.8193,0.6885,0.6327,0.5971,0.5484,0.4813,0.5524,0.0,0.0,0.0,0.7716,0.5787,0.6621,0.6688,0.4974,0.4362,0.3934,0.3535,0.3093,0.2508,0.1786,0.1394,0.089,0.0167,-0.0167,-0.0887,0.0,0.0,0.0,0.0,0.0,0.0,0.0,0.0,0.0,0.0,0.0,0.0,0.0,0.0,0.0,0.0,0.0,0.0,0.0,0.0,0.0,0.0,0.0,0.0,0.0,0.0,0.0,0.0,0.4239,0.2803,0.2085,-0.0156,-0.1486,0.0,0.0,0.0,0.0,0.0,0.0,0.0,0.0,0.0,0.0,0.0,0.0,0.0,-0.0772,-0.1219,-0.1198,-0.2243,-0.2739,-0.2688,-0.2688,-0.2688,-0.2688,-0.2397,-0.2324,-0.2332,-0.2872,-0.3102,-0.3036,-0.2813,-0.226,-0.1497,-0.1294,-0.057,0.0422,0.1081,0.1429,0.1817,0.2744,0.3365,0.3737,0.3703,0.0,0.0,0.0,0.0,0.8576,0.9551,0.9637,0.9668,1.0223,1.0167,0.9947,0.9733,0.9201,0.8592,0.8163,0.7917,0.7477,0.6613,0.7163,0.0,0.6168,0.7555,0.81,0.6348,0.687,0.6724,0.5087,0.4804,0.4453,0.3735,0.3622,0.3287,0.2565,0.2508,0.2171,0.1388,0.1388,0.0888,-0.0222,0.0,0.0,0.0,0.0,0.0,0.0,0.0,0.0,0.0,0.0,0.0,0.0,0.0,0.0,0.0,0.0,0.0,0.0,0.0,0.0,0.0,0.0,0.0,0.0,0.0,0.0,0.0,0.0,0.0,0.3032,0.0308,0.0,0.0,0.0,0.0,-0.0079,0.0,0.0,0.0,0.0,0.0,0.0,0.0,0.0,0.0,-0.0074,-0.0073,-0.0073,-0.1166,-0.1674,-0.1672,-0.1672,-0.1672,-0.16,-0.0582,-0.0146,-0.0291,-0.2258,-0.3015,-0.2804,-0.2034,-0.1518,-0.1216,-0.0417,0.0491,0.1262,0.1297,0.1857,0.2802,0.3808,0.5256,0.6695,0.6511,0.7107,0.0,0.0,0.9139,0.9348,0.992,1.0086,1.0006,0.9793,0.9719,0.9699,0.9686,0.9686,0.9389,0.8569,0.7687,0.7151,0.7076,0.0,0.7077,0.6897,0.7744,0.7965,0.6728,0.7516,0.7449,0.5631,0.5437,0.5164,0.4515,0.4463,0.4125,0.34,0.3289,0.2899,0.2174,0.2119,0.2119,0.2062,0.2065,0.0,0.0,0.0,0.0,0.0,0.0,0.0,0.0,0.0,0.0,0.0,0.0,0.0,0.0,0.0,0.0,0.0,0.0,0.0,0.0,0.0,0.0,0.0,0.0,0.0,0.0,0.0,0.0,0.2212,0.052,0.0,-0.0074,-0.0372,-0.0449,0.0,0.0,0.0,0.0,0.0,0.0,0.0,0.0,0.0,0.0,0.0,0.0,0.0,-0.0356,-0.0564,-0.0554,-0.0554,-0.0554,-0.0554,-0.0139,0.0,-0.0069,-0.0831,-0.1044,-0.0981,-0.0701,-0.0552,-0.0337,0.0543,0.1021,0.1498,0.261,0.3623,0.4607,0.6146,0.7069,0.7602,0.7526,0.8156,0.8843,0.8925,0.9389,0.9833,0.9854,1.0179,1.0437,1.0129,1.0431,1.0529,0.9894,0.9742,0.9533,0.8825,0.8726,0.8731,0.8504,0.8613,0.864,0.8197,0.8583,0.8509,0.7441,0.7637,0.7438,0.6317,0.576,0.5378,0.5164,0.4732,0.4405,0.4125,0.4501,0.4604,0.4326,0.4765,0.4597,0.366,0.4542,0.4542,0.0,0.0,0.0,0.0,0.0,0.0,0.0,0.0,0.0,0.0,0.0,0.0,0.0,0.0,0.0,0.0,0.0,0.0,0.0,0.0,0.0,0.0,0.0,0.0,0.0,0.3214,0.2245,0.1652,0.0652,0.0,0.0,0.0,0.0,0.0,0.0,0.0,0.0,0.0,0.0,0.0,0.0,0.0,0.0,0.0,0.0,0.0,0.0,0.0,0.0,0.0,0.0,0.0,0.0,0.0,0.0,0.0,0.0,0.0,0.0,0.0,0.0135,0.0996,0.1529,0.2072,0.403,0.5418,0.6367,0.7481,0.8037,0.8292,0.8292,0.8817,0.9408,0.9156,0.9708,1.0241,0.9944,1.0411,1.0816,1.0532,1.0817,1.091,1.0014,0.9961,0.9917,0.9263,0.9275,0.9381,0.9391,0.9577,0.968,0.9523,0.9432,0.9166,0.848,0.8203,0.7777,0.7074,0.6524,0.614,0.5873,0.5222,0.4952,0.5171,0.5382,0.5597,0.5869,0.6367,0.614,0.5144,0.6342,0.6607,0.5878,0.0,0.0,0.0,0.0,0.0,0.0,0.0,0.0,0.0,0.0,0.0,0.0,0.0,0.0,0.0,0.0,0.0,0.0,0.0,0.0,0.0,0.0,0.0,0.4166,0.2709,0.1581,0.1541,0.0643,0.0,0.0,0.0,0.0,0.0,0.0,0.0,0.0,0.0,0.0,0.0,0.0,0.0,0.0,0.0,0.0,0.0,0.0,0.0,0.0,0.0,0.0,0.0,0.0,0.0,0.0,0.0,0.0,0.0064,0.0065,0.0066,0.0134,0.1042,0.1963,0.3129,0.5485,0.7072,0.7981,0.7699,0.8175,0.8845,0.8845,0.9285,0.9737,0.9731,1.0172,1.059,1.0327,1.077,1.1206,1.0896,1.0864,1.0661,1.002,1.0364,1.061,0.9961,0.9316,0.9061,0.971,0.9814,1.0064,1.0712,1.0269,0.0,0.9814,0.9263,0.8586,0.783,0.7723,0.745,0.6696,0.5982,0.5869,0.6583,0.5977,0.5923,0.6637,0.6745,0.6745,0.6745,0.7357,0.8029,0.8783,0.0,0.0,0.0,0.0,0.0,0.0,0.0,0.0,0.0,0.0,0.0,0.0,0.0,0.0,0.0,0.0,0.0,0.0,0.0,0.0,0.0,0.3617,0.3079,0.3102,0.2115,0.1164,0.0545,0.0206,0.0,0.0,0.0,0.0,0.0,0.0,0.0,0.0,0.0,0.0,0.0,0.0,0.0,0.0,0.0,0.0,0.0,0.0,0.0,0.0,0.0,0.0,0.0,0.0,0.0,0.0,0.0,0.0315,0.0813,0.0767,0.0767,0.1012,0.2555,0.417,0.5847,0.7757,0.8502,0.864,0.9205,0.9761,1.0168,1.0168,1.0293,1.0358,1.0183,0.9903,0.9667,0.9879,1.0402,1.1039,1.1443,1.194,1.2157,1.1416,1.1416,1.1316,1.0661,1.0364,1.032,1.0517,1.0517,1.0568,1.0762,1.0669,1.0517,1.0517,1.0364,1.0012,0.9295,0.8751,0.8119,0.745,0.6745,0.6573,0.7304,0.7617,0.814,0.8808,0.9349,0.9666,0.9666,0.9275,0.9724,0.0,0.0,0.0,0.0,0.0,0.0,0.0,0.0,0.0,0.0,0.0,0.0,0.0,0.0,0.0,0.0,0.0,0.0,0.0,0.0,0.0,0.0,0.2724,0.2123,0.2133,0.136,0.0584,0.0065,0.0,0.0131,0.0529,0.0529,0.0661,0.0991,0.0735,0.0536,0.0463,0.0201,0.0,0.0,0.0,0.0,0.0,0.0,0.0,0.0,0.0,0.0,0.0,0.0,0.0,0.0,0.0,0.0185,0.0432,0.0432,0.0916,0.1511,0.0,0.0,0.0,0.0,0.507,0.71,0.8008,0.8685,0.9232,0.9604,1.0079,1.0535,1.0535,1.0652,1.0717,1.0568,1.0408,1.0362,1.0565,1.1174,1.1792,1.2187,1.2608,1.2715,1.1972,1.203,1.203,1.1366,1.1475,0.0,1.1692,1.1425,1.1316,1.1633,1.1425,1.1216,1.1216,1.0965,1.0661,1.0261,0.9835,0.9415,0.9013,0.8311,0.0,0.0,0.0,0.9445,1.0112,1.0594,0.0,0.0,0.0,0.0,0.0,0.0,0.0,0.0,1.3407,1.3834,0.0,0.0,0.0,0.0,0.0,0.0,0.0,0.0,0.0,0.0,0.0,0.0,0.0,0.0,0.0,0.0,0.185,0.1263,0.1169,0.0489,0.0,0.0,0.0062,0.0436,0.1214,0.1345,0.1729,0.2431,0.1833,0.138,0.1219,0.0526,0.0,0.0,0.0,0.0,0.0,0.0,0.0,0.0,0.0,0.0,0.0,0.0,0.0,0.0,0.0061,0.0488,0.1097,0.1218,0.1675,0.2272,0.1634,0.1785,0.2566,0.3539,0.5352,0.7259,0.7124,0.0,0.0,0.9325,0.97,1.0255,1.0255,1.0459,1.0712,1.0762,1.1166,1.1616,1.1765,1.2295,1.2822,1.2968,1.2978,1.2764,1.2267,1.2589,1.2803,1.2258,1.2638,1.3065,1.3017,1.2393,1.2129,1.2774,1.2344,1.1913,1.1913,1.1416,1.1015,1.0914,1.0914,0.0,1.0813,1.0214,1.0156,1.0864,1.046,1.0503,1.1199,1.1249,1.1481,1.2046,1.2657,1.3328,1.3928,1.4492,1.5096,1.5676,1.4448,1.455,0.0,0.0,0.0,0.0,0.0,0.0,0.0,0.0,0.0,0.0,0.0,0.0,0.0,0.0,0.0,0.1675,0.1398,0.1075,0.0357,0.0116,0.0,0.0,0.0555,0.0926,0.1117,0.1675,0.2107,0.2231,0.2119,0.1995,0.1985,0.131,0.0877,0.0877,0.0314,0.0,0.0,0.0,0.0,0.0,0.0,0.0,0.0,0.0,0.0,0.0059,0.0635,0.0969,0.114,0.1763,0.2435,0.3151,0.2927,0.3447,0.4315,0.5235,0.6253,0.7403,0.8019,0.8718,0.9263,0.9203,0.9498,0.9911,0.9911,0.997,0.0,1.0669,1.0517,1.0415,1.1516,1.1922,1.2267,1.3351,1.3238,1.3152,1.3946,1.3862,1.3732,1.4075,1.4236,1.4201,1.3684,1.3084,1.2725,1.2881,1.2774,1.2666,1.2666,1.2559,1.2255,1.1665,1.1616,1.1366,1.0864,1.0653,1.0906,1.1566,1.2473,1.329,1.3924,1.3924,1.4018,1.4111,1.4261,1.463,1.5252,1.5353,1.5732,1.6293,1.5576,1.5632,0.0,0.0,0.0,0.0,0.0,0.0,0.0,0.0,0.0,0.0,0.0,-0.0404,0.0,0.0,0.1682,0.1263,0.1187,0.1051,0.0633,0.0565,0.0397,0.0059,0.0647,0.13,0.174,0.2462,0.306,0.3418,0.3103,0.2867,0.2821,0.1707,0.1108,0.1108,0.037,0.0,0.0,0.0,0.0,0.0,0.0,0.0,0.0,0.0,0.023,0.0573,0.0957,0.1563,0.2286,0.3065,0.3566,0.3959,0.3901,0.4169,0.4632,0.5072,0.5741,0.6502,0.7311,0.7961,0.8524,0.8856,0.9383,0.9814,0.9814,1.0012,1.0415,1.1116,1.1065,1.1015,1.2089,1.257,1.2986,1.3627,1.3789,1.3978,1.456,1.4468,1.4329,1.4652,1.4698,1.4606,1.4283,1.4014,1.3705,1.342,1.361,1.38,1.38,1.38,1.3684,1.3311,1.2976,1.2783,1.2754,1.2754,1.2908,1.3205,1.3888,1.4376,1.4709,1.4698,1.4835,1.5141,1.5141,1.5466,1.6051,1.633,1.66,1.6909,1.687,1.687,0.0,0.0,0.0,0.0,0.0,0.0,0.0,-0.3282,-0.3511,-0.2807,-0.1915,-0.1251,-0.0934,0.0176,0.1171,0.1281,0.1337,0.1324,0.129,0.134,0.1118,0.0504,0.1062,0.1805,0.2607,0.3309,0.4007,0.4589,0.4104,0.3757,0.3603,0.2142,0.133,0.133,0.0484,0.0,0.0,0.0,0.0,0.0,0.0,0.0058,0.0233,0.0227,0.0615,0.134,0.1452,0.2343,0.3677,0.4401,0.4677,0.4736,0.4842,0.4846,0.468,0.4574,0.4948,0.5597,0.6367,0.7074,0.783,0.854,0.9159,0.9614,0.9614,0.9961,1.0568,1.1366,1.1616,1.1823,1.2666,1.3324,1.3815,1.3956,1.4329,1.4744,1.5017,1.4971,1.4926,1.5017,1.5062,1.5017,1.488,1.4971,1.4789,1.4097,1.4376,1.4698,1.4698,1.4698,1.4698,1.4698,1.4283,1.419,1.4663,1.4608,1.4642,1.4869,1.488,1.488,1.4879,1.4971,1.5241,1.562,1.5716,1.6083,1.668,1.7076,1.7353,1.7463,1.7907,1.7867,-0.2506,-0.1619,-0.1229,-0.1898,-0.3166,-0.4429,0.0,-0.521,-0.503,-0.4314,-0.3018,-0.1692,-0.0351,0.0528,0.1337,0.1973,0.2076,0.2073,0.2065,0.2063,0.2063,0.1952,0.2619,0.307,0.3193,0.3925,0.4432,0.4487,0.4445,0.4392,0.4376,0.2925,0.2087,0.2087,0.0736,0.0,0.0,0.0,0.0,0.0,0.0,0.0338,0.0955,0.0952,0.1396,0.212,0.2843,0.3624,0.4405,0.5109,0.5378,0.5433,0.6095,0.5982,0.5328,0.4732,0.4948,0.5597,0.6367,0.7074,0.783,0.854,0.8857,0.891,0.891,0.8956,0.9316,1.0568,1.0914,1.1225,1.2569,1.3324,1.3956,1.4468,1.4652,1.4971,1.6064,1.5876,1.5676,1.6194,1.6293,1.6151,1.5588,1.5964,1.592,1.4789,1.4663,1.4698,1.4698,1.4698,1.4698,1.4698,1.4652,1.4606,1.4698,1.425,1.4404,1.5431,1.5499,1.5516,1.5587,1.6033,1.6113,1.5711,1.6173,1.6667,1.7188,1.7271,1.7544,1.8027,1.8066,1.8066,-0.0778,-0.0668,-0.128,-0.2007,-0.3608,-0.5148,-0.5429,-0.5814,-0.5837,-0.4619,-0.3217,-0.1636,0.0282,0.1922,0.3268,0.3987,0.3765,0.3495,0.3495,0.3171,0.2899,0.2843,0.3511,0.3846,0.34,0.407,0.4519,0.4519,0.4519,0.4519,0.4519,0.3065,0.2174,0.2174,0.0783,0.0,0.0,0.0,0.0,0.0,0.0,0.0392,0.1118,0.1118,0.1786,0.2954,0.3735,0.4239,0.457,0.5218,0.5487,0.5597,0.6312,0.6421,0.6091,0.5823,0.5605,0.5647,0.6853,0.745,0.783,0.854,0.8804,0.8804,0.8804,0.8804,0.9061,1.0415,1.0813,1.1124,1.252,1.3324,1.3956,1.4571,1.4971,1.5466,1.6337,1.6281,1.6194,1.6466,1.6522,1.6423,1.6194,1.6324,1.6337,1.5832,1.5744,1.5636,1.5325,1.5552,1.5492,1.4847,1.5073,1.516,1.478,1.5156,1.5459,1.5642,1.5672,1.5645,1.5608,1.6163,1.6505,1.6493,1.713,1.7544,1.7787,1.8066,1.8341,1.8574,1.8893,1.9043,0.0944,0.0167,-0.1331,-0.2279,-0.4158,-0.5869,-0.6086,-0.6524,-0.6524,-0.5253,-0.3523,-0.148,0.0929,0.3182,0.4957,0.5932,0.5608,0.5128,0.4754,0.4275,0.3895,0.3677,0.4125,0.4294,0.3735,0.4181,0.4519,0.4519,0.4519,0.4405,0.4181,0.2899,0.212,0.1898,0.0671,0.0,0.0,0.0,0.0,0.0,0.0224,0.0671,0.1396,0.1842,0.2621,0.3735,0.4294,0.4519,0.457,0.5437,0.5814,0.5923,0.6853,0.7074,0.6912,0.7128,0.6637,0.5977,0.7283,0.7723,0.783,0.854,0.8804,0.8804,0.8804,0.8804,0.9061,1.0415,1.0813,1.1124,1.252,1.3324,1.3909,1.4329,1.505,1.572,1.6151,1.638,1.6522,1.6522,1.6522,1.6522,1.6522,1.6522,1.6522,1.6522,1.6384,1.6208,1.5957,1.6271,1.6126,1.5163,1.5447,1.5508,1.5049,1.5736,1.6128,1.5826,1.58,1.5698,1.5445,1.6235,1.6748,1.6885,1.7667,1.8087,1.8051,1.8617,1.8881,1.887,1.9441,1.969,0.2154,0.0553,-0.1441,-0.2932,-0.4918,-0.675,-0.745,-0.767,-0.7456,-0.6696,-0.4232,-0.131,0.1563,0.3854,0.5855,0.7276,0.7494,0.702,0.5642,0.5433,0.5214,0.4515,0.4463,0.4519,0.446,0.4463,0.4519,0.4519,0.4519,0.4181,0.3398,0.2619,0.1898,0.1174,0.0392,0.0,0.0,0.0,0.0,0.0,0.0727,0.1452,0.2232,0.3735,0.4408,0.446,0.4519,0.4519,0.4625,0.5987,0.6588,0.6696,0.8156,0.8321,0.7777,0.848,0.783,0.6696,0.745,0.7723,0.783,0.854,0.8804,0.8804,0.8804,0.8804,0.9061,1.0415,1.0813,1.1124,1.252,1.3324,1.3815,1.3815,1.4732,1.5588,1.5632,1.6095,1.6522,1.6522,1.6522,1.6522,1.6522,1.6522,1.6522,1.6522,1.607,1.5906,1.6421,1.6509,1.6308,1.5715,1.5693,1.5627,1.5475,1.5524,1.5697,1.6073,1.6087,1.585,1.5319,1.6464,1.6858,1.6338,1.7498,1.8047,1.7913,1.859,1.8812,1.8713,1.939,1.969,0.3199,0.1325,-0.0829,-0.2817,-0.4831,-0.6707,-0.8069,-0.8611,-0.8408,-0.6866,-0.4201,-0.0958,0.2841,0.6115,0.852,0.9533,0.9665,0.9181,0.7817,0.7186,0.644,0.5324,0.5164,0.5003,0.4519,0.4519,0.4519,0.4519,0.4519,0.4125,0.3345,0.2619,0.1842,0.1118,0.0392,0.0,0.0,0.0,0.0224,0.0727,0.1953,0.2732,0.301,0.4015,0.4519,0.4515,0.4948,0.5164,0.5273,0.6745,0.7343,0.745,0.8427,0.8646,0.848,0.8699,0.848,0.8103,0.8315,0.8427,0.848,0.8699,0.9113,0.9465,0.9465,0.9762,1.0312,1.1216,1.1466,1.1674,1.2666,1.3065,1.3286,1.3684,1.4097,1.463,1.5443,1.5764,1.6008,1.6423,1.6522,1.6522,1.6522,1.6522,1.6396,1.6019,1.5505,1.5341,1.5906,1.5015,1.4613,1.5492,1.5245,1.5131,1.5348,1.5685,1.5811,1.5592,1.5565,1.544,1.5184,1.5981,1.647,1.6564,1.7393,1.8036,1.8446,1.8667,1.9106,1.9767,1.9982,2.0261,0.4443,0.2086,-0.055,-0.2932,-0.5149,-0.7086,-0.8615,-0.9444,-0.9321,-0.7319,-0.3958,-0.0207,0.3844,0.791,1.0905,1.1711,1.1635,1.0856,0.9254,0.8443,0.7458,0.6086,0.5873,0.571,0.5281,0.5007,0.4732,0.4515,0.4519,0.4181,0.34,0.2899,0.2286,0.1507,0.1006,0.0671,0.0392,0.0671,0.1174,0.1898,0.2843,0.3456,0.379,0.4294,0.4519,0.4519,0.5218,0.5487,0.5592,0.7069,0.7723,0.7777,0.8533,0.8804,0.8804,0.8804,0.8804,0.8857,0.9061,0.9159,0.9211,0.9465,0.9814,1.0167,1.0167,1.0466,1.0965,1.1616,1.1823,1.199,1.2725,1.2881,1.3017,1.3372,1.3637,1.405,1.505,1.5454,1.5776,1.638,1.6522,1.6522,1.6522,1.6473,1.6268,1.5707,1.5299,1.5284,1.5889,1.4852,1.4572,1.5968,1.5591,1.5289,1.5547,1.5895,1.5901,1.5513,1.5471,1.5427,1.5344,1.5972,1.6496,1.691,1.7545,1.8186,1.8774,1.8987,1.9489,2.0189,2.044,2.0715,0.5854,0.2828,-0.0599,-0.3305,-0.5793,-0.7878,-0.9133,-1.0103,-1.0097,-0.7834,-0.3462,0.105,0.4696,0.9437,1.3064,1.3674,1.3348,1.2241,1.0062,0.9195,0.8265,0.6853,0.6691,0.6642,0.6588,0.5928,0.5218,0.4625,0.4515,0.4181,0.3456,0.34,0.301,0.2232,0.2174,0.1842,0.1174,0.1898,0.2619,0.3287,0.3345,0.3735,0.4519,0.4519,0.4515,0.457,0.5273,0.5592,0.5706,0.7176,0.7777,0.783,0.8533,0.8804,0.8804,0.8804,0.8804,0.8962,0.9614,0.9814,0.9909,1.0568,1.0813,1.0864,1.0864,1.0864,1.1015,1.1665,1.1841,1.2008,1.2774,1.2929,1.2929,1.2929,1.3372,1.3956,1.456,1.5186,1.5776,1.638,1.6522,1.6552,1.6527,1.6365,1.6139,1.5562,1.5362,1.5529,1.6332,1.586,1.5901,1.7117,1.6523,1.6048,1.607,1.6027,1.5939,1.58,1.5799,1.5799,1.5827,1.6398,1.6864,1.7262,1.785,1.8372,1.8908,1.9553,1.992,2.0122,2.0718,2.1023,0.6534,0.356,0.0261,-0.2618,-0.5264,-0.7566,-0.9031,-0.9555,-0.8679,-0.5114,-0.0953,0.3423,0.8071,1.2801,1.5823,1.5128,1.5349,1.4733,1.2299,1.0965,0.9717,0.8317,0.77,0.7182,0.6642,0.5928,0.5433,0.5273,0.4787,0.4181,0.3456,0.3345,0.2954,0.2232,0.2174,0.212,0.1898,0.2676,0.3121,0.3287,0.3901,0.4294,0.4519,0.4519,0.4787,0.5273,0.5982,0.6637,0.723,0.815,0.8533,0.8533,0.8752,0.8804,0.8804,0.8804,0.9106,0.9666,1.0312,1.0218,0.9909,1.0568,1.1166,1.1566,1.1566,1.194,1.2412,1.2559,1.2618,1.2764,1.3409,1.3238,1.3017,1.3457,1.3684,1.3956,1.456,1.5186,1.5776,1.638,1.6837,1.6946,1.6436,1.6306,1.6073,1.544,1.4976,1.4933,1.5515,1.5094,1.5159,1.6208,1.5758,1.549,1.5847,1.5862,1.5846,1.5814,1.5799,1.5898,1.6163,1.6332,1.6576,1.6929,1.7087,1.7729,1.8908,1.9071,1.986,2.1199,2.1379,2.1628,0.7183,0.4016,0.0503,-0.2227,-0.528,-0.7872,-0.8938,-0.9063,-0.7896,-0.407,0.0743,0.5596,0.987,1.4071,1.6753,1.6361,1.5945,1.5119,1.3406,1.1828,1.0407,0.9318,0.8613,0.7883,0.7128,0.6421,0.5873,0.5542,0.4897,0.4294,0.3901,0.3846,0.3622,0.3231,0.3231,0.3231,0.3231,0.3287,0.3456,0.3846,0.4294,0.4519,0.4519,0.4787,0.5164,0.5542,0.6632,0.7343,0.7777,0.848,0.8804,0.8804,0.8804,0.8804,0.8804,0.8804,0.9211,0.9917,1.0568,1.0771,1.0762,1.1484,1.199,1.2286,1.2286,1.2559,1.2881,1.2881,1.3104,1.3372,1.3732,1.3742,1.3789,1.4097,1.419,1.4376,1.496,1.5365,1.5776,1.638,1.6715,1.6757,1.6349,1.6223,1.6025,1.5655,1.5304,1.5172,1.5484,1.5088,1.5279,1.6597,1.593,1.5625,1.6144,1.5963,1.5856,1.6011,1.6011,1.6163,1.6501,1.6528,1.6686,1.7002,1.7351,1.8127,1.9372,1.9728,2.0598,2.1899,2.1899,2.2032,0.7813,0.4337,0.0537,-0.1886,-0.54,-0.8317,-0.8601,-0.8372,-0.7053,-0.3357,0.2232,0.7491,1.0955,1.435,1.6756,1.7209,1.5981,1.4697,1.395,1.2162,1.0661,1.0012,0.9263,0.8533,0.7883,0.7182,0.6421,0.5706,0.5003,0.457,0.4519,0.4519,0.4519,0.4519,0.4519,0.4519,0.4519,0.379,0.379,0.4519,0.4519,0.4574,0.468,0.5218,0.5597,0.5869,0.7122,0.7723,0.7777,0.848,0.8752,0.8646,0.8752,0.8804,0.8804,0.891,0.9361,1.0012,1.0712,1.1366,1.203,1.2666,1.2881,1.2881,1.2881,1.2881,1.2929,1.3017,1.342,1.3815,1.4003,1.4376,1.4698,1.4789,1.4835,1.4971,1.5499,1.566,1.5818,1.6296,1.6371,1.6348,1.6269,1.6159,1.6074,1.6001,1.5875,1.5799,1.5799,1.5448,1.5782,1.7277,1.6443,1.6023,1.6593,1.6187,1.6011,1.6355,1.6382,1.6528,1.6866,1.6866,1.7027,1.7368,1.7996,1.8851,2.0002,2.0703,2.1465,2.231,2.231,2.231,0.856,0.5327,0.1604,-0.1306,-0.4722,-0.7423,-0.7567,-0.6746,-0.4565,0.0157,0.4688,0.8992,1.2939,1.5579,1.7156,1.7156,1.6581,1.5775,1.4686,1.2782,1.1332,1.0712,0.9562,0.8752,0.8646,0.7937,0.7182,0.6475,0.5764,0.5109,0.4515,0.4519,0.4519,0.4519,0.4519,0.4519,0.4519,0.4349,0.4349,0.4519,0.4519,0.4787,0.5324,0.5433,0.614,0.7337,0.7616,0.7723,0.7777,0.848,0.8427,0.7937,0.8586,0.8804,0.8857,0.9413,1.0064,1.0712,1.1416,1.2089,1.2715,1.2881,1.2881,1.2881,1.2881,1.2881,1.3017,1.3505,1.3732,1.4039,1.5039,1.5005,1.4835,1.532,1.5454,1.5454,1.5588,1.5885,1.6059,1.5763,1.6277,1.6662,1.614,1.6343,1.6395,1.5921,1.5801,1.5799,1.5799,1.5741,1.5786,1.6084,1.5933,1.5943,1.6332,1.628,1.6355,1.6686,1.6712,1.685,1.7199,1.7224,1.7368,1.7704,1.7838,1.8603,2.0002,2.0137,2.0914,2.231,2.231,2.231,0.877,0.5687,0.2099,-0.112,-0.4345,-0.6745,-0.671,-0.5449,-0.2925,0.1738,0.5696,0.9497,1.3208,1.4716,1.5599,1.6167,1.5624,1.4911,1.4305,1.2512,1.114,1.0813,0.9614,0.8646,0.8268,0.7883,0.7396,0.6642,0.5923,0.5218,0.4519,0.4842,0.5003,0.5003,0.5386,0.5609,0.5609,0.5609,0.5609,0.5609,0.5609,0.5769,0.6091,0.647,0.7009,0.7723,0.8103,0.8262,0.8321,0.8646,0.8593,0.8315,0.9054,0.9309,0.9413,1.0064,1.0762,1.1366,1.1683,1.2304,1.2881,1.2881,1.2881,1.2881,1.2881,1.2881,1.3017,1.3637,1.405,1.4468,1.5365,1.5644,1.57,1.6008,1.6051,1.6126,1.6403,1.6404,1.6297,1.6351,1.641,1.6331,1.6063,1.6138,1.6188,1.6085,1.6067,1.6108,1.6301,1.6328,1.6246,1.6095,1.6219,1.6382,1.6554,1.6554,1.6712,1.7027,1.7052,1.7199,1.7549,1.7549,1.7635,1.7811,1.8739,1.9467,2.0002,2.0952,2.172,2.231,2.231,2.231,0.882,0.5878,0.2385,-0.0897,-0.3811,-0.5826,-0.5798,-0.42,-0.1601,0.2391,0.5977,0.938,1.2551,1.31,1.3575,1.5017,1.434,1.3616,1.3768,1.2337,1.1107,1.0813,0.9762,0.8738,0.799,0.7943,0.7616,0.6912,0.6145,0.5382,0.4519,0.5003,0.5378,0.5487,0.6036,0.6421,0.6588,0.6588,0.6588,0.6588,0.6588,0.6696,0.6858,0.745,0.7777,0.7996,0.8533,0.8699,0.8586,0.8752,0.8798,0.8844,0.951,0.9865,1.0115,1.0771,1.1366,1.1864,1.2129,1.2598,1.3104,1.3248,1.3113,1.2881,1.2881,1.2968,1.32,1.3826,1.4422,1.5017,1.5644,1.6139,1.6522,1.6637,1.668,1.6773,1.7036,1.673,1.6483,1.6633,1.6264,1.5978,1.5978,1.5936,1.6011,1.6274,1.6367,1.6501,1.6763,1.6866,1.6815,1.6538,1.6686,1.6841,1.6917,1.6917,1.7052,1.7392,1.7415,1.7526,1.7789,1.7811,1.7879,1.8031,1.9499,2.0297,2.0348,2.1831,2.2548,2.248,2.248,2.248,0.905,0.6103,0.27,-0.0375,-0.2821,-0.4397,-0.4534,-0.2841,-0.0435,0.2657,0.565,0.8508,1.1209,1.1336,1.1805,1.4146,1.3624,1.312,1.3721,1.312,1.2181,1.0965,1.0167,0.9458,0.8752,0.8699,0.8374,0.767,0.6912,0.5932,0.457,0.457,0.4897,0.5487,0.5542,0.5923,0.6588,0.6588,0.6588,0.6588,0.6588,0.6966,0.7616,0.767,0.8049,0.8699,0.8752,0.8427,0.783,0.854,0.8778,0.879,0.9488,1.0167,1.0762,1.1466,1.1765,1.1963,1.3188,1.3674,1.3826,1.434,1.3789,1.2881,1.2881,1.3286,1.3826,1.4468,1.505,1.5676,1.6238,1.6479,1.6637,1.7118,1.7229,1.7062,1.6514,1.6634,1.6545,1.5484,1.558,1.583,1.583,1.607,1.6274,1.6301,1.6554,1.6763,1.6789,1.7076,1.7248,1.7207,1.6952,1.6926,1.7224,1.7231,1.7392,1.7726,1.7749,1.7766,1.7811,1.7811,1.8115,1.8792,1.9258,2.0159,2.1458,2.1931,2.2493,2.3135,2.3135,2.3135,0.9092,0.6398,0.3222,-0.0217,-0.2392,-0.3647,-0.375,-0.236,-0.0163,0.3276,0.5595,0.7717,1.0068,1.0304,1.0659,1.2004,1.2203,1.2297,1.255,1.2346,1.1846,1.0914,1.0218,0.951,0.8857,0.8804,0.848,0.7777,0.745,0.6799,0.5828,0.6204,0.6524,0.6794,0.7278,0.7605,0.7937,0.7937,0.7937,0.7937,0.7937,0.8103,0.8374,0.8374,0.8533,0.8804,0.8804,0.8646,0.8427,0.9099,0.9399,0.9481,1.0559,1.1166,1.1466,1.2197,1.2452,1.255,1.3084,1.3515,1.3815,1.4097,1.4061,1.3978,1.3978,1.4154,1.4468,1.505,1.541,1.5732,1.6324,1.6522,1.6637,1.7146,1.7312,1.7411,1.7787,1.7363,1.6862,1.6711,1.6367,1.608,1.608,1.6382,1.6686,1.6876,1.7027,1.7175,1.7384,1.7502,1.7595,1.7595,1.7479,1.7638,1.8215,1.8272,1.832,1.8454,1.8454,1.8454,1.8454,1.8454,1.8886,1.9848,2.0643,2.1326,2.1896,2.2692,2.3111,2.3189,2.3189,2.3189,0.9472,0.7009,0.3944,0.0709,-0.1209,-0.238,-0.2605,-0.1487,0.0438,0.346,0.5404,0.7171,0.9117,0.9503,0.9762,1.0661,1.1015,1.1366,1.1765,1.1616,1.1316,1.0864,1.0218,0.951,0.8857,0.8804,0.8593,0.8049,0.8049,0.7777,0.7289,0.7723,0.7937,0.7723,0.8209,0.8586,0.8804,0.8804,0.8804,0.8804,0.8804,0.8804,0.8804,0.8804,0.8804,0.8804,0.8804,0.8804,0.8857,0.951,0.9917,1.0218,1.1366,1.1922,1.2187,1.2715,1.2881,1.2929,1.3104,1.342,1.3862,1.4226,1.4641,1.5017,1.5197,1.5107,1.505,1.5499,1.572,1.5996,1.6582,1.6752,1.6909,1.7626,1.7787,1.7972,1.87,1.7961,1.7198,1.7364,1.6816,1.6301,1.6301,1.6659,1.7027,1.7272,1.7392,1.7526,1.7766,1.7811,1.7811,1.7811,1.7811,1.8014,1.8538,1.8572,1.8704,1.9041,1.8948,1.9073,1.951,1.9429,1.9865,2.0952,2.1812,2.2357,2.2589,2.3422,2.3714,2.35,2.35,2.35,1.0455,0.7967,0.4942,0.2743,0.1049,-0.0223,-0.0949,0.0,0.1496,0.2984,0.5085,0.7009,0.8475,0.8771,0.9263,1.0568,1.0269,1.0261,1.1616,1.1216,1.0813,1.0813,1.0218,0.951,0.8857,0.8804,0.8804,0.8804,0.8804,0.8804,0.8758,0.8804,0.848,0.7723,0.7723,0.8049,0.8804,0.8804,0.8804,0.8804,0.8804,0.8804,0.8804,0.8804,0.8804,0.8804,0.8804,0.8804,0.8857,0.951,1.021,1.0864,1.1566,1.2236,1.2881,1.2881,1.2881,1.2968,1.36,1.3768,1.4003,1.5174,1.5588,1.572,1.6281,1.6051,1.5588,1.5588,1.6051,1.6595,1.7146,1.7312,1.7544,1.8612,1.8893,1.8832,1.8748,1.816,1.7503,1.6846,1.6496,1.6301,1.6301,1.6834,1.7296,1.7296,1.7572,1.7789,1.7811,1.7811,1.7811,1.7811,1.7811,1.7811,1.7805,1.7805,1.8273,1.9347,1.9087,1.951,2.0918,2.0648,2.0992,2.206,2.2416,2.2958,2.3674,2.4016,2.419,2.419,2.419,2.419,0.9516,0.8112,0.6318,0.3613,0.2199,0.1325,0.0555,0.1165,0.2268,0.3759,0.5416,0.6907,0.7865,0.8468,0.9024,0.9592,0.9943,1.031,1.0727,1.0983,1.0894,1.019,0.951,0.9008,0.8804,0.8804,0.8804,0.8804,0.8804,0.8804,0.8804,0.8804,0.8699,0.848,0.8427,0.8586,0.8804,0.8804,0.8804,0.8804,0.8804,0.8804,0.8804,0.9256,0.9465,0.9517,0.9969,0.9917,0.9562,1.0712,1.1015,1.0922,1.2098,1.2715,1.2881,1.2881,1.2881,1.2968,1.36,1.405,1.456,1.5365,1.5864,1.6238,1.6423,1.638,1.6238,1.6238,1.6612,1.7076,1.7271,1.721,1.7479,1.8627,1.8194,1.7739,1.854,1.7802,1.695,1.6756,1.6481,1.6367,1.6607,1.7002,1.7368,1.7612,1.7726,1.7811,1.7811,1.7971,1.8061,1.8061,1.8722,1.8992,1.8602,1.9207,1.9786,2.0142,2.0743,2.1304,2.1728,2.164,2.21,2.3167,2.331,2.3581,2.4036,2.4151,2.419,2.419,2.419,2.419,0.9513,0.854,0.7153,0.5035,0.379,0.2863,0.2101,0.2272,0.2883,0.377,0.5148,0.6416,0.7128,0.7883,0.8538,0.8991,0.9444,0.9857,1.0245,1.0415,1.0279,0.9659,0.913,0.8804,0.8804,0.8804,0.8804,0.8804,0.8804,0.8804,0.8804,0.8804,0.8804,0.8804,0.8804,0.8804,0.8804,0.8804,0.8804,0.8804,0.8804,0.8804,0.8804,0.951,0.9814,0.9814,1.0517,1.0568,0.0,1.1366,1.1566,1.1283,1.2471,1.2881,1.2881,1.2881,1.2881,1.2968,1.36,1.405,1.4514,1.532,1.5874,1.625,1.6363,1.6587,1.6795,1.6795,1.7003,1.725,1.7487,1.7281,1.7253,1.823,1.7806,1.7407,1.8171,1.7586,1.694,1.694,1.6806,1.6747,1.6952,1.7272,1.7549,1.7766,1.7811,1.7912,1.8183,1.8469,1.8645,1.8603,1.9597,1.985,1.8866,1.9682,2.0394,2.0823,2.1348,2.201,2.2851,2.2783,2.3081,2.3878,2.3896,2.3996,2.419,2.419,2.419,2.419,2.419,2.419,0.0,0.9139,0.7658,0.687,0.5675,0.4423,0.3704,0.3498,0.0,0.3453,0.4553,0.5706,0.6475,0.7182,0.7943,0.8725,0.8838,0.9138,1.0107,0.9597,0.9163,0.9183,0.8985,0.8804,0.8804,0.8804,0.8804,0.8804,0.8804,0.8804,0.8804,0.8804,0.8804,0.8804,0.8804,0.8804,0.8804,0.8804,0.8804,0.8804,0.8804,0.8804,0.891,0.9562,0.9917,0.9961,1.0669,1.0922,1.0914,1.1616,1.1832,1.185,1.2618,1.2881,1.2881,1.2881,1.2929,1.3065,1.3637,1.3909,1.4133,1.5276,1.5709,1.5825,1.6204,1.6717,1.7193,1.7234,1.7141,1.7214,1.7691,1.734,1.7031,1.7569,1.7623,1.7595,1.764,1.7426,1.7246,1.7275,1.7257,1.7256,1.7296,1.7549,1.7766,1.7789,1.7811,1.8048,1.8748,1.9189,1.9386,1.9291,2.035,2.0426,1.8873,1.9495,2.0398,2.1331,2.1223,2.206,2.4097,2.3896,2.3896,2.419,2.419,2.419,2.419,2.419,2.419,2.419,2.419,2.419,0.8984,0.0,0.9026,0.7759,0.7165,0.673,0.0,0.537,0.4992,0.4992,0.0,0.5706,0.6475,0.7182,0.8009,0.8934,0.9084,0.9213,0.9446,0.9153,0.8991,0.9157,0.8985,0.8804,0.8804,0.8804,0.8804,0.8804,0.8804,0.8804,0.8804,0.8804,0.8804,0.8804,0.8804,0.8804,0.8804,0.8804,0.8804,0.8804,0.8804,0.9061,0.9562,1.0261,1.0864,1.1366,1.2098,1.2098,1.1616,1.2344,1.2295,1.1882,1.2618,1.2881,1.2881,1.2881,1.319,1.3684,1.4294,1.4778,1.532,1.6051,1.6293,1.6317,1.6321,1.6127,1.5992,1.6281,1.665,1.6979,1.7084,1.6943,1.6897,1.753,1.6967,1.6458,1.7241,1.6928,1.6616,1.6886,1.6927,1.7002,1.7272,1.7368,1.7486,1.7749,1.7811,1.7929,1.8302,1.916,1.9544,1.9128,2.0608,2.1188,2.0133,2.1223,2.1798,2.1422,2.268,2.3652,2.419,2.4113,2.4113,2.419,2.419,2.419,2.419,2.419,2.419,2.419,2.419,2.419,0.8586,0.9061,0.9152,0.8421,0.7937,0.7616,0.7182,0.6253,0.0,0.0,0.0,0.5814,0.6907,0.7706,0.834,0.8903,0.9419,0.9667,0.9482,0.9312,0.9218,0.9183,0.8985,0.8804,0.8804,0.8804,0.8804,0.8804,0.8804,0.8804,0.8804,0.8804,0.8804,0.8804,0.8804,0.8804,0.8804,0.9113,0.9263,0.9263,0.9562,0.9917,1.0261,1.0965,1.1466,1.1814,1.2559,1.2666,1.2344,1.3035,1.2944,1.2425,1.3042,1.3344,1.3367,1.3301,1.3695,1.4283,1.4915,1.5511,1.6051,1.638,1.6503,1.6512,1.6612,1.6258,1.5882,1.6333,1.6621,1.6819,1.6819,1.6555,1.6383,1.6742,1.6426,1.6187,1.6709,1.6806,1.6825,1.7002,1.7428,1.7815,1.8009,1.8033,1.8098,1.8278,1.8438,1.8697,1.9195,2.0339,2.096,2.0642,2.1972,2.2409,2.1198,2.2465,2.2992,2.219,2.3088,2.3804,2.4171,2.419,2.419,2.419,2.419,2.419,2.419,2.419,2.419,2.419,2.419,2.419,0.8745,0.8857,0.8804,0.8804,0.8321,0.7883,0.7883,0.0,0.0,0.0,0.0,0.0,0.745,0.8315,0.8871,0.9017,0.9868,1.0302,0.9859,0.9852,0.9742,0.9425,0.9193,0.9113,0.9113,0.9008,0.9008,0.9113,0.891,0.891,0.9106,0.9008,0.9008,0.9113,0.9113,0.9113,0.9113,0.9562,0.9865,0.9961,1.0517,1.0864,1.0965,1.1566,1.1864,1.1972,1.2618,1.2978,1.3055,1.36,1.3594,1.3324,1.3761,1.3987,1.3994,1.3946,1.4329,1.4926,1.5543,1.6051,1.6522,1.6595,1.6628,1.6717,1.7123,1.674,1.6301,1.6747,1.6723,1.6562,1.6562,1.6189,1.5799,1.5856,1.608,1.6328,1.6421,1.6901,1.7353,1.75,1.8289,1.8927,1.9046,1.9063,1.9087,1.9134,1.9395,1.9821,2.0533,2.1789,2.2562,2.2415,2.3377,2.3456,2.2097,2.3235,2.3786,2.3235,2.318,2.3492,2.4171,2.419,2.419,2.419,2.419,2.419,2.419,2.419,2.419,2.419,2.419,2.419,0.9458,0.9211,0.8804,0.8804,0.8699,0.8646,0.8646,0.0,0.0,0.0,0.0,0.0,0.7557,0.8581,0.9493,1.0117,1.0854,1.107,1.0327,1.0455,1.0512,1.0176,1.0323,1.0517,1.0517,0.9961,0.9865,1.0466,0.9465,0.9309,1.0415,0.9961,0.9917,1.0466,1.0517,1.0517,1.0517,1.0012,1.0064,1.0669,1.0762,1.1116,1.1665,1.1765,1.2138,1.2725,1.2832,1.319,1.3684,1.3779,1.4054,1.446,1.4538,1.4562,1.4597,1.4584,1.496,1.5543,1.6151,1.6423,1.6552,1.7034,1.7177,1.7236,1.766,1.7298,1.6776,1.6745,1.6353,1.5948,1.5948,1.5873,1.5885,1.6163,1.6274,1.6448,1.701,1.7224,1.7574,1.8471,1.8785,1.9096,1.9714,1.9816,1.994,2.0211,2.0304,2.0565,2.1193,2.205,2.2422,2.1953,2.2685,2.3088,2.285,2.3052,2.3419,2.3988,2.4025,2.4061,2.419,2.419,2.419,2.419,2.419,2.419,2.419,2.419,2.419,2.419,2.419,2.419,0.971,0.9865,0.9865,0.9865,0.9361,0.8804,0.8804,0.8209,0.0,0.0,0.0,0.0,0.8156,0.9288,1.0438,1.135,1.1428,1.126,1.0885,1.0954,1.0946,1.0609,1.0716,1.0813,1.0813,1.0517,1.0466,1.0762,1.0218,1.0167,1.0771,1.0517,1.0466,1.0813,1.0813,1.0965,1.1366,1.1015,1.1065,1.1366,1.1733,1.2098,1.2393,1.2393,1.2559,1.2929,1.3238,1.3552,1.3862,1.4492,1.4767,1.4783,1.5081,1.5213,1.5274,1.5548,1.6039,1.6502,1.6497,1.6879,1.7353,1.7312,1.745,1.7644,1.7847,1.7383,1.6784,1.6724,1.6278,1.5799,1.5799,1.5926,1.6123,1.6274,1.6891,1.7533,1.7839,1.8037,1.8306,1.8802,1.9215,1.9653,2.0189,2.0607,2.0987,2.1324,2.152,2.1736,2.1998,2.288,2.336,2.3125,2.3437,2.3657,2.3657,2.3657,2.3804,2.4171,2.419,2.419,2.419,2.419,2.419,2.419,2.419,2.419,2.419,2.419,2.419,2.419,2.419,2.419,1.0167,1.0517,1.0864,1.1015,0.0,0.9263,0.9263,0.8823,0.856,0.0,0.8573,0.8328,0.8784,1.0091,1.1403,1.2418,1.2175,1.1703,1.1452,1.1557,1.1498,1.1099,1.1174,1.1275,1.1275,1.1124,1.1124,1.1275,1.0973,1.0922,1.1275,1.1124,1.1116,1.1275,1.1275,1.1534,1.203,1.208,1.208,1.208,1.2618,1.2881,1.2881,1.3065,1.3104,1.3152,1.3742,1.4097,1.4272,1.5231,1.5449,1.5247,1.5664,1.585,1.5944,1.6358,1.6676,1.6894,1.6744,1.7137,1.7716,1.7706,1.7866,1.8144,1.8107,1.7585,1.7014,1.6864,1.6576,1.6222,1.5972,1.6271,1.6651,1.6559,1.7613,1.8649,1.8534,1.8859,1.9164,1.9164,1.9773,2.0382,2.0714,2.1368,2.1993,2.2411,2.2686,2.2888,2.2968,2.369,2.419,2.419,2.419,2.419,2.419,2.419,2.419,2.419,2.419,2.419,2.419,2.4247,2.4266,2.4266,2.4266,2.4284,2.4339,2.4284,2.4266,2.4266,2.4266,2.4266,1.1316,1.1266,1.0965,1.1566,1.1166,1.0661,1.0661,1.061,0.0,0.9865,0.9658,0.9544,0.9207,1.0619,1.2158,1.3246,1.3352,1.2985,1.1913,1.2342,1.2539,1.1823,1.2353,1.2774,1.2774,1.2138,1.203,1.2715,1.1534,1.1384,1.2666,1.2089,1.203,1.2725,1.2774,1.2774,1.2822,1.2822,1.2822,1.2822,1.2881,1.2881,1.2929,1.3457,1.3732,1.3779,1.4376,1.4971,1.5499,1.5543,1.5884,1.6373,1.6411,1.6454,1.6459,1.6509,1.6195,1.5942,1.6922,1.6956,1.6861,1.8299,1.8812,1.8795,1.8693,1.8394,1.7992,1.742,1.7474,1.7507,1.6538,1.7027,1.7679,1.7322,1.835,1.9323,1.8932,1.9427,1.9917,1.9917,2.0568,2.1207,2.1468,2.2123,2.2835,2.3494,2.362,2.3726,2.404,2.4153,2.419,2.419,2.419,2.419,2.419,2.419,2.419,2.419,2.419,2.419,2.419,2.4375,2.4478,2.4478,2.4478,2.4559,2.476,2.4559,2.4478,2.4478,2.4478,2.4478,1.1566,1.1931,1.2157,1.2403,1.2304,0.0,0.0,1.0813,1.072,1.0466,1.0415,1.0506,1.0788,1.1386,1.2118,1.2986,1.3125,1.3007,1.2529,1.2715,1.2774,1.251,1.2715,1.2881,1.2881,1.2666,1.2608,1.2881,1.2412,1.2363,1.2881,1.2618,1.2608,1.2881,1.2881,1.2754,1.248,1.3145,1.3134,1.2538,1.3144,1.3647,1.4025,1.4247,1.4376,1.4376,1.5005,1.541,1.5632,1.6008,1.6281,1.6522,1.6522,1.6522,1.6522,1.6522,1.678,1.721,1.7274,1.7836,1.8539,1.8806,1.8855,1.8756,1.8708,1.852,1.8269,1.8051,1.841,1.8648,1.7577,1.7754,1.8189,1.8012,1.8926,1.9773,1.963,2.0196,2.0654,2.0318,2.048,2.0863,2.1373,2.2096,2.2883,2.3864,2.4016,2.4054,2.417,2.419,2.419,2.419,2.419,2.419,2.419,2.419,2.419,2.419,2.419,2.419,2.419,2.4393,2.4495,2.4495,2.4623,2.4731,2.4804,2.4731,2.4685,2.4685,2.4685,2.4685,1.2199,1.2638,1.2978,1.3152,0.0,0.0,1.1692,1.1484,1.1384,1.1166,1.1006,1.1158,1.1692,1.1872,1.2136,1.2793,1.2881,1.2881,1.2881,1.3055,1.32,1.32,1.3334,1.3382,1.32,1.32,1.3104,1.2929,1.2881,1.2881,1.2881,1.2881,1.2881,1.2881,1.2926,1.2708,1.218,1.3082,1.3309,1.2883,1.3705,1.4247,1.4474,1.4812,1.4971,1.5017,1.5644,1.5864,1.5908,1.6324,1.6522,1.6522,1.668,1.6752,1.6752,1.6951,1.7356,1.7843,1.7799,1.8408,1.9146,1.8899,1.8933,1.8961,1.8676,1.8731,1.8856,1.877,1.937,1.9864,1.9137,1.9102,1.9225,1.8976,1.99,2.079,2.0551,2.1199,2.166,2.1033,2.1115,2.1404,2.1704,2.2395,2.318,2.4059,2.419,2.419,2.419,2.419,2.419,2.419,2.419,2.419,2.419,2.419,2.4228,2.4284,2.4284,2.4284,2.4284,2.4495,2.4604,2.4666,2.478,2.4896,2.4968,2.4896,2.485,2.485,2.485,2.485,1.3426,1.3372,1.3065,1.3637,0.0,0.0,1.2929,1.2929,1.2715,1.1972,1.1567,1.1452,1.1787,1.2106,1.2474,1.2842,1.2929,1.2929,1.2929,1.342,1.3815,1.3815,1.4329,1.4468,1.3873,1.3815,1.3552,1.2968,1.2929,1.2929,1.2929,1.2929,1.2929,1.2929,1.2981,1.2746,1.2227,1.2754,1.3382,1.41,1.4584,1.4499,1.3948,1.5087,1.5632,1.5632,1.6238,1.6522,1.6522,1.6522,1.6522,1.6552,1.7076,1.7312,1.7394,1.7907,1.7758,1.7479,1.8512,1.8563,1.8185,1.8599,1.9151,1.9542,1.867,1.9137,1.9869,1.9586,2.0331,2.1221,2.1221,2.1221,2.1017,2.0213,2.137,2.2487,2.1767,2.2446,2.2982,2.226,2.2681,2.3074,2.2664,2.3211,2.3816,2.4151,2.419,2.419,2.419,2.419,2.419,2.419,2.419,2.419,2.419,2.419,2.4284,2.4495,2.4512,2.4512,2.4512,2.47,2.485,2.4998,2.501,2.5099,2.5303,2.5099,2.501,2.501,2.501,2.501,1.3569,1.3967,1.4201,1.4376,1.4294,1.4165,0.0,1.3525,0.0,1.315,1.346,1.3703,1.3815,1.391,1.401,1.4129,1.4165,1.4165,1.4165,1.434,1.4422,1.4422,1.4606,1.4606,1.4468,1.4422,1.434,1.4165,1.4165,1.4165,1.4165,1.4165,1.4165,1.4165,1.4198,1.3958,1.3553,1.4007,1.4029,1.3548,1.4444,1.518,1.5745,1.6077,1.6238,1.6238,1.6423,1.6522,1.6522,1.6522,1.671,1.7076,1.7229,1.7544,1.7867,1.8027,1.8229,1.8484,1.8783,1.9228,1.9665,1.9783,2.0159,2.0569,2.0321,2.0651,2.107,2.1006,2.1473,2.1972,2.1972,2.2112,2.2065,2.1325,2.1554,2.192,2.1931,2.2611,2.3046,2.2497,2.2554,2.2749,2.2865,2.3068,2.3434,2.4097,2.419,2.419,2.419,2.419,2.419,2.419,2.4339,2.441,2.441,2.4545,2.4639,2.47,2.4716,2.4716,2.4716,2.4864,2.4962,2.501,2.5141,2.5234,2.5303,2.5253,2.5214,2.5214,2.5214,2.5214,1.3993,1.4422,1.4789,1.5264,1.505,1.4698,1.4698,1.4165,1.3695,1.4097,1.4468,1.4698,1.4698,1.4698,1.4698,1.4698,1.4698,1.4698,1.4698,1.4926,1.505,1.505,1.5287,1.5332,1.5062,1.505,1.4971,1.4709,1.4698,1.4698,1.4698,1.4698,1.4698,1.4698,1.4744,1.4538,1.4123,1.4393,1.4217,1.3617,1.4286,1.5054,1.5869,1.5869,1.5982,1.6208,1.6621,1.6837,1.6837,1.7034,1.7353,1.7626,1.7867,1.8145,1.8458,1.865,1.893,1.9207,1.9207,1.9687,2.0268,2.002,2.0412,2.0975,2.0873,2.1217,2.1658,2.1823,2.2077,2.2321,2.2426,2.2573,2.2574,2.2123,2.224,2.2475,2.2696,2.3181,2.3505,2.3238,2.3168,2.3246,2.3436,2.3492,2.3639,2.4135,2.419,2.419,2.419,2.419,2.4228,2.4321,2.4445,2.4545,2.4607,2.4731,2.4814,2.4883,2.4877,2.4923,2.5006,2.5005,2.5034,2.5111,2.5253,2.5303,2.5303,2.5303,2.5303,2.5303,2.5303,2.5303,1.4514,1.4789,1.5096,1.6219,1.574,1.5005,1.5005,1.5005,1.496,1.4789,1.4846,1.488,1.488,1.488,1.488,1.488,1.488,1.488,1.488,1.532,1.5676,1.5676,1.6194,1.6281,1.5732,1.5676,1.5454,1.4926,1.488,1.488,1.488,1.488,1.488,1.488,1.4896,1.4681,1.4252,1.4167,1.4088,1.4105,1.4026,1.4274,1.4765,1.4916,1.5281,1.5916,1.6896,1.7353,1.7435,1.7907,1.8145,1.8224,1.8688,1.893,1.9043,1.953,1.969,1.969,1.969,2.0,2.0289,1.9731,2.0273,2.1068,2.0825,2.1189,2.179,2.222,2.2349,2.2426,2.2686,2.2772,2.2797,2.2797,2.3277,2.3714,2.3735,2.3996,2.419,2.419,2.419,2.419,2.419,2.419,2.419,2.419,2.419,2.4209,2.4228,2.4228,2.4303,2.4512,2.4526,2.4623,2.4799,2.4847,2.4896,2.5022,2.5022,2.5111,2.5284,2.5111,2.5111,2.5303,2.5303,2.5303,2.5303,2.5303,2.5303,2.5303,2.5303,2.5303,1.4503,1.5377,1.6269,1.6925,1.7231,1.7382,1.7382,1.7382,1.6998,1.5664,1.5776,1.6107,1.6107,1.6107,1.6107,1.6107,1.6107,1.6107,1.6107,1.6238,1.6293,1.6293,1.6423,1.6466,1.6337,1.6293,1.6238,1.6107,1.6107,1.6107,1.6107,1.6107,1.6107,1.6107,1.5719,1.5447,1.5352,1.4525,1.4099,1.4088,1.3624,1.3436,1.3599,1.4927,1.6051,1.6977,1.7218,1.7544,1.7947,1.8066,1.8341,1.8727,1.8855,1.9169,1.953,1.9639,1.969,1.969,1.969,2.0208,2.083,2.0703,2.1271,2.2015,2.195,2.2173,2.2485,2.2582,2.2789,2.3014,2.3069,2.33,2.3482,2.3482,2.3606,2.3774,2.4054,2.4151,2.419,2.419,2.419,2.419,2.419,2.419,2.419,2.419,2.419,2.4266,2.4428,2.4445,2.4512,2.4716,2.4836,2.4911,2.4949,2.5096,2.5192,2.5224,2.5243,2.5264,2.5303,2.5264,2.5264,2.5303,2.5303,2.5303,2.5303,2.5303,2.5303,2.5303,2.5303,2.5303,1.4466,1.5564,1.6653,1.7522,1.7923,1.8106,1.8106,1.8106,1.7854,1.697,1.6841,1.6795,1.6552,1.6522,1.6522,1.6522,1.6522,1.6522,1.6522,1.6522,1.6595,1.6837,1.6879,1.6993,1.7229,1.7271,1.7271,1.7271,1.7271,1.7271,1.7271,1.7034,1.6751,1.6522,1.5995,1.5567,1.5304,1.4765,1.4475,1.4475,1.4428,1.4667,1.5193,1.5542,1.6284,1.7341,1.7863,1.8224,1.8468,1.8412,1.8557,1.8789,1.8789,1.8983,1.9256,1.957,1.9818,2.0,2.0,2.0565,2.1275,2.1275,2.1751,2.231,2.231,2.2473,2.2695,2.2695,2.2947,2.3253,2.3392,2.3566,2.3735,2.3896,2.3937,2.3996,2.417,2.419,2.419,2.419,2.419,2.419,2.419,2.419,2.4228,2.4339,2.4339,2.4428,2.4607,2.4639,2.4697,2.4877,2.4962,2.5034,2.5141,2.5253,2.5303,2.5303,2.5303,2.5303,2.5303,2.5303,2.5303,2.5303,2.5303,2.5303,2.5303,2.5303,2.5303,2.5303,2.5303,2.5303,1.4174,1.5533,1.6932,1.8079,1.8357,1.8416,1.8534,1.8528,1.843,1.8249,1.7827,1.7271,1.6752,1.6637,1.6595,1.6522,1.6522,1.6522,1.6637,1.6637,1.6837,1.7394,1.7422,1.7626,1.8066,1.8106,1.8106,1.8106,1.8106,1.8106,1.8106,1.7666,1.725,1.6796,1.627,1.5774,1.5312,1.521,1.5197,1.5197,1.562,1.6341,1.725,1.6459,1.6633,1.7614,1.8498,1.891,1.884,1.8737,1.8642,1.8538,1.8538,1.8612,1.8777,1.9421,1.9943,2.0314,2.0382,2.0943,2.1582,2.1582,2.1928,2.231,2.2377,2.2581,2.2797,2.2873,2.3117,2.3455,2.3714,2.3795,2.3876,2.4113,2.419,2.419,2.419,2.419,2.419,2.419,2.419,2.419,2.419,2.4228,2.4303,2.4478,2.4528,2.4623,2.4799,2.4828,2.4877,2.5053,2.5046,2.5111,2.5293,2.5303,2.5303,2.5303,2.5303,2.5303,2.5303,2.5303,2.5313,2.5322,2.5322,2.5322,2.5322,2.5322,2.5322,2.5322,2.5313,2.5303,1.3093,1.5605,1.7899,1.8791,1.9235,1.9634,2.0239,2.0158,1.9763,1.8954,1.838,1.7827,1.7312,1.7188,1.7034,1.6595,1.6522,1.668,1.7105,1.7188,1.7394,1.7947,1.7987,1.8027,1.8106,1.8106,1.8106,1.8106,1.8106,1.8106,1.8106,1.8027,1.7946,1.7903,1.7356,1.7054,1.6972,1.6523,1.6297,1.6297,1.6368,1.6656,1.715,1.7576,1.81,1.8688,1.8849,1.8812,1.8718,1.8713,1.8373,1.7817,1.7817,1.8208,1.8751,1.9265,1.9801,2.0348,2.0764,2.1213,2.1582,2.1582,2.1928,2.2349,2.2642,2.2908,2.3189,2.3482,2.3816,2.4074,2.4113,2.4113,2.4133,2.419,2.419,2.419,2.419,2.419,2.419,2.419,2.419,2.419,2.419,2.4339,2.4461,2.4495,2.4639,2.4814,2.4949,2.4974,2.5053,2.5253,2.5264,2.5274,2.5303,2.5303,2.5303,2.5303,2.5303,2.5303,2.5303,2.5303,2.5321,2.5391,2.5391,2.5383,2.5395,2.5395,2.5395,2.5395,2.534,2.5303,1.338,1.5778,1.7664,1.8642,1.9374,1.9892,2.0103,2.0526,2.0639,1.9854,1.9728,1.9324,1.7999,1.7747,1.7666,1.7422,1.7394,1.7463,1.7706,1.7747,1.7947,1.8496,1.8535,1.865,1.8968,1.9006,1.9006,1.9006,1.9006,1.9006,1.9006,1.8688,1.8418,1.8101,1.7572,1.7154,1.6842,1.6912,1.7231,1.7839,1.7448,1.7726,1.8549,1.8475,1.8558,1.8788,1.8788,1.8747,1.8642,1.7876,1.7623,1.7697,1.7697,1.8283,1.917,1.969,2.0397,2.107,2.1275,2.1628,2.2003,2.2003,2.2226,2.2537,2.2704,2.3087,2.3522,2.3671,2.3937,2.419,2.419,2.419,2.419,2.419,2.419,2.419,2.419,2.419,2.419,2.419,2.419,2.4247,2.4339,2.4426,2.4575,2.4747,2.4864,2.4981,2.5152,2.5163,2.5203,2.5284,2.5303,2.5303,2.5303,2.5303,2.5303,2.5303,2.5303,2.5322,2.5346,2.5365,2.5383,2.5446,2.5415,2.5415,2.5459,2.5415,2.5406,2.5398,2.5321,2.5303,1.3469,1.5437,1.6896,1.8363,1.9316,1.9897,2.0158,2.085,2.1288,2.0671,2.0875,2.0684,1.9104,1.8646,1.8391,1.8131,1.8106,1.8145,1.8302,1.8405,1.866,1.92,1.9346,1.9579,1.998,2.0015,2.0015,2.0015,1.9909,1.9839,1.9839,1.9391,1.8914,1.8519,1.8114,1.7703,1.732,1.7689,1.8307,1.908,1.8615,1.8737,1.942,1.9091,1.8777,1.8463,1.8627,1.8702,1.8612,1.7428,1.7249,1.7715,1.7844,1.8495,1.948,2.0128,2.091,2.1628,2.1718,2.2003,2.231,2.231,2.2473,2.2721,2.2797,2.3253,2.3714,2.3795,2.4016,2.419,2.419,2.419,2.419,2.419,2.4247,2.4247,2.4209,2.4247,2.4266,2.4266,2.4321,2.441,2.4561,2.4588,2.4708,2.4955,2.5034,2.5141,2.5274,2.5303,2.5303,2.5303,2.5303,2.5303,2.5303,2.5303,2.5303,2.5303,2.5313,2.5357,2.5398,2.5427,2.5459,2.5511,2.5482,2.5471,2.5493,2.5459,2.5415,2.5398,2.533,2.5418,1.2711,1.4202,1.5666,1.825,1.9317,2.0047,2.1323,2.1796,2.1827,2.1361,2.1423,2.143,2.0943,2.0112,1.9207,1.8249,1.8106,1.8302,1.8779,1.9222,1.9692,2.0162,2.0616,2.0894,2.0926,2.0926,2.0926,2.0926,2.0516,2.028,2.028,1.9874,1.9639,1.963,1.9594,1.9579,1.9534,1.9579,1.9609,1.9639,1.9609,1.9331,1.8777,1.9361,1.8957,1.7772,1.8433,1.8702,1.8657,1.7921,1.7652,1.7747,1.8192,1.8796,1.9514,2.0283,2.1035,2.1658,2.2106,2.2282,2.231,2.231,2.2473,2.2772,2.3069,2.3414,2.3774,2.4094,2.419,2.419,2.419,2.419,2.419,2.419,2.4358,2.4426,2.4247,2.4339,2.4478,2.4478,2.4639,2.4775,2.479,2.4891,2.4986,2.501,2.5163,2.5303,2.5303,2.5303,2.5303,2.5303,2.5303,2.5303,2.5303,2.5303,2.5303,2.5303,2.5354,2.5391,2.5398,2.5465,2.5535,2.5598,2.5598,2.5558,2.5493,2.5508,2.5451,2.5406,2.533,2.5726,1.0697,1.3061,1.5339,1.6127,1.8009,1.9842,2.0288,2.1381,2.2156,2.1827,2.2021,2.2079,2.1481,2.0651,1.9939,1.957,1.9288,1.9303,1.9743,1.9954,2.023,2.0682,2.0894,2.0991,2.0991,2.0991,2.0991,2.0991,2.0829,2.0764,2.0764,2.0599,2.0398,2.0089,2.0089,1.9965,1.969,1.969,1.969,1.969,1.969,1.9555,1.9346,1.957,1.9196,1.8358,1.8933,1.8715,1.8059,1.8126,1.8406,1.8837,1.9248,1.9968,2.0841,2.1144,2.1562,2.2061,2.2237,2.231,2.231,2.231,2.2634,2.3045,2.3165,2.3588,2.4054,2.417,2.419,2.419,2.419,2.4303,2.4428,2.4543,2.4639,2.467,2.4591,2.4639,2.4685,2.4685,2.4746,2.4828,2.4917,2.4974,2.5034,2.5163,2.5253,2.5303,2.5303,2.5303,2.5303,2.5303,2.5303,2.5303,2.5303,2.5303,2.5303,2.5303,2.5363,2.5415,2.5465,2.5535,2.5598,2.5661,2.5661,2.5633,2.5561,2.5531,2.5471,2.5398,2.533,2.5774,0.9339,1.1516,1.3615,1.4651,1.6724,1.8721,1.9515,2.0957,2.2079,2.2019,2.2327,2.2437,2.1927,2.1228,2.0699,2.055,2.0296,2.0243,2.0483,2.0634,2.0846,2.115,2.1354,2.1432,2.1432,2.1432,2.1432,2.1432,2.1291,2.1213,2.1213,2.1055,2.0797,2.0314,2.0314,2.0089,1.9711,1.969,1.969,1.969,1.969,1.969,1.969,1.969,1.9436,1.894,1.9487,1.9177,1.8305,1.8765,1.9311,1.9972,2.0395,2.0975,2.1628,2.1794,2.2032,2.231,2.231,2.231,2.231,2.231,2.2712,2.3189,2.3189,2.3671,2.419,2.419,2.419,2.4209,2.4284,2.4444,2.4654,2.4809,2.4869,2.4896,2.4949,2.491,2.4869,2.4869,2.4923,2.5,2.5077,2.5099,2.5152,2.5274,2.5303,2.5303,2.5303,2.5303,2.5303,2.5303,2.5303,2.5303,2.5303,2.5303,2.5303,2.533,2.5398,2.5451,2.5539,2.5601,2.5659,2.5703,2.5703,2.5659,2.5564,2.5511,2.5459,2.5363,2.5322,2.5928,0.0,0.0,0.0,1.3904,1.5416,1.67,1.9092,2.0557,2.15,2.1919,2.2293,2.2516,2.2343,2.1928,2.1521,2.1118,2.1023,2.0991,2.1039,2.1337,2.1628,2.1628,2.2032,2.231,2.231,2.231,2.231,2.231,2.1899,2.1612,2.1612,2.1244,2.0829,2.0348,2.0314,2.0124,1.9711,1.9726,1.969,1.969,1.969,1.969,1.969,1.9711,1.9596,1.9432,2.0069,1.9976,1.9482,1.9891,2.0445,2.1055,2.146,2.1612,2.1688,2.2135,2.231,2.231,2.231,2.231,2.2293,2.2321,2.2738,2.3212,2.3212,2.3671,2.419,2.419,2.419,2.4247,2.4462,2.4654,2.4842,2.4974,2.501,2.5057,2.5264,2.5152,2.501,2.501,2.5163,2.5303,2.5303,2.5303,2.5303,2.5303,2.5303,2.5303,2.5303,2.5303,2.5303,2.5303,2.5303,2.5303,2.5303,2.5293,2.5321,2.5391,2.5451,2.5539,2.5601,2.5661,2.5703,2.5703,2.5703,2.5634,2.5493,2.5493,2.5428,2.5303,2.5341,2.6294,0.7088,0.0,0.0,0.0,0.0,0.0,1.7859,1.878,1.9574,2.1232,2.1599,2.1711,2.2094,2.2296,2.2441,2.2565,2.1694,2.1086,2.1399,2.1521,2.1735,2.2077,2.2209,2.231,2.231,2.231,2.231,2.231,2.218,2.2106,2.2106,2.1675,2.1368,2.1259,2.0634,2.0246,2.0124,1.9839,1.969,1.969,1.969,1.969,1.9726,2.0,1.9873,1.9465,2.0702,2.0854,2.0313,2.0923,2.1266,2.146,2.1928,2.2106,2.2106,2.2237,2.231,2.2321,2.2527,2.2599,2.2625,2.2883,2.323,2.3566,2.3566,2.3876,2.419,2.419,2.419,2.4284,2.4623,2.4823,2.4993,2.5163,2.5214,2.5224,2.5303,2.5264,2.5214,2.5214,2.5264,2.5303,2.5303,2.5303,2.5303,2.5303,2.5303,2.5303,2.5303,2.5303,2.5303,2.5303,2.5303,2.5303,2.5303,2.5337,2.5376,2.5406,2.5517,2.557,2.5601,2.5661,2.5703,2.5703,2.5703,2.566,2.5567,2.5511,2.5428,2.5322,2.6601,2.7755,0.6004,0.7166,0.8607,1.0228,0.0,0.0,1.6079,1.7456,1.8636,2.0184,2.1065,2.1631,2.2035,2.2426,2.2822,2.3141,2.2487,2.1995,2.2235,2.2279,2.2378,2.2634,2.2554,2.2517,2.266,2.2588,2.248,2.2463,2.2463,2.2426,2.231,2.2032,2.1794,2.1628,2.0943,2.0483,2.0314,1.9909,1.969,1.969,1.969,1.9782,1.9965,2.0177,2.0297,2.0384,2.122,2.1486,2.1356,2.1716,2.1899,2.1928,2.218,2.231,2.231,2.231,2.236,2.2473,2.2634,2.2797,2.2947,2.3141,2.3414,2.3692,2.3692,2.3937,2.419,2.419,2.4321,2.4512,2.4746,2.4975,2.5152,2.5274,2.5303,2.5303,2.5303,2.5303,2.5303,2.5303,2.5303,2.5303,2.5303,2.5303,2.5303,2.5303,2.5303,2.5303,2.5303,2.5303,2.5303,2.5303,2.5303,2.5313,2.5348,2.5376,2.5421,2.5473,2.5558,2.5607,2.5636,2.5683,2.5703,2.5703,2.5703,2.5662,2.5601,2.5561,2.5651,2.5927,2.7653,2.8685,0.558,0.5905,0.0,0.8854,0.9993,0.0,1.4022,1.6182,1.7825,1.8678,2.0232,2.1547,2.1811,2.2247,2.2745,2.3218,2.331,2.3305,2.3212,2.3189,2.3224,2.3313,2.307,2.2995,2.3289,2.3122,2.2911,2.2772,2.2721,2.2573,2.2293,2.231,2.2106,2.1688,2.1275,2.0862,2.0434,2.0035,1.9854,1.9854,1.9854,2.0035,2.0382,2.04,2.0862,2.1582,2.1658,2.1899,2.231,2.231,2.231,2.231,2.231,2.231,2.231,2.2321,2.25,2.2721,2.2797,2.3021,2.3259,2.33,2.3522,2.3774,2.3774,2.3958,2.419,2.419,2.4495,2.4804,2.4804,2.5056,2.5303,2.5303,2.5303,2.5303,2.5303,2.5303,2.5303,2.5303,2.5303,2.5303,2.5303,2.5303,2.5293,2.5303,2.5313,2.5313,2.5331,2.5313,2.5313,2.5331,2.5313,2.5339,2.542,2.5427,2.5477,2.5598,2.5605,2.5636,2.5703,2.5703,2.5703,2.5703,2.5801,2.5818,2.5763,2.5737,2.6115,2.6885,2.8473,2.9226,0.6928,0.6867,0.7028,0.9169,0.9406,0.0,1.2446,1.3491,1.4291,1.5785,1.7148,1.8521,1.9986,2.1187,2.2383,2.3635,2.4081,2.3985,2.3305,2.3189,2.3436,2.4098,2.412,2.4078,2.4169,2.412,2.3806,2.3146,2.2848,2.2573,2.2293,2.231,2.2254,2.218,2.1735,2.143,2.1352,2.0959,2.0731,2.0731,2.0731,2.0797,2.0862,2.1197,2.146,2.1612,2.2003,2.2209,2.231,2.231,2.231,2.231,2.231,2.231,2.2338,2.2537,2.266,2.2772,2.3323,2.3544,2.3649,2.3917,2.4054,2.4094,2.4094,2.4151,2.419,2.419,2.4495,2.4804,2.4804,2.5056,2.5303,2.5303,2.5303,2.5303,2.5303,2.5303,2.5303,2.5303,2.5303,2.5303,2.5303,2.5303,2.5322,2.5368,2.5376,2.5398,2.5459,2.5401,2.5406,2.5459,2.5401,2.5413,2.5463,2.5535,2.5567,2.5601,2.5658,2.5683,2.5703,2.5703,2.5703,2.5703,2.6387,2.6738,2.6737,2.6624,2.6997,2.7853,2.8776,2.956,0.6993,0.6942,0.6989,0.7943,0.8159,0.0,0.0,1.1318,1.2456,1.3508,1.4929,1.6418,1.7852,1.9296,2.0813,2.2531,2.3451,2.4098,2.4578,2.4266,2.4261,2.4978,2.4996,2.5099,2.547,2.5109,2.4379,2.3265,2.2898,2.2573,2.2293,2.231,2.231,2.231,2.1823,2.1582,2.1582,2.1213,2.0991,2.0991,2.0991,2.1118,2.1306,2.1491,2.1735,2.1957,2.2209,2.231,2.231,2.231,2.231,2.231,2.231,2.2388,2.2527,2.266,2.2923,2.3253,2.3588,2.3816,2.3976,2.4151,2.419,2.419,2.419,2.4266,2.4375,2.4461,2.4697,2.4904,2.4904,2.5096,2.5303,2.5303,2.5303,2.5303,2.5303,2.5303,2.5303,2.5303,2.534,2.5357,2.5357,2.5357,2.5379,2.5441,2.5453,2.5465,2.5508,2.5477,2.5471,2.5508,2.5477,2.5482,2.5547,2.557,2.5607,2.5658,2.5683,2.5703,2.5703,2.5703,2.5898,2.6348,2.7207,2.7656,2.7656,2.8018,2.8405,2.8825,2.9596,3.0153,0.7067,0.7075,0.7027,0.7014,0.7213,0.7557,0.0,0.0,0.0,1.115,1.2622,1.4204,1.5178,1.6744,1.857,2.0692,2.2184,2.3803,2.5773,2.5532,2.5418,2.6178,2.601,2.6149,2.689,2.6002,2.4807,2.3399,2.2996,2.266,2.2388,2.2321,2.231,2.231,2.1928,2.1718,2.1718,2.1415,2.126,2.126,2.126,2.1415,2.1718,2.1718,2.1928,2.231,2.231,2.231,2.231,2.231,2.2321,2.236,2.2321,2.2463,2.2721,2.2772,2.3165,2.3714,2.3774,2.3976,2.419,2.419,2.4228,2.4266,2.4266,2.441,2.4591,2.476,2.4891,2.501,2.501,2.5152,2.5303,2.5303,2.5303,2.5303,2.5303,2.5303,2.5322,2.5322,2.5379,2.542,2.5398,2.5413,2.5441,2.5517,2.5526,2.5511,2.5543,2.5535,2.5511,2.5543,2.5535,2.5551,2.5607,2.5629,2.5637,2.5703,2.5703,2.5781,2.5937,2.6113,2.6523,2.7246,2.8105,2.8555,2.8555,2.9434,2.9743,2.9533,3.0328,3.0633,0.868,0.8251,0.7758,0.8381,0.761,0.6912,0.7586,0.0,0.8066,0.809,0.0,1.0483,1.1453,0.0,0.0,1.8501,2.0704,2.295,2.5476,2.6161,2.6868,2.8131,2.758,2.7399,2.8209,2.6686,2.5116,2.3728,2.3346,2.2996,2.2686,2.2426,2.231,2.231,2.2254,2.2209,2.2209,2.218,2.2152,2.2152,2.2152,2.218,2.2209,2.2209,2.2237,2.231,2.231,2.231,2.231,2.231,2.2436,2.2634,2.2371,2.2463,2.2746,2.3045,2.3392,2.3735,2.4036,2.417,2.419,2.419,2.4321,2.4461,2.4461,2.4607,2.4775,2.479,2.4891,2.501,2.501,2.5152,2.5303,2.5303,2.5303,2.5303,2.5303,2.5357,2.5391,2.5383,2.5441,2.5477,2.5413,2.5453,2.5503,2.557,2.5595,2.5605,2.5662,2.5631,2.5607,2.5662,2.5611,2.5627,2.5683,2.5683,2.5683,2.5703,2.5703,2.6055,2.6816,2.7598,2.8047,2.8144,2.9004,2.9453,2.9453,3.0332,3.0351,2.9609,3.0357,3.069,0.8844,0.8678,0.8246,0.779,0.7218,0.6607,0.6104,0.6258,0.6548,0.6416,0.0,0.0,0.0,0.0,0.0,0.0,1.7512,2.0408,2.3596,2.4439,2.5739,2.8412,2.8505,2.8376,2.8496,2.7208,2.6041,2.5149,2.4109,2.349,2.3467,2.2858,2.2463,2.231,2.231,2.231,2.231,2.231,2.231,2.231,2.231,2.231,2.231,2.231,2.231,2.231,2.231,2.231,2.231,2.231,2.2463,2.2695,2.259,2.2857,2.33,2.3437,2.3692,2.4016,2.4151,2.419,2.4209,2.4339,2.4512,2.47,2.4766,2.4845,2.4943,2.5068,2.5118,2.5173,2.5173,2.5243,2.5303,2.5303,2.5321,2.5354,2.5363,2.5408,2.5465,2.5465,2.5503,2.5551,2.5526,2.5543,2.5573,2.5658,2.566,2.5662,2.5703,2.5682,2.5662,2.5703,2.5662,2.5662,2.5703,2.5703,2.5703,2.5703,2.6172,2.6855,2.7715,2.8594,2.9043,2.9043,2.9902,3.0351,3.0351,3.0723,3.0703,3.0351,3.0661,3.0771,0.8905,0.8871,0.8545,0.7471,0.7017,0.6563,0.532,0.5262,0.5449,0.5318,0.5104,0.0,0.0,0.0,0.8437,1.1261,0.0,1.7832,2.1564,2.2513,2.4229,2.8017,2.8841,2.8908,2.8435,2.7679,2.6949,2.6277,2.5077,2.43,2.4112,2.3458,2.2814,2.231,2.231,2.231,2.231,2.231,2.231,2.231,2.231,2.231,2.231,2.231,2.231,2.231,2.2388,2.2398,2.2426,2.2508,2.2721,2.2972,2.2972,2.3346,2.3816,2.3735,2.3917,2.419,2.419,2.4247,2.4303,2.4444,2.4651,2.4864,2.4974,2.5034,2.5111,2.5264,2.5303,2.5303,2.5303,2.5303,2.5303,2.5303,2.5337,2.5398,2.5413,2.5477,2.5535,2.5535,2.5573,2.5633,2.5633,2.5633,2.5637,2.5683,2.5703,2.5703,2.5703,2.5703,2.5703,2.5703,2.5703,2.5703,2.5703,2.5703,2.5801,2.6035,2.7109,2.8008,2.8633,2.9492,2.9961,2.9961,3.0586,3.0898,3.0898,3.0898,3.0898,3.0898,3.0898,3.0857,0.9097,0.9018,0.8652,0.8029,0.7357,0.6677,0.594,0.5204,0.4745,0.4742,0.4036,0.3538,0.3651,0.4836,0.6473,0.0,1.1947,0.0,0.0,2.0955,2.2936,2.7139,2.8502,2.8856,2.8184,2.8072,2.7657,2.6649,2.6241,2.5548,2.4435,2.4112,2.3453,2.2344,2.231,2.231,2.231,2.231,2.231,2.231,2.231,2.231,2.231,2.231,2.231,2.2293,2.2573,2.2695,2.2721,2.3045,2.3369,2.3671,2.3671,2.3876,2.4133,2.3816,2.3917,2.419,2.419,2.4339,2.4495,2.4495,2.4723,2.4979,2.501,2.5141,2.5284,2.5303,2.5303,2.5303,2.5303,2.5303,2.5303,2.5303,2.5337,2.5398,2.5413,2.5493,2.5601,2.5601,2.5658,2.5703,2.5703,2.5703,2.5703,2.5703,2.5703,2.5703,2.5703,2.5703,2.5703,2.5703,2.5703,2.5703,2.5703,2.5703,2.6055,2.6914,2.8574,2.9531,2.9551,3.0391,3.0859,3.0859,3.0898,3.0898,3.0898,3.0898,3.0898,3.0898,3.0898,3.0898,0.8925,0.8884,0.8652,0.8029,0.7413,0.6734,0.594,0.5204,0.4691,0.4691,0.41,0.3551,0.3727,0.4099,0.5177,0.0,0.0,1.2605,0.0,1.8288,2.0406,2.2629,2.504,2.667,2.6996,2.6925,2.7109,2.7755,2.67,2.6117,2.6303,2.5017,2.4007,2.3453,2.2688,2.231,2.231,2.231,2.231,2.231,2.231,2.231,2.231,2.231,2.231,2.2293,2.2573,2.2695,2.2721,2.3069,2.3392,2.3692,2.3692,2.3896,2.419,2.4074,2.4094,2.419,2.419,2.4428,2.47,2.47,2.4936,2.5203,2.5203,2.5253,2.5303,2.5303,2.5303,2.5303,2.5303,2.5303,2.5303,2.5303,2.5383,2.5471,2.5477,2.5567,2.5661,2.5661,2.5683,2.5703,2.5703,2.5703,2.5703,2.5703,2.5703,2.5703,2.5703,2.5703,2.5703,2.5703,2.5703,2.5937,2.6504,2.709,2.7793,2.8672,2.9277,2.9863,3.0449,3.0742,3.0898,3.0898,3.0898,3.0898,3.0898,3.0898,3.0898,3.0898,3.0898,3.0898,0.8804,0.8804,0.8652,0.8029,0.7582,0.7095,0.6485,0.5756,0.5236,0.558,0.4558,0.3764,0.4041,0.3996,0.451,0.0,0.0,1.0494,0.0,1.5718,1.7426,1.8053,2.1666,2.4603,2.5834,2.607,2.6736,2.8112,2.7363,2.6945,2.7104,2.5651,2.4607,2.4173,2.303,2.2436,2.2436,2.2436,2.2371,2.231,2.231,2.2349,2.2453,2.2349,2.2432,2.2624,2.2789,2.2947,2.3069,2.3414,2.3692,2.3876,2.3876,2.4016,2.419,2.419,2.419,2.419,2.419,2.4461,2.4804,2.4804,2.5031,2.5303,2.5303,2.5303,2.5303,2.5303,2.5303,2.5303,2.5303,2.5322,2.5339,2.533,2.5434,2.5543,2.5543,2.5611,2.5703,2.5703,2.5703,2.5801,2.6113,2.6152,2.6152,2.6152,2.6152,2.6269,2.6582,2.6621,2.6621,2.6621,2.6621,2.6855,2.7402,2.8262,2.9004,2.9551,2.9883,3.0312,3.0879,3.0898,3.0898,3.0898,3.0898,3.0898,3.0898,3.0898,3.0898,3.0898,3.0898,3.0898]}]]